[[{"header":{"parameterUnit":"m.s-1","parameterCategory":1,"la1":30.6,"la2":29.2853,"lo1":-89.7004,"lo2":-87.6739,"dy":0.0162,"dx":0.0183,"nx":112,"ny":82,"refTime":"2023-05-17T00:00:00:Z","depth":0,"parameterNumber":2,"parameterNumberName":"U-component_of_WINDS"},"data":[0.0,0.0,0.0,0.0,0.0,0.0,0.0,0.0,0.0,0.0,0.0,0.0,0.0,0.0,0.0,0.0,0.0,0.0,0.0,0.0,0.0,0.0,0.0,0.0,0.0,0.0,0.0,0.0,0.0,0.0,0.0,0.0,0.0,0.0,0.0,0.0,0.0,0.0,0.0,0.0,0.0,0.0,0.0,0.0,0.0,0.0,0.0,0.0,0.0,0.0,0.0,0.0,0.0,0.0,0.0,0.0,0.0,0.0,0.0,0.0,0.0,0.0,0.0,0.0,0.0,0.0,0.0,0.0,0.0,0.0,0.0,0.0,0.0,0.0,0.0,0.0,0.0,0.0,0.0,0.0,0.0,0.0,0.0,0.0,0.0,0.0,0.0,0.0,0.0,0.0,0.0,-1.3085,-1.5392,-1.6387,-1.5374,-1.636,-1.5487,-1.1884,0.0,0.0,0.0,0.0,0.0,0.0,0.0,0.0,0.0,0.0,0.0,0.0,0.0,0.0,0.0,0.0,0.0,0.0,0.0,0.0,0.0,0.0,0.0,0.0,0.0,0.0,0.0,0.0,0.0,0.0,0.0,0.0,0.0,0.0,0.0,0.0,0.0,0.0,0.0,0.0,0.0,0.0,0.0,0.0,0.0,0.0,0.0,0.0,0.0,0.0,0.0,0.0,0.0,0.0,0.0,0.0,0.0,0.0,0.0,0.0,0.0,0.0,0.0,0.0,0.0,0.0,0.0,0.0,0.0,0.0,0.0,0.0,0.0,0.0,0.0,0.0,0.0,0.0,0.0,0.0,0.0,0.0,0.0,0.0,0.0,0.0,0.0,0.0,0.0,0.0,0.0,0.0,0.0,0.0,0.0,0.0,0.0,0.0,0.0,0.0,0.0,0.0,0.0,0.0,-1.0896,-1.3361,-1.5762,-1.656,-1.4942,-1.5454,-1.434,-1.0772,0.0,0.0,0.0,0.0,0.0,0.0,0.0,0.0,0.0,0.0,0.0,0.0,0.0,0.0,0.0,0.0,0.0,0.0,0.0,0.0,0.0,0.0,0.0,0.0,0.0,0.0,0.0,0.0,0.0,0.0,0.0,0.0,0.0,0.0,0.0,0.0,0.0,0.0,0.0,0.0,0.0,0.0,0.0,0.0,0.0,0.0,0.0,0.0,0.0,0.0,0.0,0.0,0.0,0.0,0.0,0.0,0.0,0.0,0.0,0.0,0.0,0.0,0.0,0.0,0.0,0.0,0.0,0.0,0.0,0.0,0.0,0.0,0.0,0.0,0.0,0.0,0.0,0.0,0.0,0.0,0.0,0.0,0.0,0.0,0.0,0.0,0.0,0.0,0.0,0.0,0.0,0.0,0.0,0.0,0.0,0.0,0.0,0.0,0.0,0.0,0.0,0.0,0.0,-1.1212,-1.1895,-1.3581,-1.4733,-1.4856,-1.3502,-1.4023,-1.3417,-1.1157,-1.1773,0.0,0.0,0.0,0.0,0.0,0.0,0.0,0.0,0.0,0.0,0.0,0.0,0.0,0.0,0.0,0.0,0.0,0.0,0.0,0.0,0.0,0.0,0.0,0.0,0.0,0.0,0.0,0.0,0.0,0.0,0.0,0.0,0.0,0.0,0.0,0.0,0.0,0.0,0.0,0.0,0.0,0.0,0.0,0.0,0.0,0.0,0.0,0.0,0.0,0.0,0.0,0.0,0.0,0.0,0.0,0.0,0.0,0.0,0.0,0.0,0.0,0.0,0.0,0.0,0.0,0.0,0.0,0.0,0.0,0.0,0.0,0.0,0.0,0.0,0.0,0.0,0.0,0.0,0.0,0.0,0.0,0.0,0.0,0.0,0.0,0.0,0.0,0.0,0.0,0.0,0.0,0.0,0.0,0.0,0.0,0.0,0.0,0.0,0.0,0.0,0.0,0.0,-1.259,-1.3041,-1.3493,-1.3704,-1.3423,-1.2421,-1.2986,-1.2891,-1.1747,-1.1695,0.0,0.0,0.0,0.0,0.0,0.0,0.0,0.0,0.0,0.0,0.0,0.0,0.0,0.0,0.0,0.0,0.0,0.0,0.0,0.0,0.0,0.0,0.0,0.0,0.0,0.0,0.0,0.0,0.0,0.0,0.0,0.0,0.0,0.0,0.0,0.0,0.0,0.0,0.0,0.0,0.0,0.0,0.0,0.0,0.0,0.0,0.0,0.0,0.0,0.0,0.0,0.0,0.0,0.0,0.0,0.0,0.0,0.0,0.0,0.0,0.0,0.0,0.0,0.0,0.0,0.0,0.0,0.0,0.0,0.0,0.0,0.0,0.0,0.0,0.0,0.0,0.0,0.0,0.0,0.0,0.0,0.0,0.0,0.0,0.0,0.0,0.0,0.0,0.0,0.0,0.0,0.0,0.0,0.0,0.0,0.0,0.0,0.0,0.0,0.0,0.0,0.0,-1.2881,-1.3605,-1.2854,-1.3451,-1.3503,-1.2572,-1.2997,-1.2906,-1.1943,-1.2174,0.0,0.0,0.0,0.0,0.0,0.0,0.0,0.0,0.0,0.0,0.0,0.0,0.0,0.0,0.0,0.0,0.0,0.0,0.0,0.0,0.0,0.0,0.0,0.0,0.0,0.0,0.0,0.0,0.0,0.0,0.0,0.0,0.0,0.0,0.0,0.0,0.0,0.0,0.0,0.0,0.0,0.0,0.0,0.0,0.0,0.0,0.0,0.0,0.0,0.0,0.0,0.0,0.0,0.0,0.0,0.0,0.0,0.0,0.0,0.0,0.0,0.0,0.0,0.0,0.0,0.0,0.0,0.0,0.0,0.0,0.0,0.0,0.0,0.0,0.0,0.0,0.0,0.0,0.0,0.0,0.0,0.0,0.0,0.0,0.0,0.0,0.0,0.0,0.0,0.0,0.0,0.0,0.0,0.0,0.0,0.0,0.0,0.0,0.0,0.0,0.0,0.0,-1.353,-1.3613,0.0,-1.302,-1.2849,-1.1948,-1.2472,-1.2864,-1.2894,0.0,0.0,0.0,0.0,0.0,0.0,0.0,0.0,0.0,0.0,0.0,0.0,0.0,0.0,0.0,0.0,0.0,0.0,0.0,0.0,0.0,0.0,0.0,0.0,0.0,0.0,0.0,0.0,0.0,0.0,0.0,0.0,0.0,0.0,0.0,0.0,0.0,0.0,0.0,0.0,0.0,0.0,0.0,0.0,0.0,0.0,0.0,0.0,0.0,0.0,0.0,0.0,0.0,0.0,0.0,0.0,0.0,0.0,0.0,0.0,0.0,0.0,0.0,0.0,0.0,0.0,0.0,0.0,0.0,0.0,0.0,0.0,0.0,0.0,0.0,0.0,0.0,0.0,0.0,0.0,0.0,0.0,0.0,0.0,0.0,0.0,0.0,0.0,0.0,0.0,0.0,0.0,0.0,0.0,0.0,0.0,0.0,0.0,0.0,0.0,0.0,0.0,-1.39,-1.4196,-1.4022,0.0,-1.2902,-1.2637,-1.2292,-1.2662,-1.3206,-1.3868,0.0,0.0,0.0,0.0,0.0,0.0,0.0,0.0,0.0,0.0,0.0,0.0,0.0,0.0,0.0,0.0,0.0,0.0,0.0,0.0,0.0,0.0,0.0,0.0,0.0,0.0,0.0,0.0,0.0,0.0,0.0,0.0,0.0,0.0,0.0,0.0,0.0,0.0,0.0,0.0,0.0,0.0,0.0,0.0,0.0,0.0,0.0,0.0,0.0,0.0,0.0,0.0,0.0,0.0,0.0,0.0,0.0,0.0,0.0,0.0,0.0,0.0,0.0,0.0,0.0,0.0,0.0,0.0,0.0,0.0,0.0,0.0,0.0,0.0,0.0,0.0,0.0,0.0,0.0,0.0,0.0,0.0,0.0,0.0,0.0,0.0,0.0,0.0,0.0,0.0,0.0,0.0,0.0,0.0,0.0,0.0,0.0,0.0,0.0,0.0,0.0,0.0,-1.4114,-1.4792,-1.496,-1.4091,-1.3237,-1.3047,-1.3826,-1.3728,-1.3936,0.0,0.0,0.0,0.0,0.0,0.0,0.0,0.0,0.0,0.0,0.0,0.0,0.0,0.0,0.0,0.0,0.0,0.0,0.0,0.0,0.0,0.0,0.0,0.0,0.0,0.0,0.0,0.0,0.0,0.0,0.0,0.0,0.0,0.0,0.0,0.0,0.0,0.0,0.0,0.0,0.0,0.0,0.0,0.0,0.0,0.0,0.0,0.0,0.0,0.0,0.0,0.0,0.0,0.0,0.0,0.0,0.0,0.0,0.0,0.0,0.0,0.0,0.0,0.0,0.0,0.0,0.0,0.0,0.0,0.0,0.0,0.0,0.0,0.0,0.0,0.0,0.0,0.0,0.0,0.0,0.0,0.0,0.0,0.0,0.0,0.0,0.0,0.0,0.0,0.0,0.0,0.0,0.0,0.0,0.0,0.0,0.0,0.0,0.0,0.0,0.0,0.0,0.0,-1.4811,-1.4932,-1.4682,-1.3802,-1.3601,-1.3636,-1.3888,-1.3712,-1.4023,-1.5021,0.0,0.0,0.0,0.0,0.0,0.0,0.0,0.0,0.0,0.0,0.0,0.0,0.0,0.0,0.0,0.0,0.0,0.0,0.0,0.0,0.0,0.0,0.0,0.0,0.0,0.0,0.0,0.0,0.0,0.0,0.0,0.0,0.0,0.0,0.0,0.0,0.0,0.0,0.0,0.0,0.0,0.0,0.0,0.0,0.0,0.0,0.0,0.0,0.0,0.0,0.0,0.0,0.0,0.0,0.0,0.0,0.0,0.0,0.0,0.0,0.0,0.0,0.0,0.0,0.0,0.0,0.0,0.0,0.0,0.0,0.0,0.0,0.0,0.0,0.0,0.0,0.0,0.0,0.0,0.0,0.0,0.0,0.0,0.0,0.0,0.0,0.0,0.0,0.0,0.0,0.0,0.0,0.0,0.0,0.0,0.0,0.0,0.0,0.0,0.0,0.0,0.0,-1.5097,-1.4985,-1.4711,-1.4168,-1.3927,-1.3913,-1.4258,-1.3793,-1.3942,-1.5019,0.0,0.0,0.0,0.0,0.0,0.0,0.0,0.0,0.0,0.0,0.0,0.0,0.0,0.0,0.0,0.0,0.0,0.0,0.0,0.0,0.0,0.0,0.0,0.0,0.0,0.0,0.0,0.0,0.0,0.0,0.0,0.0,0.0,0.0,0.0,0.0,0.0,0.0,0.0,0.0,0.0,0.0,0.0,0.0,0.0,0.0,0.0,0.0,0.0,0.0,0.0,0.0,0.0,0.0,0.0,0.0,0.0,0.0,0.0,0.0,0.0,0.0,0.0,0.0,0.0,0.0,0.0,0.0,0.0,0.0,0.0,0.0,0.0,0.0,0.0,0.0,0.0,0.0,0.0,0.0,0.0,0.0,0.0,0.0,0.0,0.0,0.0,0.0,0.0,0.0,0.0,0.0,0.0,0.0,0.0,0.0,0.0,0.0,0.0,0.0,0.0,0.0,-1.5165,-1.4995,-1.4887,-1.4963,-1.422,-1.4013,-1.4811,-1.4001,-1.3844,-1.4843,0.0,0.0,0.0,0.0,0.0,0.0,0.0,0.0,0.0,0.0,0.0,0.0,0.0,0.0,0.0,0.0,0.0,0.0,0.0,0.0,0.0,0.0,0.0,0.0,0.0,0.0,0.0,0.0,0.0,0.0,0.0,0.0,0.0,0.0,0.0,0.0,0.0,0.0,0.0,0.0,0.0,0.0,0.0,0.0,0.0,0.0,0.0,0.0,0.0,0.0,0.0,0.0,0.0,0.0,0.0,0.0,0.0,0.0,0.0,0.0,-1.2473,0.0,0.0,0.0,0.0,0.0,0.0,0.0,0.0,0.0,0.0,0.0,0.0,0.0,0.0,0.0,0.0,0.0,0.0,0.0,0.0,0.0,0.0,0.0,0.0,0.0,0.0,0.0,0.0,0.0,0.0,0.0,0.0,0.0,0.0,0.0,0.0,0.0,0.0,0.0,0.0,0.0,-1.5723,-1.51,-1.4829,-1.5457,-1.4889,-1.4531,-1.4728,-1.4523,-1.4559,-1.496,-1.4976,0.0,0.0,0.0,0.0,0.0,0.0,0.0,0.0,0.0,0.0,0.0,0.0,0.0,0.0,0.0,0.0,0.0,0.0,0.0,0.0,0.0,0.0,0.0,0.0,0.0,0.0,0.0,0.0,0.0,0.0,0.0,0.0,0.0,0.0,0.0,0.0,0.0,0.0,0.0,0.0,0.0,0.0,0.0,0.0,0.0,0.0,0.0,0.0,0.0,0.0,0.0,0.0,0.0,0.0,0.0,0.0,0.0,0.0,0.0,0.0,-1.2605,0.0,0.0,0.0,0.0,0.0,0.0,0.0,0.0,0.0,0.0,0.0,0.0,0.0,0.0,0.0,0.0,0.0,0.0,0.0,0.0,0.0,0.0,0.0,0.0,0.0,0.0,0.0,0.0,0.0,0.0,0.0,0.0,0.0,0.0,0.0,0.0,0.0,0.0,0.0,0.0,-1.5356,-1.5013,-1.4831,-1.5099,-1.4731,-1.4508,-1.4592,-1.4595,-1.4662,-1.4744,-1.4826,0.0,0.0,0.0,0.0,0.0,0.0,0.0,0.0,0.0,0.0,0.0,0.0,0.0,0.0,0.0,0.0,0.0,0.0,0.0,0.0,0.0,0.0,0.0,0.0,0.0,0.0,0.0,0.0,0.0,0.0,0.0,0.0,0.0,0.0,0.0,0.0,0.0,0.0,0.0,0.0,0.0,0.0,0.0,0.0,0.0,0.0,0.0,0.0,0.0,0.0,0.0,0.0,0.0,-1.1836,-1.2297,-1.2406,-1.2787,-1.3042,-1.3163,-1.256,-1.2345,-1.2373,-1.2842,0.0,0.0,0.0,0.0,0.0,0.0,0.0,0.0,0.0,0.0,0.0,0.0,0.0,0.0,0.0,0.0,0.0,0.0,0.0,0.0,0.0,0.0,0.0,0.0,-1.5719,-1.6216,0.0,0.0,0.0,0.0,0.0,0.0,0.0,0.0,0.0,0.0,0.0,0.0,-1.5221,-1.5198,-1.5119,-1.4879,-1.4572,-1.4415,-1.4494,-1.4488,-1.4488,-1.4488,-1.4823,-1.5073,0.0,0.0,0.0,0.0,0.0,0.0,0.0,0.0,0.0,0.0,0.0,0.0,0.0,0.0,0.0,0.0,0.0,0.0,0.0,0.0,0.0,0.0,0.0,0.0,0.0,0.0,0.0,0.0,0.0,0.0,0.0,0.0,-0.9925,-1.0145,0.0,0.0,0.0,0.0,0.0,0.0,0.0,0.0,0.0,0.0,0.0,0.0,0.0,-1.0824,-1.097,-1.1302,-1.1421,-1.1326,-1.1654,-1.2137,-1.2795,-1.2513,-1.2804,-1.3401,-1.2984,0.0,-1.327,-1.2977,0.0,0.0,0.0,0.0,0.0,0.0,0.0,0.0,0.0,0.0,0.0,0.0,0.0,0.0,0.0,0.0,0.0,0.0,0.0,0.0,0.0,0.0,-1.6335,-1.571,-1.6124,-1.6699,0.0,-1.6256,-1.5801,-1.58,-1.5984,0.0,0.0,0.0,0.0,0.0,0.0,0.0,-1.6992,-1.6494,-1.6089,-1.6214,-1.5584,-1.4968,-1.4531,-1.4488,-1.4488,-1.4488,-1.5392,-1.5996,-1.6185,-1.6798,0.0,0.0,0.0,0.0,0.0,0.0,0.0,0.0,0.0,0.0,0.0,0.0,0.0,0.0,0.0,0.0,0.0,0.0,0.0,0.0,0.0,0.0,0.0,0.0,0.0,0.0,0.0,0.0,0.0,-0.9632,-0.9619,-0.9602,-0.9528,-0.9615,0.0,0.0,0.0,0.0,0.0,0.0,0.0,0.0,0.0,-1.0615,-1.0724,-1.0776,-1.0783,-1.093,-1.1004,-1.0953,-1.198,-1.2481,-1.2632,-1.336,-1.3637,-1.3496,-1.3311,-1.3213,-1.3135,-1.3098,-1.3242,-1.353,0.0,0.0,0.0,0.0,-1.4931,-1.5407,-1.4776,-1.4816,0.0,-1.5257,0.0,0.0,0.0,0.0,0.0,0.0,0.0,0.0,0.0,0.0,-1.5607,-1.5374,-1.5593,-1.5922,-1.6176,-1.612,-1.6059,0.0,-1.6474,-1.6554,-1.6109,0.0,0.0,0.0,0.0,-1.6462,-1.6727,-1.6604,-1.6443,-1.6354,-1.5916,-1.5581,-1.5461,-1.5554,-1.5606,-1.5606,-1.62,-1.6724,-1.7105,-1.7198,-1.7145,0.0,0.0,0.0,0.0,0.0,0.0,0.0,0.0,0.0,0.0,0.0,0.0,0.0,0.0,0.0,0.0,0.0,0.0,0.0,0.0,0.0,0.0,0.0,0.0,0.0,0.0,0.0,0.0,-0.9497,-0.9388,-0.907,-0.9302,-0.9571,0.0,0.0,0.0,0.0,0.0,0.0,-1.0477,-1.0864,-1.1093,-1.0988,-1.0995,-1.0982,-1.0782,-1.0782,-1.0782,-1.0846,-1.2132,-1.2757,-1.2685,-1.3956,-1.4212,-1.3662,-1.3555,-1.3271,-1.2949,-1.3299,-1.3448,-1.3529,-1.4352,-1.4836,-1.5051,-1.5068,-1.5623,-1.6217,-1.532,-1.5388,-1.584,-1.5891,-1.5925,-1.6016,-1.657,0.0,0.0,0.0,0.0,-1.634,-1.5719,-1.5338,-1.5075,-1.4853,-1.4876,-1.5074,-1.5522,-1.5896,-1.6207,0.0,-1.6763,-1.6881,-1.6413,0.0,0.0,0.0,0.0,-1.6814,-1.6638,-1.6835,-1.6843,-1.6447,-1.627,-1.62,-1.6202,-1.6333,-1.6411,-1.6411,-1.6796,-1.7238,-1.7683,-1.769,-1.7621,-1.7547,0.0,0.0,0.0,0.0,0.0,0.0,0.0,0.0,0.0,0.0,0.0,0.0,0.0,0.0,0.0,0.0,0.0,0.0,0.0,0.0,0.0,0.0,0.0,0.0,0.0,0.0,0.0,0.0,0.0,-0.8991,-0.9389,0.0,0.0,0.0,0.0,-0.9813,-1.061,-1.1078,-1.1093,-1.1265,-1.1397,-1.1356,-1.1356,-1.1363,-1.1383,-1.1383,-1.1383,-1.1383,-1.1927,-1.2606,-1.3337,-1.3558,-1.3802,-1.4029,-1.3682,-1.3271,-1.2978,-1.3521,-1.3426,-1.2977,-1.3622,-1.4207,-1.471,-1.4733,-1.546,-1.6464,-1.6396,-1.6409,-1.6476,-1.6476,-1.6499,-1.6557,-1.6582,-1.6615,0.0,0.0,-1.6581,-1.6346,-1.521,-1.5195,-1.5214,-1.4186,-1.4246,-1.4627,-1.5043,-1.5462,-1.5862,0.0,-1.657,-1.6636,-1.6033,0.0,-1.6099,-1.6356,-1.6471,-1.6817,-1.763,-1.7726,-1.7543,-1.7021,-1.6954,-1.6737,-1.6238,-1.6201,-1.6219,-1.6219,-1.6941,-1.7469,-1.7686,-1.8648,-1.8795,-1.7998,-1.7562,0.0,0.0,0.0,0.0,0.0,0.0,0.0,0.0,0.0,0.0,0.0,0.0,0.0,0.0,0.0,0.0,0.0,0.0,0.0,0.0,0.0,0.0,0.0,0.0,0.0,0.0,0.0,0.0,-1.0064,-1.0543,0.0,-1.0959,-1.0926,-1.1024,-1.1286,-1.1518,-1.1689,-1.188,-1.213,-1.2278,-1.2278,-1.2278,-1.2184,-1.1991,-1.1991,-1.1991,-1.1984,-1.2582,-1.2931,-1.2976,-1.338,-1.367,-1.3747,-1.3608,-1.344,-1.3281,-1.3511,-1.3313,-1.2968,-1.3552,-1.3909,-1.419,-1.5005,-1.5543,-1.5964,-1.638,-1.6522,-1.6522,-1.6522,-1.6498,-1.6542,-1.6542,-1.6553,-1.6531,-1.6561,-1.6273,-1.5913,-1.5522,-1.5246,-1.5094,-1.4974,-1.5048,-1.5351,-1.6099,-1.638,-1.6637,-1.712,-1.7014,-1.683,-1.6702,-1.6589,-1.6743,-1.7396,-1.7632,-1.7813,-1.8079,-1.8363,-1.824,-1.7582,-1.7497,-1.7437,-1.7264,-1.7391,-1.7489,-1.7489,-1.7926,-1.8235,-1.8411,-1.8681,-1.8848,-1.885,-1.4634,-1.0874,0.0,0.0,0.0,0.0,0.0,0.0,0.0,0.0,0.0,0.0,0.0,0.0,0.0,0.0,0.0,0.0,0.0,0.0,0.0,0.0,0.0,0.0,0.0,0.0,0.0,0.0,-1.076,-1.1049,-1.1577,-1.2019,-1.2173,-1.2096,-1.2177,-1.2456,-1.2641,-1.2806,-1.2899,-1.3186,-1.3253,-1.3053,-1.3046,-1.2859,-1.2458,-1.2452,-1.2405,-1.2298,-1.2927,-1.3085,-1.2862,-1.3316,-1.3585,-1.37,-1.3633,-1.357,-1.3516,-1.3662,-1.3389,-1.2929,-1.3334,-1.3637,-1.3909,-1.4915,-1.541,-1.5676,-1.6281,-1.6522,-1.6522,-1.6522,-1.6522,-1.6522,-1.6522,-1.6522,-1.6522,-1.6522,-1.6258,-1.5932,-1.5743,-1.5429,-1.5169,-1.5273,-1.5297,-1.5522,-1.6261,-1.6578,-1.6835,-1.7338,-1.7303,-1.7216,-1.7278,-1.7172,-1.7338,-1.7931,-1.8339,-1.8542,-1.8543,-1.8732,-1.8707,-1.8217,-1.7963,-1.7811,-1.7811,-1.7795,-1.7869,-1.8044,-1.8066,-1.8209,-1.8589,-1.8339,-1.8324,-1.8614,-1.3058,-1.0583,-1.144,0.0,0.0,0.0,0.0,0.0,0.0,0.0,0.0,0.0,0.0,0.0,0.0,0.0,0.0,0.0,0.0,0.0,0.0,0.0,0.0,0.0,0.0,0.0,-1.0394,-1.1052,-1.1636,-1.195,-1.2498,-1.2775,-1.2412,-1.2919,-1.3267,-1.3267,-1.4055,-1.4409,-1.4115,-1.4369,-1.4249,-1.3579,-1.3559,-1.336,-1.2842,-1.2829,-1.2681,-1.2311,-1.2792,-1.3057,-1.3105,-1.3288,-1.3596,-1.4025,-1.3758,-1.3598,-1.3574,-1.3984,-1.3662,-1.29,-1.29,-1.3248,-1.3862,-1.4468,-1.505,-1.5676,-1.6281,-1.6522,-1.6522,-1.6522,-1.6522,-1.6522,-1.6522,-1.6522,-1.6522,-1.6522,-1.6522,-1.6396,-1.5856,-1.5718,-1.558,-1.5053,-1.4966,-1.5069,-1.5462,-1.5968,-1.6472,-1.6892,-1.7397,-1.7742,-1.7697,-1.7697,-1.7744,-1.7888,-1.8479,0.0,-1.9031,-1.8978,-1.8944,-1.8917,-1.8268,-1.7845,-1.7845,-1.7363,-1.7302,-1.7828,-1.7363,-1.7403,-1.8205,-1.7729,-1.7381,-1.7271,-1.3357,-1.3853,-1.8922,0.0,0.0,0.0,0.0,0.0,0.0,0.0,0.0,0.0,0.0,0.0,0.0,0.0,0.0,0.0,0.0,0.0,0.0,0.0,0.0,0.0,0.0,-1.1321,-1.1302,-1.2134,-1.2939,-1.3453,-1.4032,-1.4322,-1.4242,-1.4382,-1.4482,-1.4482,-1.471,-1.471,-1.4416,-1.4476,-1.4249,-1.3579,-1.3559,-1.3467,-1.3086,-1.2936,-1.2782,-1.2694,-1.2401,-1.2565,-1.3237,-1.2763,-1.3282,-1.4619,-1.4222,-1.4174,-1.4443,-1.4561,-1.4102,-1.334,-1.334,-1.3244,-1.3238,-1.3826,-1.4732,-1.5676,-1.6281,-1.6522,-1.6522,-1.6522,-1.6522,-1.6522,-1.6522,-1.6522,-1.6522,-1.6522,-1.6522,-1.6484,-1.6333,-1.6296,-1.6258,-1.6107,-1.607,-1.6182,-1.6676,-1.722,-1.7762,-1.8264,-1.8802,-1.8837,-1.7861,-1.7697,-1.7885,-1.8416,-1.8935,0.0,-1.9612,-1.9876,-1.9813,-1.9184,-1.8939,-1.8802,-1.8802,-1.868,-1.8819,-1.9367,-1.8737,-1.8569,-1.8984,-1.8676,-1.7884,-1.6608,-1.6648,-1.8234,0.0,0.0,0.0,0.0,0.0,0.0,0.0,0.0,0.0,0.0,0.0,0.0,0.0,0.0,0.0,0.0,0.0,0.0,0.0,0.0,0.0,0.0,-1.1929,-1.2506,-1.2929,-1.33,-1.3841,-1.4549,-1.4937,-1.5197,-1.5311,-1.5331,-1.5331,-1.5331,-1.5331,-1.5197,-1.4903,-1.489,-1.4676,-1.4208,-1.4075,-1.3874,-1.3581,-1.3273,-1.306,-1.2933,-1.2465,-1.2597,-1.3078,-1.2365,-1.2925,-1.4455,-1.4073,-1.42,-1.4795,-1.4971,-1.4541,0.0,0.0,0.0,0.0,0.0,-1.4538,-1.5632,-1.6008,-1.6281,-1.6522,-1.6522,-1.6522,-1.6522,-1.6522,-1.6522,-1.6522,-1.6522,-1.6522,-1.6522,-1.6522,-1.6522,-1.6522,-1.6522,-1.6522,-1.6595,-1.6909,-1.7394,-1.7867,-1.8185,-1.8855,0.0,-1.8332,-1.8401,-1.8635,-1.8894,-1.9405,-1.9811,-1.9937,-2.0132,-2.0111,-1.9799,-1.9478,-1.9358,-1.9519,-1.9344,0.0,0.0,0.0,-1.9126,-1.9303,-1.9149,0.0,0.0,0.0,-1.938,-1.9198,0.0,0.0,0.0,-1.4198,-1.4473,0.0,0.0,0.0,0.0,0.0,0.0,0.0,0.0,0.0,0.0,0.0,0.0,0.0,0.0,0.0,0.0,-1.3324,-1.3781,-1.4863,-1.4589,-1.4576,-1.5351,-1.5444,-1.5545,-1.5805,-1.5832,-1.5832,-1.5832,-1.5832,-1.5705,-1.5411,0.0,0.0,0.0,0.0,-1.4429,-1.4135,-1.3841,-1.3547,-1.3253,-1.2946,-1.2856,-1.2954,-1.2317,-1.2855,-1.4123,-1.376,-1.4135,-1.4961,-1.5332,-1.498,-1.4107,-1.3691,-1.3252,-1.2968,-1.3637,-1.4595,-1.5543,-1.5632,0.0,0.0,-1.6522,-1.6522,-1.6522,-1.6522,-1.6522,-1.6522,-1.6522,-1.6522,-1.6522,-1.6522,-1.6522,-1.6522,-1.6522,-1.6522,-1.6522,-1.6522,-1.6909,-1.7312,-1.7312,-1.8185,-1.8893,-1.8893,-1.9332,-1.9607,-1.9377,-1.986,-2.0198,-2.005,-1.9986,-2.0077,-2.0439,0.0,0.0,-2.0,-1.9689,-1.9668,-2.0136,-1.9767,-1.9539,-1.9516,-1.959,-1.9952,-2.0601,-2.0625,-1.9001,-1.5747,-2.0381,-1.9115,-1.2396,-1.3694,-1.4307,0.0,0.0,0.0,0.0,0.0,0.0,0.0,0.0,0.0,0.0,0.0,0.0,0.0,0.0,0.0,-1.3393,-1.4206,-1.479,-1.5251,-1.5418,-1.5551,-1.5725,-1.5745,-1.5765,-1.5818,-1.5832,-1.5832,-1.5832,-1.5832,-1.5705,-1.5411,-1.5398,-1.5264,-1.4977,-1.491,-1.4736,-1.4442,-1.4148,-1.3854,-1.3554,0.0,0.0,-1.3931,-1.3404,-1.4018,-1.5495,-1.5115,-1.5258,-1.582,-1.5908,-1.543,-1.458,-1.3809,-1.3252,-1.3017,-1.4107,-1.4652,-1.5017,-1.5964,-1.638,-1.6522,-1.6522,-1.6522,-1.6522,-1.6522,-1.6522,0.0,-1.6522,-1.6522,-1.6522,-1.6522,-1.6522,-1.6522,-1.6522,-1.6522,-1.6522,-1.6522,-1.6909,-1.7312,-1.7312,-1.8185,-1.8893,-1.8893,-1.9332,-1.9681,-1.9637,-1.9728,-1.9919,-2.0211,-2.0213,-2.0208,-2.0264,-2.0428,-2.0428,-2.0176,-2.0711,-2.1113,-2.1284,-2.1547,-2.146,-2.0875,-2.1392,-2.18,-2.1936,-2.1936,-2.1586,-2.0873,-2.1874,-2.1586,-2.0145,-2.0755,-2.1107,0.0,0.0,0.0,0.0,0.0,0.0,0.0,0.0,0.0,0.0,0.0,-1.1005,0.0,0.0,-1.3225,-1.4396,-1.501,-1.5444,-1.5591,-1.5738,-1.5832,-1.5832,-1.5832,-1.5832,-1.5832,-1.5832,-1.5832,-1.5832,-1.5832,-1.5765,-1.5618,-1.5611,-1.5545,-1.5398,-1.5257,-1.511,-1.4957,-1.4669,-1.4449,-1.4302,-1.3861,-1.3811,-1.4106,-1.3572,-1.4109,-1.5429,-1.5249,-1.5647,-1.6396,-1.6396,-1.5889,-1.5059,-1.4629,-1.4072,-1.3608,-1.4609,-1.4982,-1.515,-1.6128,-1.646,-1.6522,-1.6522,-1.6522,-1.6522,-1.6522,-1.6522,-1.6522,-1.6522,-1.6522,-1.6522,-1.6522,-1.6522,-1.6522,-1.6522,-1.6522,-1.6522,-1.6522,-1.671,-1.6909,-1.6909,-1.7787,-1.8496,-1.8496,-1.9169,-1.969,-1.969,-1.969,-1.9782,-1.9965,-2.0,-2.0054,-2.0226,-2.043,-2.0645,-2.0888,-2.153,-2.1898,-2.194,-2.218,-2.2141,-2.1769,-2.2107,-2.231,-2.231,-2.231,-2.231,-2.231,-2.231,-2.231,-2.231,-2.2508,-2.2721,0.0,0.0,0.0,0.0,0.0,0.0,0.0,0.0,-1.1168,-1.0785,-1.1508,-1.2645,-1.3688,-1.3999,-1.4405,-1.5444,-1.5712,-1.5832,-1.5832,-1.5832,-1.5832,-1.5832,-1.5832,-1.5832,-1.5832,-1.5832,-1.5832,-1.5832,-1.5832,-1.5832,-1.5832,-1.5832,-1.5832,-1.5832,-1.5605,-1.5451,-1.5398,-1.5164,-1.5017,-1.4957,-1.4482,-1.4195,-1.4075,-1.3601,-1.4036,-1.5217,-1.5513,-1.6043,-1.6855,-1.6768,-1.626,-1.5537,-1.5537,-1.5068,-1.441,-1.5007,-1.5308,-1.5549,-1.6174,-1.6532,-1.6672,-1.6559,-1.6522,-1.6522,-1.6522,-1.6522,-1.6522,-1.6522,-1.6522,-1.6522,-1.6522,-1.6609,-1.666,-1.6547,-1.6609,-1.666,-1.6547,-1.6609,-1.666,-1.6547,-1.7363,-1.8084,-1.7961,-1.8817,-1.9566,-1.969,-1.969,-1.969,-1.969,-1.969,-1.9803,-2.0158,-2.0246,-2.0601,-2.143,-2.184,-2.2077,-2.2163,-2.2237,-2.231,-2.231,-2.231,-2.231,-2.231,-2.231,-2.231,-2.231,-2.231,-2.231,-2.231,-2.231,-2.2426,-0.8905,-0.8788,-0.8489,-0.9473,-0.9716,-1.0161,0.0,0.0,-1.3061,-1.2699,-1.2901,-1.3357,-1.4129,-1.4175,-1.4595,-1.6016,-1.5979,-1.5832,-1.5832,-1.5832,-1.5832,-1.5832,-1.5832,-1.5832,-1.5832,-1.5832,-1.5832,-1.5832,-1.5832,-1.5832,-1.5832,-1.5832,-1.5832,-1.5832,-1.5798,-1.5658,-1.5398,-1.5364,-1.5217,-1.4963,-1.4897,-1.4589,-1.4082,-1.4015,-1.4764,-1.6146,-1.7174,-1.7533,-1.7285,-1.6894,-1.6436,-1.5986,-1.5986,-1.5693,-1.5233,-1.5159,-1.5545,-1.6131,-1.6243,-1.6767,-1.72,-1.6685,-1.6522,-1.6522,-1.6522,-1.6522,-1.6522,-1.6522,-1.6522,-1.6522,-1.6522,-1.6898,-1.7149,-1.6635,-1.6911,-1.7149,-1.6635,-1.6923,-1.7137,-1.6622,-1.742,-1.8031,-1.7474,-1.8302,-1.9169,-1.9639,-1.969,-1.969,-1.969,-1.969,-1.9711,-1.9747,-2.0089,-2.0516,-2.1023,-2.1134,-2.1291,-2.1658,-2.2077,-2.231,-2.231,-2.231,-2.231,-2.231,-2.231,-2.231,-2.231,-2.231,-2.231,-2.231,-2.231,-2.231,-0.892,-0.9972,0.0,0.0,-1.1453,-1.2334,-1.2522,-1.3477,-1.4209,-1.3938,-1.4483,-1.5114,-1.5448,-1.553,-1.5725,0.0,-1.6166,-1.6086,-1.6086,-1.5939,-1.5832,-1.5832,-1.5832,-1.5832,-1.5832,-1.5832,-1.5832,-1.5832,-1.5832,-1.5832,-1.5832,-1.5832,-1.5832,-1.5832,-1.5832,-1.5772,-1.5651,-1.5651,-1.5585,-1.5464,-1.5297,-1.4997,-1.4589,-1.4416,-1.474,-1.5678,-1.7146,-1.7571,-1.7181,-1.7639,-1.7441,-1.6836,-1.6836,-1.6562,-1.6135,-1.5982,-1.617,-1.662,-1.7073,-1.7314,-1.74,-1.7476,-1.7287,-1.7024,-1.7024,-1.7024,-1.6948,-1.6609,-1.6522,-1.6597,-1.6936,-1.72,-1.74,-1.7488,-1.7689,-1.7802,-1.7551,-1.7689,-1.779,-1.7551,-1.8119,-1.8495,-1.7903,-1.8671,-1.9349,-1.9265,-1.9479,-1.969,-1.969,-1.969,-1.969,-1.969,-2.0054,-2.0382,-2.0583,-2.0829,-2.1055,-2.1244,-2.1628,-2.1811,-2.1554,-2.1781,-2.1764,-2.1554,-2.1554,-2.1645,-2.1899,-2.1899,-2.2032,-2.231,-2.231,-2.231,-0.9826,0.0,0.0,-1.2056,-1.3016,-1.4005,-1.3801,-1.4662,-1.5431,-1.5158,-1.5789,-1.6393,-1.6393,-1.65,-1.652,-1.6306,-1.6273,-1.6246,-1.6166,-1.6039,-1.5919,-1.5838,-1.5832,-1.5832,-1.5832,-1.5832,-1.5832,-1.5832,-1.5832,-1.5832,-1.5832,-1.5832,-1.5832,-1.5832,-1.5832,-1.5832,-1.5832,-1.5832,-1.5832,-1.5825,-1.5618,-1.5364,-1.507,-1.5116,-1.5319,-1.574,-1.7295,-1.7821,-1.7714,-1.8452,-1.832,-1.7559,-1.7559,-1.7217,-1.6713,-1.6597,-1.685,-1.7263,-1.752,-1.7713,-1.7877,-1.8129,-1.794,-1.7614,-1.7614,-1.7614,-1.7513,-1.7099,-1.6986,-1.7074,-1.7501,-1.7714,-1.7903,-1.8141,-1.843,-1.8606,-1.8455,-1.8668,-1.8844,-1.8681,-1.8955,-1.9045,-1.8533,-1.9006,-1.9307,-1.8784,-1.9152,-1.9523,-1.9669,-1.969,-1.969,-1.969,-1.9965,-2.0124,-2.0124,-2.0565,-2.0797,-2.0797,-2.1213,-2.1306,-2.0991,-2.1275,-2.1306,-2.1007,-2.0991,-2.115,-2.143,-2.1552,-2.1764,-2.2106,-2.2237,-2.231,0.0,0.0,-1.2056,-1.4166,-1.4263,-1.4266,-1.5886,-1.644,-1.666,-1.6687,-1.6693,-1.6693,-1.6693,-1.6473,-1.6286,-1.6273,-1.6273,-1.6172,-1.5885,-1.6086,-1.6152,-1.5865,-1.5832,-1.5832,0.0,-1.5832,-1.5832,-1.5832,-1.5832,-1.5832,-1.5832,-1.5832,-1.5832,-1.5832,-1.5832,-1.5832,-1.5832,-1.5832,-1.5832,-1.5832,-1.5818,-1.5665,-1.5371,-1.621,-1.6737,-1.7082,-1.8186,-1.8856,-1.9268,-1.9268,-1.8769,-1.7988,-1.7988,-1.748,-1.6728,-1.6699,-1.7357,-1.8136,-1.7176,-1.7777,-1.8845,-1.8367,-1.8191,-1.8179,-1.8179,-1.8179,-1.8179,-1.8154,-1.8154,-1.8154,-1.8179,-1.8581,-1.8795,-1.8329,-1.8995,-1.961,-1.912,-1.9836,-2.0426,-1.9861,-1.9748,-1.9585,-1.907,-1.8982,-1.8856,-1.8319,-1.8613,-1.9134,-1.9641,-1.969,-1.969,-1.969,-1.9711,-1.9711,-1.9711,-2.0089,-2.0314,-2.0314,-2.0764,-2.0991,-2.0991,-2.0991,-2.0991,-2.0991,-2.0991,-2.1007,-2.1023,-2.1399,-2.1628,-2.1628,-2.2106,-2.231,0.0,0.0,-1.4099,-1.5208,-1.549,-1.5732,-1.672,-1.678,-1.676,-1.6961,-1.6823,-1.6628,-1.6427,-1.6404,-1.6334,-1.6334,-1.63,-1.6239,-1.6139,-1.6373,-1.638,-1.5885,-1.6005,0.0,0.0,0.0,0.0,-1.5832,-1.5832,-1.5832,-1.5832,-1.5832,-1.5832,-1.5832,-1.5832,-1.5832,-1.5832,-1.5832,-1.5832,-1.5825,-1.5631,-1.5491,-1.5384,-1.5535,-1.5514,-1.5454,-1.7282,-1.792,-1.7679,-1.908,-1.9365,-1.8857,-1.8857,-1.8682,-1.8389,-1.8105,-1.8552,-1.9137,-1.7882,-1.7864,-1.8522,-1.9299,-1.9052,-1.8588,-1.9108,-1.902,-1.8681,-1.8304,-1.8468,-1.8684,-1.8503,-1.9312,-2.0045,-1.9606,-2.0249,-2.0878,-2.0702,-2.0953,-2.1154,-2.0953,-2.0627,-2.02,-1.9635,-1.9513,-1.9318,-1.8746,-1.8794,-1.8969,-1.9161,-1.9479,-1.969,-1.969,-1.969,-1.969,-1.969,-1.9803,-1.9909,-1.9909,-2.0296,-2.0431,-2.0154,-2.0398,-2.0398,-2.0139,-2.0139,-2.0277,-2.055,-2.0667,-2.091,-2.1213,-2.1645,-2.184,-1.417,-1.4668,-1.5205,-1.6121,-1.6446,-1.6687,-1.7061,-1.7001,-1.68,-1.6573,-1.6539,-1.6423,-1.5892,-1.5793,-1.5835,-1.5949,-1.5937,-1.5992,-1.6099,-1.6453,-1.6567,-1.6186,-1.6313,0.0,0.0,0.0,0.0,-1.5845,-1.5925,-1.5985,-1.5985,-1.6086,-1.6099,-1.5992,-1.5985,-1.5939,-1.5832,-1.5832,-1.5832,-1.5825,-1.5645,-1.5551,-1.5545,-1.5357,-1.5549,-1.6119,-1.7368,-1.8061,-1.8364,-1.9649,-1.9893,-1.9512,-1.9512,-1.9424,-1.9248,-1.8975,-1.9213,-1.9492,-1.8765,-1.8736,-1.9262,-2.0294,-2.006,-1.949,-2.0179,-2.0037,-1.9585,-1.9422,-1.9635,-1.987,-1.966,-2.0286,-2.0932,-2.0738,-2.1223,-2.1782,-2.1782,-2.1945,-2.2071,-2.2071,-2.1631,-2.1079,-2.0501,-1.9927,-1.937,-1.8998,-1.8945,-1.8925,-1.8912,-1.9207,-1.9479,-1.969,-1.969,-1.969,-1.969,-1.969,-1.9794,-2.0034,-2.0309,-2.0451,-2.043,-2.0658,-2.0658,-2.0408,-2.0408,-2.0541,-2.0788,-2.0705,-2.0808,-2.1128,-2.1294,-2.146,-1.5078,-1.532,-1.5411,-1.682,-1.7161,-1.7148,-1.7148,-1.7101,-1.6747,-1.5625,-1.5874,-1.5995,0.0,0.0,-1.5077,-1.529,-1.539,-1.5558,-1.5838,-1.6393,-1.6767,0.0,0.0,0.0,0.0,0.0,0.0,-1.5939,0.0,-1.6293,-1.6293,-1.656,-1.6573,-1.6286,-1.6273,-1.6126,-1.5832,-1.5832,-1.5832,-1.5832,-1.5832,-1.5832,-1.5832,-1.5832,-1.685,-1.8661,-1.8327,-1.9353,-2.115,-2.0781,-2.0371,-2.001,-1.999,-1.9746,-1.9424,-1.9424,-1.9424,-1.9446,-1.9749,-2.0234,-2.0864,-2.1313,-2.1063,-2.0715,-2.1312,-2.1087,-2.0761,-2.1312,-2.1543,-2.1581,-2.1481,-2.1575,-2.1644,-2.1562,-2.1951,-2.2385,-2.2359,-2.2761,-2.3078,-2.3078,-2.2686,-2.2133,-2.1543,-2.015,-1.9046,-1.8983,-1.8986,-1.895,-1.8864,-1.8927,-1.9182,-1.9662,-1.9765,-1.9794,-1.9794,-1.9794,-2.0064,-2.0722,-2.0767,-2.1051,-2.1665,-2.1695,-2.1695,-2.1695,-2.1695,-2.1695,-2.1695,-2.1445,-2.1312,-2.1332,-2.1142,-2.123,-1.5919,-1.6357,-1.6734,-1.7321,-1.7308,-1.7148,-1.7148,-1.6473,-1.5758,-1.5458,-1.5282,-1.5043,0.0,0.0,0.0,-1.5084,-1.5773,0.0,-1.6473,-1.7188,0.0,0.0,0.0,-1.7528,-1.7081,-1.7034,0.0,0.0,-1.668,-1.6593,-1.6593,-1.6667,-1.6573,-1.6286,-1.6273,-1.6126,-1.5832,-1.5832,-1.5832,-1.5832,-1.5832,-1.5832,-1.5832,-1.5832,-1.6486,-1.7686,-1.8314,-1.9299,-2.0458,-2.0899,-2.1191,-2.1357,-2.1025,-2.1025,-2.1221,-2.1221,-2.1221,-2.1233,-2.1312,-2.0644,-1.9799,-2.0182,-1.9964,-1.9714,-2.0819,-2.0742,-2.0442,-2.0912,-2.1844,-2.2489,-2.1549,-2.2606,-2.3667,-2.2663,-2.2997,-2.3452,-2.3012,-2.2977,-2.3078,-2.3078,-2.2686,-2.2008,-2.1041,-2.0526,-1.9974,-1.9145,-1.8992,-1.8853,-1.843,-1.9474,-2.0117,-1.988,-2.0641,-2.1186,-2.1186,-2.1186,-2.1261,-2.144,-2.1455,-2.1515,-2.168,-2.1695,-2.1695,-2.1695,-2.1695,-2.1695,-2.1695,-2.1618,-2.1605,-2.159,-2.1846,-2.1748,-1.6518,-1.6901,-1.7215,-1.7508,-1.7368,-1.7116,-1.6789,-1.6142,-1.5335,-1.4789,-1.4798,0.0,0.0,0.0,0.0,0.0,0.0,0.0,-1.6633,-1.7361,-1.7876,0.0,-1.8136,0.0,-1.7776,-1.7736,-1.7736,0.0,-1.7335,-1.7088,-1.7088,-1.7221,-1.7101,-1.6673,-1.6533,-1.6259,-1.5832,-1.5832,-1.5832,-1.5832,-1.5832,-1.5832,-1.5832,-1.5832,-1.6649,-1.8273,0.0,-1.9713,-2.1231,-2.1433,-2.167,-2.1865,-2.1611,-2.167,-2.1885,-2.1885,-2.1885,-2.1899,-2.1929,-2.1281,-2.0483,-2.0702,-2.0357,-2.0094,-2.1084,-2.1026,-2.0726,-2.1698,-2.2582,-2.301,-2.2298,-2.3472,-2.4462,-2.3263,-2.3497,-2.3916,-2.359,-2.3314,-2.3078,-2.3078,-2.2686,-2.2121,-2.1493,-2.0991,-2.0451,-1.9836,-1.9522,-1.9157,-1.8613,-1.936,-2.0005,-2.0223,-2.0606,-2.1085,-2.1655,-2.1425,-2.1488,-2.2099,-2.2128,-2.2248,-2.2517,-2.2532,-2.2532,-2.2532,-2.2532,-2.2532,-2.2532,-2.2263,-2.2128,-2.2128,-2.2076,-2.1926,-1.7094,-1.7295,-1.7321,-1.7528,-1.7301,-1.6941,-1.6292,-1.5756,-1.512,-1.4119,0.0,-1.4237,-1.3127,0.0,-1.4,-1.4073,0.0,-1.5431,-1.66,-1.7275,-1.7869,-1.8477,-1.8584,-1.8591,-1.8551,-1.8551,-1.8551,-1.8551,-1.8023,-1.7689,-1.7649,-1.7903,-1.7769,-1.7271,-1.6827,-1.6406,-1.5892,-1.5845,-1.5832,-1.5832,-1.6015,-1.6015,-1.6015,-1.6197,-1.7569,-1.9745,-1.9329,0.0,-2.2568,-2.2139,-2.2002,-2.2041,-2.1992,-2.2002,-2.2051,-2.2051,-2.2051,-2.2041,-2.1992,-2.1973,-2.2016,-2.2015,-2.1589,-2.1248,-2.2024,-2.1721,-2.142,-2.2829,-2.325,-2.3262,-2.3332,-2.405,-2.4604,-2.3809,-2.3928,-2.4167,-2.4029,-2.3602,-2.3251,-2.3251,-2.2862,-2.2485,-2.2334,-2.1518,-2.084,-2.0743,-2.0238,-1.9723,-1.9196,-1.9162,-1.957,-2.0514,-2.034,-2.0627,-2.1732,-2.1386,-2.1578,-2.2757,-2.2802,-2.3041,-2.358,-2.3595,-2.3595,-2.3595,-2.3595,-2.3595,-2.3595,-2.3056,-2.2802,-2.2828,-2.2218,-2.2112,-1.8083,-1.8076,-1.7842,-1.7635,-1.7001,-1.6434,-1.6281,-1.5169,0.0,0.0,0.0,-1.3671,-1.28,-1.3585,0.0,-1.4125,0.0,0.0,0.0,0.0,-1.8183,0.0,0.0,0.0,0.0,0.0,0.0,0.0,0.0,-1.823,-1.7983,-1.8016,-1.7769,-1.7271,-1.6627,-1.6299,-1.6192,-1.5952,-1.5832,-1.5825,-1.685,-1.7412,-1.7404,-1.8403,-1.9662,-2.1016,-2.0864,0.0,-2.2998,-2.2578,-2.2607,-2.2891,-2.2539,-2.2617,-2.292,-2.292,-2.292,-2.2871,-2.2519,-2.2402,-2.2394,-2.2663,-2.236,-2.2049,-2.3433,-2.2914,-2.1945,-2.2657,-2.2793,-2.2894,-2.3372,-2.4213,-2.4985,-2.5148,-2.524,-2.5071,-2.4192,-2.3916,-2.3853,-2.3853,-2.3766,-2.3414,-2.2472,-2.2159,-2.1719,-2.0803,-2.063,-2.0313,-1.9748,-2.0126,-2.0417,-2.0147,-2.1373,-2.2288,-2.2511,-2.2863,-2.321,-2.343,-2.343,-2.349,-2.3595,-2.3595,-2.3595,-2.3595,-2.3595,-2.3595,-2.3595,-2.349,-2.343,-2.343,-2.3325,-2.3038,-1.8136,-1.8156,-1.7969,-1.7662,-1.6807,-1.5954,-1.5748,0.0,0.0,0.0,0.0,-1.3467,-1.2802,0.0,0.0,0.0,0.0,0.0,0.0,0.0,0.0,0.0,0.0,0.0,0.0,0.0,0.0,0.0,0.0,-1.8751,-1.8303,-1.7976,-1.7602,-1.7161,-1.6874,-1.6653,-1.65,-1.687,-1.6996,-1.6996,-1.8125,-1.868,-1.868,-1.9222,-2.0124,-2.1293,-2.1293,0.0,-2.3125,-2.292,-2.2959,-2.3115,-2.292,-2.2959,-2.3135,-2.3135,-2.3135,-2.3105,-2.291,-2.2832,-2.2926,-2.3629,-2.316,-2.2495,-2.3224,-2.3117,-2.2865,-2.3028,-2.3095,-2.3078,-2.2796,-2.3441,-2.4267,-2.4437,-2.5098,-2.5385,-2.4594,-2.4431,-2.4431,-2.4431,-2.4431,-2.4167,-2.3339,-2.2937,-2.246,-2.1644,-2.128,-2.0891,-2.0326,-2.0564,-2.0642,-2.0452,-2.0903,-2.1582,-2.2603,-2.2665,-2.2891,-2.3551,-2.3595,-2.3595,-2.3595,-2.3595,-2.3595,-2.3595,-2.3595,-2.3595,-2.3595,-2.3595,-2.3595,-2.3595,-2.3595,-2.343,-1.8023,-1.8096,-1.7969,-1.7662,-1.6653,-1.5633,-1.5173,-1.441,0.0,0.0,-1.3571,-1.3354,-1.2964,0.0,0.0,0.0,0.0,0.0,0.0,0.0,0.0,0.0,0.0,0.0,0.0,0.0,0.0,0.0,0.0,0.0,-1.8517,-1.7916,-1.7475,-1.7248,-1.7181,-1.7041,-1.68,-1.7407,-1.7882,-1.8067,-1.9023,-1.967,-1.9852,-2.0133,-2.0764,-2.1667,-2.1667,0.0,0.0,-2.3135,-2.3135,-2.3135,-2.3135,-2.3135,-2.3135,-2.3135,-2.3135,-2.3135,-2.3135,-2.3135,-2.3309,-2.4457,-2.399,-2.3035,-2.3563,-2.3699,-2.3682,-2.3892,-2.374,-2.3294,-2.2553,-2.2925,-2.3514,-2.3745,-2.4576,-2.5244,-2.5169,-2.5071,-2.4983,-2.4983,-2.4983,-2.477,-2.4117,-2.3615,-2.3088,-2.241,-2.1945,-2.1468,-2.097,-2.0894,-2.0879,-2.0926,-2.0399,-2.067,-2.2346,-2.2146,-2.2423,-2.3551,-2.3595,-2.3595,-2.3595,-2.3595,-2.3595,-2.3595,-2.3595,-2.3595,-2.3595,-2.3595,-2.3595,-2.3595,-2.3595,-2.3595,-1.8326,-1.8257,-1.7969,-1.7662,-1.65,-1.5388,-1.5218,0.0,0.0,-1.395,-1.3759,-1.343,-1.3218,-1.3204,0.0,0.0,0.0,0.0,0.0,0.0,0.0,0.0,0.0,0.0,0.0,0.0,0.0,0.0,0.0,0.0,-1.851,-1.7916,-1.7569,-1.7542,-1.7288,-1.7237,-1.7108,-1.6652,-1.7036,-1.8067,-1.9023,-2.0034,-2.1203,-2.2315,-2.2862,-2.295,-2.295,0.0,0.0,-2.3135,-2.3135,-2.3135,-2.3135,-2.3135,-2.3135,-2.3135,-2.3135,-2.3135,-2.3135,-2.3135,-2.3309,-2.4457,-2.4357,-2.4257,-2.6299,-2.5631,-2.4348,-2.5292,-2.4588,-2.3514,-2.3368,-2.3441,-2.3745,-2.4636,-2.4612,-2.4695,-2.6065,-2.59,-2.5523,-2.5523,-2.5523,-2.5197,-2.418,-2.3954,-2.3552,-2.2472,-2.2272,-2.2033,-2.1481,-2.1418,-2.1448,-2.1453,-2.0978,-2.1028,-2.1758,-2.23,-2.2875,-2.3551,-2.3595,-2.3595,-2.3595,-2.3595,-2.3595,-2.3595,-2.3595,-2.3595,-2.3595,-2.3595,-2.3595,-2.3595,-2.3595,-2.3595,-1.7867,-1.7996,-1.7929,-1.7442,-1.6219,-1.5082,-1.4918,0.0,0.0,-1.3647,-1.3613,-1.3493,-1.34,-1.3372,-1.3567,-1.412,0.0,0.0,0.0,0.0,0.0,0.0,0.0,0.0,0.0,0.0,0.0,0.0,0.0,0.0,-1.8504,-1.809,-1.7776,-1.7589,-1.8011,-1.844,-1.8626,-1.9564,-2.0375,-2.1071,-2.1785,-2.2323,-2.2773,-2.2978,-2.3135,-2.3135,-2.3135,0.0,0.0,-2.3135,-2.3135,-2.3135,-2.3135,-2.3135,-2.3135,-2.3135,-2.3135,-2.3135,-2.3135,-2.3551,-2.4039,-2.3887,-2.4598,-2.5716,-2.6925,-2.6964,-2.639,-2.5541,-2.5084,-2.4687,-2.3711,-2.4175,-2.4996,-2.5372,-2.5501,-2.5753,-2.6346,-2.6276,-2.6113,-2.6113,-2.6113,-2.5862,-2.5096,-2.4958,-2.4582,-2.3489,-2.3326,-2.3,-2.2096,-2.1983,-2.1857,-2.1518,-2.1046,-2.0965,-2.1599,-2.1572,-2.1988,-2.3009,-2.3054,-2.3231,-2.3595,-2.3595,-2.3595,-2.3595,-2.3595,-2.3595,-2.3595,-2.3595,-2.3595,-2.3595,-2.3595,-2.3595,-1.686,-1.7281,-1.7549,-1.7128,-1.5947,-1.4867,0.0,0.0,0.0,-1.3456,-1.3511,-1.3511,-1.3511,-1.3511,-1.3639,-1.4096,0.0,-1.4231,0.0,0.0,0.0,0.0,0.0,0.0,0.0,0.0,0.0,0.0,0.0,0.0,-1.8504,-1.821,-1.801,-1.8213,-1.9206,-1.9898,-2.0231,-2.1441,-2.2329,-2.2982,-2.3271,-2.3602,-2.3965,-2.3662,-2.3447,-2.333,-2.333,0.0,0.0,-2.3135,-2.3135,-2.3135,-2.3135,-2.3135,-2.3135,-2.3135,-2.3135,-2.3135,-2.3135,-2.3887,-2.4702,-2.4221,-2.5389,-2.714,-2.7825,-2.7983,-2.763,-2.647,-2.6083,-2.5679,-2.4346,-2.4801,-2.5683,-2.5967,-2.6299,-2.6636,-2.6942,-2.6942,-2.6904,-2.6798,-2.6703,-2.6465,-2.5724,-2.5598,-2.5285,-2.4381,-2.4243,-2.3891,-2.2937,-2.2811,-2.2598,-2.2033,-2.133,-2.1192,-2.1821,-2.1226,-2.1417,-2.2875,-2.2785,-2.2965,-2.3551,-2.3595,-2.3595,-2.3595,-2.3595,-2.3595,-2.3595,-2.3595,-2.3595,-2.3595,-2.3595,-2.3595,-1.5707,-1.6052,-1.6714,-1.6714,-1.5752,-1.4752,0.0,0.0,0.0,-1.3466,-1.3511,-1.3511,-1.3511,-1.3511,-1.37,-1.4221,-1.438,0.0,0.0,0.0,0.0,0.0,0.0,0.0,0.0,0.0,0.0,0.0,0.0,0.0,-1.8504,-1.821,-1.8531,-1.9539,-2.0939,-2.1643,-2.1651,-2.1379,-2.1795,-2.2991,-2.2691,-2.3271,-2.4414,-2.4404,-2.418,0.0,0.0,0.0,0.0,-2.3135,-2.3135,-2.3135,-2.3135,-2.3135,-2.3135,-2.3135,-2.3135,-2.3135,-2.3135,-2.3887,-2.4957,-2.6141,-2.7197,-2.8255,-2.9443,-2.8635,-2.7543,-2.8599,-2.7789,-2.6363,-2.5226,-2.5082,-2.547,-2.6363,-2.659,-2.689,-2.7852,-2.8084,-2.7921,-2.7381,-2.7268,-2.6917,-2.5787,-2.5598,-2.5423,-2.4895,-2.4808,-2.4607,-2.4054,-2.3979,-2.3753,-2.3175,-2.2133,-2.1776,-2.2556,-2.1462,-2.1595,-2.345,-2.3009,-2.2965,-2.3551,-2.3595,-2.3595,-2.3595,-2.3595,-2.3595,-2.3595,-2.3595,-2.3595,-2.3595,-2.3595,-2.3595,-1.4764,-1.5159,-1.5504,-1.5291,-1.4633,-1.4057,-1.4279,0.0,0.0,-1.3466,-1.3511,-1.3511,-1.3511,-1.3511,-1.3616,-1.4114,-1.451,0.0,0.0,0.0,0.0,0.0,0.0,0.0,0.0,0.0,0.0,0.0,0.0,0.0,-2.1279,-2.1877,-2.141,-1.9635,-2.0607,-2.1795,-2.3067,-2.3587,-2.4218,-2.4821,-2.4479,-2.4323,-2.4404,-2.4121,-2.376,0.0,0.0,0.0,0.0,-2.3135,-2.3135,-2.3135,-2.3135,-2.3135,-2.3135,-2.3135,-2.3135,-2.3135,-2.3135,-2.3887,-2.4872,-2.521,-2.6614,-2.8176,-2.8518,-2.8814,-2.9018,-2.895,-2.8252,-2.7591,-2.7642,-2.7721,-2.7797,-2.8112,-2.7891,-2.7705,-2.8024,-2.8109,-2.7946,-2.7394,-2.7281,-2.7055,-2.6314,-2.6189,-2.6,-2.5435,-2.536,-2.5021,-2.4117,-2.4004,-2.3778,-2.3128,-2.2146,-2.1572,-2.1805,-2.121,-2.1028,-2.1643,-2.2314,-2.2785,-2.2965,-2.3377,-2.3595,-2.3595,-2.3595,-2.3595,-2.3595,-2.3595,-2.3595,-2.3595,-2.3595,-2.3595,0.0,-1.4007,-1.4403,-1.4281,-1.3797,0.0,0.0,0.0,0.0,-1.3297,-1.3417,-1.3511,-1.3511,-1.3571,-1.368,-1.3998,-1.4348,0.0,0.0,0.0,0.0,0.0,0.0,0.0,0.0,0.0,0.0,0.0,0.0,0.0,-2.2461,-2.292,-2.2605,-2.1159,-2.2235,-2.3332,-2.4402,-2.5054,-2.5459,-2.5732,-2.5449,-2.5088,-2.4658,-2.4394,-2.3945,0.0,0.0,0.0,0.0,-2.3135,-2.3135,-2.3135,-2.3135,-2.3135,-2.3135,-2.3551,-2.3714,-2.38,-2.4221,-2.5126,-2.6025,-2.6025,-2.7267,-2.8767,-2.8767,-2.9275,-2.9626,-2.8842,-2.8668,-2.8694,-2.8598,-2.8922,-2.9252,-2.9252,-2.8988,-2.8737,-2.8737,-2.8737,-2.8574,-2.8009,-2.7733,-2.7419,-2.6866,-2.6603,-2.6339,-2.5975,-2.5925,-2.5598,-2.472,-2.4431,-2.4092,-2.3527,-2.2472,-2.1794,-2.1794,-2.0936,-2.0746,-2.1465,-2.1799,-2.2314,-2.3009,-2.3187,-2.3377,-2.3595,-2.3595,-2.3595,-2.3595,-2.3595,-2.3595,-2.3595,-2.3595,-2.3595,0.0,-1.2803,0.0,0.0,0.0,0.0,0.0,0.0,0.0,0.0,0.0,0.0,-1.3545,-1.3657,-1.3873,-1.4074,-1.4101,0.0,0.0,0.0,0.0,0.0,0.0,0.0,0.0,0.0,0.0,0.0,0.0,0.0,-2.2445,-2.2164,-2.2567,-2.3791,-2.502,-2.5742,-2.5742,-2.5742,-2.5742,-2.5742,-2.5703,-2.5459,-2.5019,-2.499,-2.4531,0.0,0.0,0.0,0.0,-2.3135,-2.3135,-2.3135,-2.3135,-2.3135,-2.3222,-2.4382,-2.4787,-2.4957,-2.6141,-2.7128,-2.8016,-2.8096,-2.8858,-2.9792,-2.9792,-2.9792,-2.9611,-2.8518,-2.8937,-2.9546,-2.8518,-2.9028,-2.9792,-2.9792,-2.9792,-2.9792,-2.9792,-2.9792,-2.9616,-2.9038,-2.8511,-2.7971,-2.7381,-2.6854,-2.6571,-2.6533,-2.6533,-2.6251,-2.5674,-2.5146,-2.4607,-2.4054,-2.2987,-2.2309,-2.2309,-2.0857,-2.0686,-2.2431,-2.1541,-2.169,-2.3319,-2.3009,-2.3009,-2.3508,-2.3595,-2.3595,-2.3595,-2.3595,-2.3595,-2.3595,-2.3595,-2.3595,-1.1567,0.0,-1.2241,-1.2241,-1.2166,0.0,0.0,0.0,0.0,0.0,0.0,0.0,0.0,0.0,0.0,0.0,0.0,0.0,0.0,0.0,0.0,0.0,0.0,0.0,0.0,0.0,0.0,0.0,0.0,-2.4275,-2.5346,-2.4942,-2.4913,-2.5226,-2.5538,-2.5742,-2.5742,-2.5742,-2.5742,-2.5732,-2.5391,-2.5,-2.456,-2.4238,-2.3799,0.0,0.0,0.0,-2.3135,-2.3135,-2.3135,-2.3135,-2.3135,-2.3135,-2.3222,-2.4382,-2.4787,-2.4957,-2.6141,-2.6648,-2.7046,-2.7844,-2.8858,-2.9792,-2.9792,-2.9792,-2.9714,-2.9456,-2.9611,-2.9714,-2.9456,-2.9624,-2.9792,-2.9792,-2.9792,-2.9792,-2.9792,-2.9792,-2.9616,-2.9038,-2.8825,-2.8423,-2.7444,-2.718,-2.6942,-2.6596,-2.6533,-2.6251,-2.5674,-2.5146,-2.4607,-2.4054,-2.2987,-2.2309,-2.2309,-2.1632,-2.116,-2.116,-2.1856,-2.2035,-2.15,-2.2711,-2.3246,-2.292,-2.3377,-2.3595,-2.3595,-2.3595,-2.3595,-2.3595,-2.3595,-2.3595,-1.1326,-1.155,-1.1788,-1.1788,-1.1788,-1.1899,0.0,0.0,0.0,0.0,0.0,0.0,0.0,0.0,0.0,0.0,0.0,0.0,0.0,0.0,0.0,0.0,0.0,0.0,0.0,0.0,0.0,0.0,0.0,-2.5452,-2.6094,-2.5869,-2.5742,-2.5742,-2.5742,-2.5742,-2.5742,-2.5527,-2.5527,-2.5732,-2.5078,-2.4648,-2.4404,-2.3984,-2.3555,0.0,0.0,0.0,-2.3135,-2.3135,-2.3135,-2.3135,-2.3135,-2.3377,-2.4049,-2.5136,-2.587,-2.6438,-2.7626,-2.8039,-2.8131,-2.87,-2.9287,-2.9792,-2.9792,-2.9792,-2.9792,-2.9792,-2.9792,-2.9792,-2.9792,-2.9792,-2.9792,-2.9792,-2.9792,-2.9792,-2.9792,-2.9792,-2.9691,-2.939,-2.9114,-2.8662,-2.7808,-2.7444,-2.7092,-2.6609,-2.6533,-2.6352,-2.6038,-2.531,-2.4707,-2.4406,-2.3364,-2.2686,-2.2686,-2.2222,-2.1774,-2.1517,-2.1901,-2.2166,-2.2069,-2.2488,-2.2711,-2.2694,-2.3275,-2.3595,-2.3595,-2.3595,-2.3595,-2.3595,-2.3595,-2.3595,-1.1345,-1.1626,-1.1826,-1.1822,-1.1831,-1.189,-1.195,0.0,0.0,0.0,0.0,0.0,0.0,0.0,0.0,0.0,0.0,0.0,0.0,0.0,0.0,0.0,0.0,0.0,0.0,0.0,0.0,0.0,0.0,-2.6133,-2.5752,-2.5742,-2.5742,-2.5742,-2.5742,-2.5703,-2.5635,-2.5322,-2.5361,-2.5723,-2.4844,-2.4414,-2.4394,-2.3916,-2.3486,-2.3135,0.0,0.0,-2.3135,-2.3135,-2.3135,-2.3135,-2.3135,-2.38,-2.4957,-2.6058,-2.7209,-2.8255,-2.9365,-2.9792,-2.9792,-2.9792,-2.9792,-2.9792,-2.9792,-2.9792,-2.9792,-2.9792,-2.9792,-2.9792,-2.9792,-2.9792,-2.9792,-2.9792,-2.9792,-2.9792,-2.9792,-2.9792,-2.9792,-2.9792,-2.9327,-2.875,-2.8197,-2.7645,-2.7092,-2.6609,-2.6533,-2.6533,-2.6533,-2.5573,-2.4908,-2.4833,-2.3891,-2.3226,-2.3078,-2.2711,-2.2452,-2.2499,-2.2009,-2.2258,-2.344,-2.2317,-2.2058,-2.283,-2.3246,-2.3508,-2.3595,-2.3595,-2.3595,-2.3595,-2.3595,-2.3595,-1.167,-1.1875,-1.202,-1.1842,-1.2081,-1.2398,0.0,0.0,0.0,0.0,0.0,0.0,0.0,0.0,0.0,0.0,0.0,0.0,0.0,0.0,0.0,0.0,0.0,0.0,0.0,0.0,0.0,0.0,0.0,-2.581,-2.5742,-2.5742,-2.5742,-2.5742,-2.5742,-2.5557,-2.5176,-2.5478,-2.5674,-2.5723,-2.4844,-2.4414,-2.4385,-2.3594,-2.3203,-2.3135,0.0,-2.3135,-2.3135,-2.3135,-2.3135,-2.3135,-2.3135,-2.38,-2.4957,-2.6058,-2.7209,-2.8255,-2.9365,-2.9792,-2.9792,-2.9792,-2.9792,-2.9792,-2.9792,-2.9792,-2.9792,-2.9792,-2.9792,-2.9792,-2.9792,-2.9792,-2.9792,-2.9792,-2.9792,-2.9792,-2.9792,-2.9792,-2.9792,-2.9792,-2.9327,-2.875,-2.8197,-2.7645,-2.7092,-2.6609,-2.6533,-2.6533,-2.6533,-2.5887,-2.531,-2.487,-2.4255,-2.3665,-2.3115,-2.3002,-2.2962,-2.2993,-2.2558,-2.2625,-2.3469,-2.2319,-2.22,-2.3436,-2.3054,-2.3098,-2.3595,-2.3595,-2.3595,-2.3595,-2.3595,-2.3595,-1.1379,-1.1756,-1.211,-1.1978,-1.2173,-1.239,0.0,0.0,0.0,0.0,0.0,0.0,0.0,0.0,0.0,0.0,0.0,0.0,0.0,0.0,0.0,0.0,0.0,0.0,0.0,0.0,0.0,0.0,0.0,0.0,-2.5742,-2.5742,-2.5625,-2.5381,-2.5371,-2.5166,-2.4717,-2.4922,-2.5029,-2.501,-2.4141,-2.3848,-2.4053,-2.3428,-2.3135,-2.3135,0.0,-2.3135,-2.3135,-2.3135,-2.3464,-2.4049,-2.4049,-2.5041,-2.6685,-2.7867,-2.8621,-2.9106,-2.9624,-2.9792,-2.9792,-2.9792,-2.9792,-2.9792,-2.9792,-2.9792,-2.9792,-2.9792,-2.9792,-2.9792,-2.9792,-2.9792,-2.9792,-2.9792,-2.9792,-2.9792,-2.9792,-2.9792,-2.9792,-2.9792,-2.9578,-2.9114,-2.826,-2.7896,-2.7444,-2.659,-2.6533,-2.6533,-2.6533,-2.595,-2.5498,-2.5272,-2.4757,-2.4217,-2.3653,-2.3602,-2.346,-2.3238,-2.3024,-2.3098,-2.3539,-2.2629,-2.2609,-2.3626,-2.3018,-2.3009,-2.3595,-2.3595,-2.3595,-2.3595,-2.3595,-2.3595,-1.1226,-1.1617,-1.2035,-1.1998,0.0,0.0,0.0,0.0,0.0,0.0,0.0,0.0,0.0,0.0,0.0,0.0,0.0,0.0,0.0,0.0,0.0,0.0,0.0,0.0,0.0,0.0,0.0,0.0,0.0,0.0,-2.5586,-2.5586,-2.5381,-2.4932,-2.4912,-2.4707,-2.4277,-2.4268,-2.4316,-2.4404,-2.3652,-2.3467,-2.3769,-2.334,-2.3135,-2.3135,-2.3135,-2.3135,-2.3135,-2.3135,-2.38,-2.4787,-2.4787,-2.6108,-2.8255,-2.9365,-2.9792,-2.9792,-2.9792,-2.9792,-2.9792,-2.9792,-2.9792,-2.9792,-2.9792,-2.9792,-2.9792,-2.9792,-2.9792,-2.9792,-2.9792,-2.9792,-2.9792,-2.9792,-2.9792,-2.9792,-2.9792,-2.9792,-2.9792,-2.9792,-2.9679,-2.9277,-2.8273,-2.7996,-2.7582,-2.6603,-2.6533,-2.6533,-2.6533,-2.6076,-2.5749,-2.5611,-2.5247,-2.4732,-2.4054,-2.4004,-2.3809,-2.3301,-2.328,-2.3342,-2.3509,-2.2896,-2.2906,-2.3621,-2.3005,-2.2992,-2.36,-2.3583,-2.3508,-2.3377,-2.3551,-2.3508,-1.1652,-1.1647,-1.1574,-1.1514,-1.2185,0.0,-1.3552,-1.3472,0.0,-1.4449,0.0,0.0,0.0,0.0,0.0,0.0,0.0,0.0,0.0,0.0,0.0,0.0,0.0,0.0,0.0,0.0,0.0,0.0,0.0,0.0,-2.5137,-2.5117,-2.4922,-2.4473,-2.4463,-2.4258,-2.3838,-2.3838,-2.4033,-2.4414,-2.3965,-2.376,-2.3769,-2.334,-2.3135,-2.3135,-2.3135,-2.3135,-2.3135,-2.3135,-2.38,-2.4787,-2.4787,-2.6108,-2.8255,-2.9365,-2.9792,-2.9792,-2.9792,-2.9792,-2.9792,-2.9792,-2.9792,-2.9792,-2.9792,-2.9792,-2.9792,-2.9792,-2.9792,-2.9792,-2.9792,-2.9792,-2.9792,-2.9792,-2.9792,-2.9792,-2.9792,-2.9792,-2.9792,-2.9792,-2.9365,-2.88,-2.821,-2.7682,-2.7143,-2.6622,-2.6533,-2.6533,-2.6533,-2.6496,-2.6189,-2.5649,-2.5561,-2.5121,-2.4079,-2.4004,-2.3728,-2.3173,-2.3135,-2.3153,-2.33,-2.272,-2.2711,-2.3441,-2.2937,-2.2982,-2.3511,-2.357,-2.3334,-2.2785,-2.3334,-2.329,-1.1293,-1.1562,-1.1733,-1.1715,-1.2082,0.0,0.0,-1.3174,-1.3733,-1.4669,0.0,0.0,0.0,0.0,0.0,0.0,0.0,0.0,0.0,0.0,0.0,0.0,0.0,0.0,0.0,0.0,0.0,0.0,0.0,0.0,-2.4687,-2.4668,-2.4473,-2.4043,-2.4033,-2.3818,-2.3389,-2.3389,-2.3467,-2.3623,-2.3467,-2.3389,-2.3379,-2.3213,-2.3135,-2.3135,-2.3887,-2.4125,-2.4211,-2.4893,-2.588,-2.693,-2.7614,-2.845,-2.9197,-2.9624,-2.9792,-2.9792,-2.9792,-2.9792,-2.9792,-2.9792,-2.9792,-2.9792,-2.9792,-2.9792,-2.9792,-2.9792,-2.9792,-2.9792,-2.9792,-2.9792,-2.9792,-2.9792,-2.9792,-2.9792,-2.9792,-2.9792,-2.9792,-2.9792,-2.9616,-2.9289,-2.8712,-2.8448,-2.7996,-2.7105,-2.6967,-2.6967,-2.6967,-2.6747,-2.6502,-2.664,-2.6013,-2.5297,-2.4569,-2.4192,-2.3753,-2.3115,-2.3078,-2.3323,-2.3905,-2.2889,-2.2844,-2.4008,-2.3043,-2.3031,-2.4124,-2.3728,-2.3668,-2.3865,-2.3702,-2.3465,-1.0922,-1.1337,-1.1631,0.0,0.0,0.0,-1.2702,-1.3273,-1.4052,-1.514,0.0,0.0,0.0,0.0,0.0,0.0,0.0,0.0,0.0,0.0,0.0,0.0,0.0,0.0,0.0,0.0,0.0,0.0,0.0,0.0,0.0,-2.4219,-2.4023,-2.3603,-2.3584,-2.3437,-2.3135,-2.3135,-2.3135,-2.3135,-2.3135,-2.3135,-2.3135,-2.3135,-2.3299,-2.3714,-2.4457,-2.5041,-2.5378,-2.6141,-2.7128,-2.8176,-2.9365,-2.9792,-2.9792,-2.9792,-2.9792,-2.9792,-2.9792,-2.9792,-2.9792,-2.9792,-2.9792,-2.9792,-2.9792,-2.9792,-2.9792,-2.9792,-2.9792,-2.9792,-2.9792,-2.9792,-2.9792,-2.9792,-2.9792,-2.9792,-2.9792,-2.9792,-2.9792,-2.9792,-2.9792,-2.9616,-2.9026,-2.8925,-2.8612,-2.7682,-2.7544,-2.7544,-2.7544,-2.7055,-2.6804,-2.7005,-2.6327,-2.5649,-2.5109,-2.4569,-2.4017,-2.3439,-2.3238,-2.3365,-2.3884,-2.3097,-2.3036,-2.3968,-2.3178,-2.3175,-2.4096,-2.3681,-2.3626,-2.3973,-2.3702,-2.3482,-1.0675,-1.097,0.0,0.0,0.0,0.0,-1.354,-1.3881,-1.4516,0.0,0.0,0.0,0.0,0.0,0.0,0.0,0.0,0.0,0.0,0.0,0.0,0.0,0.0,0.0,0.0,0.0,0.0,0.0,0.0,0.0,0.0,-2.3779,-2.3584,-2.3154,-2.3135,-2.3135,-2.3135,-2.3135,-2.3135,-2.3135,-2.3135,-2.3135,-2.3135,-2.3135,-2.3714,-2.4787,-2.4787,-2.5462,-2.6483,-2.6565,-2.7128,-2.8255,-2.9365,-2.9792,-2.9792,-2.9792,-2.9792,-2.9792,-2.9792,-2.9792,-2.9792,-2.9792,-2.9792,-2.9792,-2.9792,-2.9792,-2.9792,-2.9792,-2.9792,-2.9792,-2.9792,-2.9792,-2.9792,-2.9792,-2.9792,-2.9792,-2.9792,-2.9792,-2.9792,-2.9792,-2.9792,-2.9616,-2.9038,-2.8938,-2.875,-2.8197,-2.8109,-2.8109,-2.8097,-2.7632,-2.708,-2.6584,-2.6533,-2.6239,-2.5649,-2.5121,-2.4582,-2.4029,-2.3452,-2.3078,-2.3078,-2.3199,-2.323,-2.3125,-2.3282,-2.3392,-2.3283,-2.3392,-2.3142,-2.2614,-2.3249,-2.322,-1.1074,0.0,0.0,0.0,0.0,0.0,0.0,-1.4649,0.0,0.0,0.0,0.0,0.0,0.0,0.0,0.0,0.0,0.0,0.0,0.0,0.0,0.0,0.0,0.0,0.0,0.0,0.0,0.0,0.0,0.0,0.0,-2.333,-2.3271,-2.3144,-2.3135,-2.3135,-2.3135,-2.3135,-2.3135,-2.3135,-2.3877,-2.3877,-2.3135,-2.3963,-2.4457,-2.4872,-2.6438,-2.7348,-2.7695,-2.8462,-2.904,-2.9365,-2.9702,-2.9792,-2.9792,-2.9792,-2.9792,-2.9792,-2.9792,-2.9792,-2.9792,-2.9792,-2.9792,-2.9792,-2.9792,-2.9792,-2.9792,-2.9792,-2.9792,-2.9792,-2.9792,-2.9792,-2.9792,-2.9792,-2.9792,-2.9792,-2.9792,-2.9792,-2.9792,-2.9792,-2.9792,-2.9741,-2.9566,-2.9528,-2.9352,-2.8762,-2.8687,-2.8398,-2.762,-2.8059,-2.7934,-2.6672,-2.6804,-2.6653,-2.5674,-2.5121,-2.4582,-2.4029,-2.3452,-2.3078,-2.3078,-2.3141,-2.3128,-2.3125,-2.314,-2.3443,-2.4015,-2.4069,-2.4295,-2.4639,-2.4347,-2.4399,-1.0517,0.0,0.0,0.0,0.0,0.0,0.0,0.0,0.0,0.0,0.0,0.0,0.0,0.0,0.0,0.0,0.0,0.0,0.0,0.0,0.0,0.0,0.0,0.0,0.0,0.0,0.0,0.0,0.0,0.0,0.0,-2.3135,-2.3135,-2.3135,-2.3135,-2.3135,-2.3135,-2.3135,-2.3135,-2.3135,-2.4296,-2.4457,-2.38,-2.4967,-2.5703,-2.6191,-2.8016,-2.8767,-2.8858,-2.9534,-2.9792,-2.9792,-2.9792,-2.9792,-2.9792,-2.9792,-2.9792,-2.9792,-2.9792,-2.9792,-2.9792,-2.9792,-2.9792,-2.9792,-2.9792,-2.9792,-2.9792,-2.9792,-2.9792,-2.9792,-2.9792,-2.9792,-2.9792,-2.9792,-2.9792,-2.9792,-2.9792,-2.9792,-2.9792,-2.9792,-2.9792,-2.9792,-2.9792,-2.9792,-2.9679,-2.9327,-2.9277,-2.8863,-2.7758,-2.8185,-2.8047,-2.6615,-2.6753,-2.6678,-2.6,-2.5435,-2.4895,-2.4356,-2.3791,-2.3376,-2.3078,-2.3078,-2.3078,-2.3078,-2.3078,-2.3365,-2.3826,-2.4193,-2.4585,-2.5024,-2.4657,-2.4712,0.0,0.0,0.0,0.0,0.0,0.0,0.0,0.0,0.0,0.0,0.0,0.0,0.0,0.0,0.0,0.0,0.0,0.0,0.0,0.0,0.0,0.0,0.0,0.0,0.0,0.0,0.0,0.0,0.0,0.0,0.0,-2.3135,-2.3135,-2.3135,-2.3135,-2.3135,-2.3135,-2.3135,-2.3135,-2.3135,-2.4382,-2.4957,-2.4957,-2.613,-2.7209,-2.8335,-2.9365,-2.9792,-2.9792,-2.9792,-2.9792,-2.9792,-2.9792,-2.9792,-2.9792,-2.9792,-2.9792,-2.9792,-2.9792,-2.9792,-2.9792,-2.9792,-2.9792,-2.9792,-2.9792,-2.9792,-2.9792,-2.9792,-2.9792,-2.9792,-2.9792,-2.9792,-2.9792,-2.9792,-2.9792,-2.9792,-2.9792,-2.9792,-2.9792,-2.9792,-2.9792,-2.9792,-2.9792,-2.9792,-2.9792,-2.9792,-2.9741,-2.9327,-2.8247,-2.8109,-2.7682,-2.6647,-2.6571,-2.6584,-2.6533,-2.5887,-2.5322,-2.4845,-2.4255,-2.369,-2.3103,-2.3078,-2.3078,-2.3078,-2.3078,-2.3078,-2.3078,-2.3884,-2.4399,-2.4488,-2.4488,-2.4619,0.0,0.0,0.0,0.0,0.0,0.0,0.0,0.0,0.0,0.0,0.0,0.0,0.0,0.0,0.0,0.0,0.0,0.0,0.0,0.0,0.0,0.0,0.0,0.0,0.0,0.0,0.0,0.0,0.0,0.0,-2.3135,-2.3135,-2.3135,-2.3135,-2.3135,-2.3135,-2.3135,-2.3135,-2.3135,0.0,-2.5136,-2.6141,-2.6141,-2.7279,-2.8359,-2.9456,-2.9702,-2.9792,-2.9792,-2.9792,-2.9792,-2.9792,-2.9792,-2.9792,-2.9792,-2.9792,-2.9792,-2.9792,-2.9792,-2.9792,-2.9792,-2.9792,-2.9792,-2.9792,-2.9792,-2.9792,-2.9792,-2.9792,-2.9792,-2.9792,-2.9792,-2.9792,-2.9792,-2.9792,-2.9792,-2.9792,-2.9792,-2.9792,-2.9792,-2.9792,-2.9792,-2.9792,-2.9792,-2.9792,-2.9792,-2.9792,-2.9402,-2.8863,-2.8197,-2.8109,-2.7682,-2.6647,-2.6854,-2.6929,-2.6559,-2.5548,-2.4946,-2.4833,-2.3879,-2.3263,-2.3078,-2.3078,-2.3078,-2.3078,-2.3078,-2.3078,-2.3078,-2.3884,-2.46,-2.5191,-2.5191,-2.5824,0.0,0.0,0.0,0.0,0.0,0.0,0.0,0.0,0.0,0.0,0.0,0.0,0.0,0.0,0.0,0.0,0.0,0.0,0.0,0.0,0.0,0.0,0.0,0.0,0.0,0.0,0.0,0.0,0.0,-2.2539,-2.2539,-2.2734,-2.2832,-2.2832,-2.3037,-2.3047,-2.2842,-2.3527,-2.3861,-2.3659,-2.6091,-2.7405,-2.7672,-2.85,-2.9275,-2.9792,-2.9792,-2.9792,-2.9792,-2.9792,-2.9792,-2.9792,-2.9792,-2.9792,-2.9792,-2.9792,-2.9792,-2.9792,-2.9792,-2.9792,-2.9792,-2.9792,-2.9792,-2.9792,-2.9792,-2.9792,-2.9792,-2.9792,-2.9792,-2.9792,-2.9792,-2.9792,-2.9792,-2.9792,-2.9792,-2.9792,-2.9792,-2.9792,-2.9792,-2.9792,-2.9792,-2.9792,-2.9792,-2.9792,-2.9792,-2.9792,-2.9302,-2.8737,-2.8185,-2.7871,-2.7394,-2.6622,-2.6716,-2.6766,-2.6546,-2.5937,-2.5385,-2.4858,-2.4268,-2.3703,-2.3103,-2.3078,-2.3078,-2.3078,-2.3078,-2.3078,-2.3078,-2.3884,-2.4681,-2.5398,-2.5398,-2.6,0.0,0.0,0.0,0.0,0.0,0.0,0.0,0.0,0.0,0.0,0.0,0.0,0.0,0.0,0.0,0.0,0.0,0.0,0.0,0.0,0.0,0.0,0.0,0.0,0.0,0.0,0.0,0.0,0.0,-2.1885,-2.1885,-2.2217,-2.2402,-2.2402,-2.2744,-2.284,-2.2646,-2.3875,-2.444,-2.4328,-2.6737,-2.8167,-2.88,-2.9277,-2.9503,-2.9503,-2.9503,-2.9553,-2.9641,-2.9641,-2.9704,-2.9792,-2.9792,-2.9792,-2.9792,-2.9792,-2.9792,-2.9792,-2.9792,-2.9792,-2.9792,-2.9792,-2.9792,-2.9792,-2.9792,-2.9792,-2.9792,-2.9792,-2.9792,-2.9792,-2.9792,-2.9792,-2.9792,-2.9792,-2.9792,-2.9792,-2.9792,-2.9792,-2.9792,-2.9792,-2.9792,-2.9792,-2.9792,-2.9792,-2.9754,-2.9654,-2.9151,-2.8586,-2.8034,-2.7482,-2.6967,-2.6584,-2.6533,-2.6533,-2.6533,-2.6433,-2.5887,-2.4883,-2.4732,-2.4217,-2.3115,-2.3078,-2.3078,-2.3078,-2.3078,-2.3078,-2.3078,-2.3767,-2.4452,-2.5231,-2.5231,-2.5618,0.0,0.0,0.0,0.0,0.0,0.0,0.0,0.0,0.0,0.0,0.0,0.0,0.0,0.0,0.0,0.0,0.0,0.0,0.0,0.0,0.0,0.0,0.0,0.0,0.0,0.0,0.0,0.0,-2.1924,-2.1885,-2.1885,-2.1934,-2.1973,-2.1973,-2.2021,-2.2406,-2.3184,-2.3398,-2.387,-2.4769,-2.6105,-2.7206,-2.8222,-2.8298,-2.8335,-2.8335,-2.8335,-2.8599,-2.9038,-2.9038,-2.934,-2.9792,-2.9792,-2.9792,-2.9792,-2.9792,-2.9792,-2.9792,-2.9792,-2.9792,-2.9792,-2.9792,-2.9792,-2.9792,-2.9792,-2.9792,-2.9792,-2.9792,-2.9792,-2.9792,-2.9792,-2.9792,-2.9792,-2.9792,-2.9792,-2.9792,-2.9792,-2.9792,-2.9792,-2.9792,-2.9792,-2.9792,-2.9792,-2.9792,-2.9616,-2.9114,-2.8574,-2.8009,-2.7469,-2.6917,-2.6609,-2.6533,-2.6533,-2.6533,-2.6533,-2.6,-2.546,-2.4858,-2.4368,-2.3816,-2.3103,-2.3078,-2.3078,-2.3078,-2.3078,-2.3078,-2.3078,-2.3185,-2.3649,-2.4452,-2.4452,-2.4851,0.0,0.0,0.0,0.0,0.0,0.0,0.0,0.0,0.0,0.0,0.0,0.0,0.0,0.0,0.0,0.0,0.0,0.0,0.0,0.0,0.0,0.0,0.0,0.0,0.0,0.0,0.0,0.0,-2.1289,-2.1143,-2.1143,-2.1387,-2.1523,-2.1523,-2.2281,-2.2746,-2.2945,-2.4381,-2.5612,-2.6614,-2.687,-2.7199,-2.7632,-2.7318,-2.7519,-2.8109,-2.8109,-2.8411,-2.8925,-2.8925,-2.9277,-2.9792,-2.9792,-2.9792,-2.9792,-2.9792,-2.9792,-2.9792,-2.9792,-2.9792,-2.9792,-2.9792,-2.9792,-2.9792,-2.9792,-2.9792,-2.9792,-2.9792,-2.9792,-2.9792,-2.9792,-2.9792,-2.9792,-2.9792,-2.9792,-2.9792,-2.9792,-2.9792,-2.9792,-2.9792,-2.9792,-2.9792,-2.9792,-2.9792,-2.9591,-2.9013,-2.8461,-2.7908,-2.7356,-2.6804,-2.6533,-2.6533,-2.6533,-2.6533,-2.6533,-2.6226,-2.585,-2.5285,-2.4757,-2.4205,-2.364,-2.3314,-2.3078,-2.3078,-2.3078,-2.3078,-2.3078,-2.3078,-2.3543,-2.4292,-2.4292,-2.4681,0.0,0.0,0.0,0.0,0.0,0.0,0.0,0.0,0.0,0.0,0.0,0.0,0.0,0.0,0.0,0.0,0.0,0.0,0.0,0.0,0.0,0.0,0.0,0.0,0.0,0.0,0.0,0.0,-2.0752,-2.0566,-2.0566,-2.0879,-2.1016,-2.0898,-2.1989,-2.2548,-2.2498,-2.4904,-2.6517,-2.7457,-2.7055,-2.6929,-2.7055,-2.6653,-2.6917,-2.7682,-2.7682,-2.7996,-2.8511,-2.8662,-2.9051,-2.9591,-2.9729,-2.9792,-2.9792,-2.9792,-2.9792,-2.9792,-2.9792,-2.9792,-2.9792,-2.9792,-2.9792,-2.9792,-2.9792,-2.9792,-2.9792,-2.9792,-2.9792,-2.9792,-2.9792,-2.9792,-2.9792,-2.9792,-2.9792,-2.9792,-2.9792,-2.9792,-2.9792,-2.9792,-2.9792,-2.9792,-2.9792,-2.9792,-2.9553,-2.8825,-2.8373,-2.7858,-2.7155,-2.6716,-2.6533,-2.6533,-2.6533,-2.6533,-2.6533,-2.6395,-2.6,-2.5435,-2.4908,-2.4368,-2.3803,-2.3364,-2.3078,-2.3078,-2.3078,-2.3078,-2.3078,-2.3078,-2.3424,-2.4002,-2.4002,-2.4394,0.0,0.0,0.0,0.0,0.0,0.0,0.0,0.0,0.0,0.0,0.0,0.0,0.0,0.0,0.0,0.0,0.0,0.0,0.0,0.0,0.0,0.0,0.0,0.0,0.0,0.0,0.0,0.0,-2.0576,-2.0566,-2.0566,-2.0586,-2.041,-1.999,-2.0477,-2.1169,-2.2021,-2.3923,-2.5169,-2.5724,-2.5699,-2.5975,-2.6571,-2.6546,-2.6559,-2.6609,-2.6609,-2.6854,-2.7406,-2.7934,-2.8473,-2.9026,-2.9578,-2.9792,-2.9792,-2.9792,-2.9792,-2.9792,-2.9792,-2.9792,-2.9792,-2.9792,-2.9792,-2.9792,-2.9792,-2.9792,-2.9792,-2.9792,-2.9792,-2.9792,-2.9792,-2.9792,-2.9792,-2.9792,-2.9792,-2.9792,-2.9792,-2.9792,-2.9792,-2.9792,-2.9792,-2.9792,-2.9792,-2.9792,-2.9415,-2.831,-2.8122,-2.772,-2.671,-2.6546,-2.6533,-2.6533,-2.6533,-2.6533,-2.6533,-2.5963,-2.5423,-2.4895,-2.4343,-2.3778,-2.314,-2.309,-2.3078,-2.3078,-2.3078,-2.3078,-2.3078,-2.3078,-2.3138,-2.3125,-2.3125,-2.3603,0.0,0.0,0.0,0.0,0.0,0.0,0.0,0.0,0.0,0.0,0.0,0.0,0.0,0.0,0.0,0.0,0.0,0.0,0.0,0.0,0.0,0.0,0.0,0.0,0.0,0.0,0.0,0.0,0.0,-2.0029,-1.9756,-1.9746,-1.9678,-1.9512,-2.0793,-2.2254,-2.3779,-2.4471,-2.5084,-2.5598,-2.5598,-2.59,-2.6533,-2.6533,-2.6533,-2.6533,-2.6533,-2.6766,-2.7318,-2.7871,-2.8436,-2.8988,-2.9566,-2.9792,-2.9792,-2.9792,-2.9792,-2.9792,-2.9792,-2.9792,-2.9792,-2.9792,-2.9792,-2.9792,-2.9792,-2.9792,-2.9792,-2.9792,-2.9792,-2.9792,-2.9792,-2.9792,-2.9792,-2.9792,-2.9792,-2.9792,-2.9792,-2.9792,-2.9792,-2.9792,-2.9792,-2.9792,-2.9792,-2.9792,-2.9402,-2.8273,-2.8109,-2.7708,-2.6672,-2.6533,-2.6533,-2.6533,-2.6533,-2.6533,-2.6533,-2.5937,-2.5523,-2.5335,-2.4494,-2.3904,-2.3703,-2.3339,-2.3078,-2.3078,-2.3078,-2.3078,-2.3078,-2.3078,-2.3078,-2.3078,-2.3078,-2.3245,-0.9522,0.0,0.0,0.0,0.0,0.0,0.0,0.0,0.0,0.0,0.0,0.0,0.0,0.0,0.0,0.0,0.0,0.0,0.0,0.0,0.0,0.0,0.0,0.0,0.0,0.0,0.0,0.0,0.0,0.0,-1.9502,-1.9365,-1.9423,-1.9703,-2.0913,-2.2313,-2.3993,-2.414,-2.4519,-2.5059,-2.5247,-2.5636,-2.6176,-2.6445,-2.6533,-2.6533,-2.6533,-2.6666,-2.7055,-2.7607,-2.816,-2.8687,-2.9076,-2.9453,-2.9767,-2.9578,-2.9628,-2.9792,-2.9792,-2.9792,-2.9792,-2.9792,-2.9792,-2.9792,-2.9792,-2.9792,-2.9792,-2.9792,-2.9792,-2.9792,-2.9792,-2.9792,-2.9792,-2.9792,-2.9792,-2.9792,-2.9792,-2.9792,-2.9792,-2.9792,-2.9792,-2.9792,-2.9792,-2.9792,-2.9465,-2.8524,-2.8222,-2.777,-2.6854,-2.6647,-2.6533,-2.6533,-2.6533,-2.6533,-2.6533,-2.5937,-2.5523,-2.5347,-2.4494,-2.3916,-2.3715,-2.3339,-2.3078,-2.3078,-2.3078,-2.3078,-2.3078,-2.3078,-2.3078,-2.3078,-2.3078,-2.3078,0.0,0.0,0.0,0.0,0.0,0.0,0.0,0.0,0.0,0.0,0.0,0.0,0.0,0.0,0.0,0.0,0.0,0.0,0.0,0.0,0.0,0.0,0.0,0.0,0.0,0.0,0.0,0.0,-1.9268,-1.9443,-1.9834,-1.9473,-1.9663,-2.0561,-2.0555,-2.1202,-2.2486,-2.2887,-2.3427,-2.4004,-2.4556,-2.5096,-2.5611,-2.6189,-2.6533,-2.6533,-2.6533,-2.6533,-2.6571,-2.7055,-2.7595,-2.8084,-2.8097,-2.8787,-2.9691,-2.9139,-2.9289,-2.9792,-2.9792,-2.9792,-2.9792,-2.9792,-2.9792,-2.9792,-2.9792,-2.9792,-2.9792,-2.9792,-2.9792,-2.9792,-2.9792,-2.9792,-2.9792,-2.9792,-2.9792,-2.9792,-2.9792,-2.9792,-2.9792,-2.9792,-2.9792,-2.9792,-2.9792,-2.9792,-2.9591,-2.9013,-2.8461,-2.7908,-2.7356,-2.6804,-2.6533,-2.6533,-2.6533,-2.6533,-2.6533,-2.5937,-2.5372,-2.4858,-2.4305,-2.374,-2.3103,-2.3078,-2.3078,-2.3078,-2.3078,-2.3078,-2.3078,-2.3078,-2.3078,-2.3078,-2.3078,-2.3078,-1.022,0.0,0.0,0.0,0.0,0.0,0.0,0.0,0.0,0.0,0.0,0.0,0.0,0.0,0.0,0.0,0.0,0.0,0.0,0.0,0.0,0.0,0.0,0.0,0.0,0.0,0.0,0.0,-1.8818,-1.874,-1.8545,-1.8428,-1.8754,-1.9619,-2.0281,-2.1042,-2.2091,-2.2763,-2.3427,-2.4004,-2.4556,-2.5096,-2.5611,-2.6189,-2.6533,-2.6533,-2.6533,-2.6533,-2.6571,-2.7055,-2.7369,-2.7544,-2.7946,-2.8536,-2.9151,-2.8988,-2.9289,-2.9792,-2.9792,-2.9792,-2.9792,-2.9792,-2.9792,-2.9792,-2.9792,-2.9792,-2.9792,-2.9792,-2.9792,-2.9792,-2.9792,-2.9792,-2.9792,-2.9792,-2.9792,-2.9792,-2.9792,-2.9792,-2.9792,-2.9792,-2.9792,-2.9792,-2.9792,-2.9792,-2.9591,-2.9013,-2.8461,-2.7908,-2.7356,-2.6804,-2.6533,-2.6533,-2.6533,-2.6533,-2.6533,-2.5937,-2.5372,-2.4858,-2.4305,-2.374,-2.3103,-2.3078,-2.3078,-2.3078,-2.3078,-2.3078,-2.3078,-2.3078,-2.3078,-2.3078,-2.3078,-2.3078,0.0,0.0,0.0,0.0,0.0,0.0,-1.3045,-1.3253,0.0,0.0,0.0,0.0,0.0,0.0,0.0,0.0,0.0,0.0,0.0,0.0,0.0,0.0,0.0,0.0,0.0,-1.8496,-1.8457,-1.8379,-1.8379,-1.8271,-1.8018,-1.8174,-1.8584,-1.9309,-1.9814,-2.0655,-2.1877,-2.199,-2.2591,-2.3653,-2.4035,-2.4632,-2.5297,-2.6101,-2.6533,-2.6533,-2.6533,-2.6533,-2.6546,-2.6804,-2.708,-2.7293,-2.7381,-2.7896,-2.8586,-2.8586,-2.895,-2.9465,-2.9704,-2.9792,-2.9792,-2.9792,-2.9792,-2.9792,-2.9792,-2.9792,-2.9792,-2.9792,-2.9792,-2.9792,-2.9792,-2.9792,-2.9792,-2.9792,-2.9792,-2.9792,-2.9792,-2.9792,-2.9792,-2.9792,-2.9792,-2.9792,-2.9792,-2.9792,-2.9679,-2.934,-2.8612,-2.7996,-2.767,-2.6942,-2.6533,-2.6533,-2.6533,-2.6533,-2.6533,-2.5937,-2.5372,-2.4858,-2.4305,-2.374,-2.3103,-2.3078,-2.3078,-2.3078,-2.3078,-2.3078,-2.3078,-2.3078,-2.3078,-2.3078,-2.3078,-2.3078,0.0,0.0,0.0,0.0,0.0,0.0,-1.2774,-1.2871,-1.3086,0.0,0.0,0.0,0.0,0.0,0.0,0.0,0.0,0.0,0.0,0.0,0.0,0.0,0.0,0.0,-1.7314,-1.7314,-1.7471,-1.7842,-1.791,-1.7939,-1.7939,-1.834,-1.8794,-1.9253,-1.9365,-2.0204,-2.1877,-2.1239,-2.1604,-2.309,-2.3466,-2.4054,-2.4858,-2.5963,-2.6533,-2.6533,-2.6533,-2.6533,-2.6533,-2.6533,-2.6753,-2.7143,-2.6722,-2.7092,-2.8009,-2.8009,-2.836,-2.8913,-2.9503,-2.9691,-2.9704,-2.9779,-2.9792,-2.9792,-2.9792,-2.9792,-2.9792,-2.9792,-2.9792,-2.9792,-2.9792,-2.9792,-2.9792,-2.9792,-2.9792,-2.9779,-2.9716,-2.9691,-2.9679,-2.9616,-2.9704,-2.9792,-2.9792,-2.9792,-2.9767,-2.9704,-2.8787,-2.8084,-2.8021,-2.7105,-2.6533,-2.6533,-2.6533,-2.6496,-2.6445,-2.5887,-2.5347,-2.477,-2.4268,-2.374,-2.3103,-2.3078,-2.3078,-2.3078,-2.3078,-2.3078,-2.3078,-2.3078,-2.3078,-2.3078,-2.3078,-2.3078,0.0,0.0,0.0,0.0,0.0,0.0,-1.319,-1.3382,-1.3556,0.0,0.0,0.0,0.0,0.0,0.0,0.0,0.0,0.0,0.0,0.0,0.0,0.0,0.0,0.0,-1.6855,-1.6855,-1.6894,-1.6973,-1.7305,-1.75,-1.75,-1.79,-1.8484,-1.9299,-2.0009,-2.0846,-2.1877,-2.2384,-2.275,-2.309,-2.4078,-2.4613,-2.4858,-2.5963,-2.6533,-2.6533,-2.6533,-2.6533,-2.6533,-2.6533,-2.6596,-2.6684,-2.6571,-2.6866,-2.7444,-2.7444,-2.7795,-2.8348,-2.89,-2.9101,-2.9176,-2.9641,-2.9792,-2.9792,-2.9792,-2.9792,-2.9792,-2.9792,-2.9792,-2.9792,-2.9792,-2.9792,-2.9792,-2.9792,-2.9792,-2.9666,-2.9202,-2.9101,-2.8963,-2.8524,-2.9164,-2.9792,-2.9792,-2.9792,-2.9641,-2.9164,-2.8536,-2.7946,-2.7494,-2.6866,-2.6533,-2.6533,-2.6533,-2.6264,-2.5799,-2.5661,-2.5184,-2.4217,-2.4054,-2.374,-2.3103,-2.3078,-2.3078,-2.3078,-2.3078,-2.3078,-2.3078,-2.3078,-2.3078,-2.3078,-2.3078,-2.3078,0.0,0.0,0.0,-1.2364,0.0,0.0,0.0,-1.3372,-1.3621,0.0,0.0,0.0,0.0,0.0,0.0,0.0,0.0,0.0,0.0,0.0,0.0,0.0,0.0,0.0,-1.5762,-1.5947,-1.626,-1.6699,-1.6934,-1.7061,-1.7061,-1.7461,-1.7886,-1.8329,-1.938,-2.0398,-2.1227,-2.1678,-2.2249,-2.309,-2.354,-2.4147,-2.4845,-2.5661,-2.6189,-2.6533,-2.6533,-2.6533,-2.6533,-2.6533,-2.6533,-2.6533,-2.6533,-2.6628,-2.6904,-2.718,-2.7457,-2.777,-2.8323,-2.8511,-2.8561,-2.885,-2.895,-2.9001,-2.9277,-2.9566,-2.9792,-2.9792,-2.9792,-2.9792,-2.9792,-2.9792,-2.9792,-2.9792,-2.9792,-2.9628,-2.9051,-2.8925,-2.8762,-2.821,-2.8561,-2.895,-2.895,-2.9176,-2.9164,-2.8599,-2.8047,-2.7595,-2.7318,-2.6804,-2.6352,-2.6063,-2.6025,-2.5799,-2.5259,-2.4958,-2.4569,-2.4029,-2.3728,-2.3439,-2.3078,-2.3078,-2.3078,-2.3078,-2.3078,-2.3078,-2.3078,-2.3078,-2.3078,-2.3078,-2.3078,-2.3078,0.0,0.0,0.0,0.0,0.0,-1.3389,0.0,0.0,0.0,-1.3716,0.0,0.0,0.0,0.0,0.0,0.0,0.0,0.0,0.0,0.0,0.0,0.0,0.0,0.0,0.0,-1.5019,-1.5459,-1.6182,-1.6309,-1.6396,-1.6475,-1.6894,-1.7288,-1.7506,-1.8534,-1.9544,-2.0563,-2.0653,-2.1463,-2.2927,-2.2945,-2.3558,-2.4682,-2.531,-2.585,-2.6302,-2.6483,-2.6533,-2.6533,-2.6533,-2.6321,-2.6083,-2.6414,-2.6383,-2.6295,-2.6884,-2.7047,-2.698,-2.7673,-2.7946,-2.7984,-2.8197,-2.8335,-2.8511,-2.8963,-2.9415,-2.9792,-2.9792,-2.9792,-2.9767,-2.9654,-2.9704,-2.9767,-2.9654,-2.9628,-2.9465,-2.8888,-2.8687,-2.8448,-2.7896,-2.7871,-2.7984,-2.8084,-2.8473,-2.8586,-2.8034,-2.757,-2.7243,-2.713,-2.6798,-2.6276,-2.5812,-2.5661,-2.5385,-2.487,-2.4318,-2.3954,-2.3841,-2.3389,-2.3078,-2.3078,-2.3078,-2.3078,-2.3078,-2.3078,-2.3078,-2.3078,-2.3078,-2.3078,-2.3078,-2.3078,-2.3078,0.0,0.0,0.0,0.0,-1.3086,0.0,0.0,0.0,-1.401,-1.4129,0.0,-1.4326,-1.4326,0.0,0.0,0.0,0.0,0.0,0.0,0.0,0.0,0.0,0.0,0.0,0.0,-1.4473,-1.4262,-1.4369,-1.4785,-1.5166,-1.5547,-1.5977,-1.6747,-1.7874,-1.806,-1.8868,-2.0428,-2.0878,-2.1547,-2.2422,-2.3354,-2.3967,-2.413,-2.5134,-2.5636,-2.5724,-2.6239,-2.6533,-2.6533,-2.6533,-2.5716,-2.4671,-2.5965,-2.5955,-2.5312,-2.6238,-2.6042,-2.5468,-2.6884,-2.7369,-2.7544,-2.8511,-2.9189,-2.9616,-2.9679,-2.9741,-2.9792,-2.9792,-2.9792,-2.9679,-2.9164,-2.9402,-2.9666,-2.9151,-2.9026,-2.8875,-2.8323,-2.7821,-2.7306,-2.6753,-2.7042,-2.7532,-2.8021,-2.816,-2.8009,-2.7457,-2.7318,-2.7105,-2.6615,-2.6571,-2.6496,-2.6433,-2.59,-2.5385,-2.487,-2.4318,-2.3778,-2.3263,-2.3115,-2.3078,-2.3078,-2.3078,-2.3078,-2.3078,-2.3078,-2.3078,-2.3078,-2.3078,-2.3078,-2.3078,-2.3078,-2.3078,0.0,0.0,0.0,0.0,0.0,0.0,-1.3185,0.0,-1.414,0.0,0.0,0.0,0.0,0.0,0.0,0.0,-1.4326,0.0,0.0,0.0,0.0,0.0,0.0,0.0,0.0,0.0,0.0,0.0,-1.4307,-1.4482,-1.4658,-1.5312,-1.594,-1.6476,-1.7469,-1.8351,-1.9004,-1.9969,-2.0828,-2.1653,-2.2421,-2.3219,-2.4029,-2.4795,-2.531,-2.5624,-2.6214,-2.6533,-2.6533,-2.6533,-2.5807,-2.4753,-2.5426,-2.4885,-2.3872,-2.4507,-2.485,-2.5159,-2.6105,-2.6606,-2.6859,-2.6944,-2.7594,-2.8312,-2.801,-2.8348,-2.8875,-2.9202,-2.9063,-2.8825,-2.89,-2.9114,-2.9151,-2.8586,-2.8699,-2.8687,-2.7821,-2.7695,-2.7507,-2.6628,-2.6904,-2.7256,-2.7168,-2.7419,-2.7444,-2.6892,-2.6804,-2.6716,-2.6559,-2.6163,-2.585,-2.5536,-2.5008,-2.4443,-2.3891,-2.3627,-2.3389,-2.309,-2.3078,-2.3078,-2.3078,-2.3078,-2.3078,-2.3078,-2.3078,-2.3078,-2.3078,-2.3078,-2.3078,-2.3078,-2.3078,-2.3078,-1.3596,0.0,0.0,0.0,0.0,0.0,0.0,0.0,0.0,0.0,0.0,0.0,0.0,0.0,-1.443,0.0,0.0,0.0,0.0,0.0,0.0,0.0,0.0,0.0,0.0,0.0,0.0,0.0,0.0,-1.3848,-1.3902,-1.4658,-1.5117,-1.5234,-1.6783,-1.7669,-1.7796,-1.9039,-2.0084,-2.0768,-2.1307,-2.2079,-2.3067,-2.3591,-2.4115,-2.4627,-2.5543,-2.5946,-2.6094,-2.6383,-2.5718,-2.4448,-2.4589,-2.3595,-2.2208,-2.3116,-2.3963,-2.4683,-2.5336,-2.5911,-2.6226,-2.5792,-2.6166,-2.6676,-2.6605,-2.71,-2.7792,-2.8512,-2.8411,-2.8197,-2.8599,-2.8812,-2.8787,-2.8235,-2.8411,-2.8448,-2.7494,-2.7482,-2.7419,-2.6615,-2.6779,-2.6929,-2.6596,-2.6791,-2.6917,-2.6584,-2.6533,-2.6533,-2.6533,-2.595,-2.5448,-2.5071,-2.4418,-2.3828,-2.3414,-2.3226,-2.3078,-2.3078,-2.3078,-2.3078,-2.3078,-2.3078,-2.3078,-2.3078,-2.3078,-2.3078,-2.3078,-2.3078,-2.3078,-2.3078,-2.3078,-2.3078,0.0,0.0,0.0,-1.3675,0.0,0.0,0.0,0.0,-1.5095,0.0,0.0,0.0,0.0,-1.4373,-1.443,-1.4581,0.0,0.0,0.0,0.0,0.0,0.0,0.0,0.0,0.0,0.0,0.0,0.0,0.0,0.0,-1.3506,-1.3883,-1.4365,-1.4785,-1.5956,-1.6754,-1.7204,-1.8484,-1.9369,-1.9778,-2.0344,-2.0666,-2.0764,-2.126,-2.1744,-2.2229,-2.3685,-2.4644,-2.5158,-2.6094,-2.5126,-2.3018,-2.3408,-2.2125,-2.0252,-2.2603,-2.3514,-2.3672,-2.4659,-2.5409,-2.5791,-2.5815,-2.5564,-2.5458,-2.6299,-2.6602,-2.6839,-2.7816,-2.8122,-2.8109,-2.8134,-2.8524,-2.8787,-2.8235,-2.8122,-2.7971,-2.7406,-2.6879,-2.6571,-2.6533,-2.6546,-2.6546,-2.6533,-2.6546,-2.6546,-2.6533,-2.6533,-2.6533,-2.6533,-2.595,-2.5586,-2.5573,-2.4632,-2.3991,-2.3966,-2.3452,-2.3078,-2.3078,-2.3078,-2.3078,-2.3078,-2.3078,-2.3078,-2.3078,-2.3078,-2.3078,-2.3078,-2.3078,-2.3078,-2.3078,-2.3078,-2.3078,0.0,0.0,-1.363,-1.3331,0.0,0.0,0.0,0.0,0.0,0.0,0.0,0.0,0.0,0.0,-1.443,-1.4581,-1.4482,0.0,0.0,0.0,0.0,0.0,0.0,0.0,0.0,0.0,0.0,0.0,-1.3104,0.0,-1.3086,-1.375,-1.4145,-1.4346,-1.5543,-1.6327,-1.6477,-1.746,-1.8333,-1.8976,-1.9523,-2.0009,-2.0624,-2.1431,-2.1879,-2.208,-2.3265,-2.3864,-2.4036,-2.4397,-2.3632,-2.2338,-2.2488,-2.1652,-2.0438,-2.1247,-2.2414,-2.3734,-2.5429,-2.5922,-2.5668,-2.5004,-2.4453,-2.4161,-2.4789,-2.5261,-2.5889,-2.7592,-2.7582,-2.718,-2.7921,-2.7971,-2.7795,-2.7607,-2.7557,-2.7507,-2.7318,-2.713,-2.6892,-2.6596,-2.6753,-2.6892,-2.6596,-2.6533,-2.6533,-2.6533,-2.6533,-2.6533,-2.6533,-2.5649,-2.5084,-2.5084,-2.4092,-2.3427,-2.3427,-2.3251,-2.3078,-2.3078,-2.3078,-2.3078,-2.3078,-2.3078,-2.3078,-2.3078,-2.3078,-2.3078,-2.3078,-2.3078,-2.3078,-2.3078,-2.3078,-2.3078,-1.2863,-1.3224,0.0,-1.3657,-1.4232,0.0,-1.4576,0.0,0.0,0.0,0.0,0.0,0.0,0.0,0.0,-1.465,-1.4536,-1.4384,0.0,-1.425,0.0,0.0,0.0,0.0,0.0,0.0,0.0,-1.3379,-1.319,-1.3076,0.0,0.0,-1.4209,-1.4355,-1.575,-1.6437,-1.6299,-1.7322,-1.8011,-1.8414,-1.8711,-1.9193,-1.9873,-2.0379,-2.085,-2.1272,-2.2154,-2.2692,-2.2999,-2.3368,-2.2925,-2.2027,-2.2027,-2.1451,-2.0566,-2.0566,-2.1821,-2.3745,-2.5358,-2.5492,-2.4835,-2.3971,-2.3221,-2.2907,-2.4149,-2.4762,-2.5354,-2.7284,-2.7306,-2.6917,-2.7632,-2.7544,-2.7281,-2.7281,-2.7281,-2.7231,-2.703,-2.6992,-2.6879,-2.6596,-2.6753,-2.6879,-2.6584,-2.6533,-2.6533,-2.6533,-2.6533,-2.6445,-2.6189,-2.5372,-2.4745,-2.4556,-2.369,-2.3078,-2.3078,-2.3078,-2.3078,-2.3078,-2.3078,-2.3078,-2.3078,-2.3078,-2.3265,-2.3728,-2.3339,-2.3265,-2.3666,-2.3265,-2.3078,-2.3078,-2.3078,-2.3078]},{"header":{"parameterUnit":"m.s-1","parameterCategory":1,"la1":30.6,"la2":29.2853,"lo1":-89.7004,"lo2":-87.6739,"dy":0.0162,"dx":0.0183,"nx":112,"ny":82,"refTime":"2023-05-17T00:00:00:Z","depth":0,"parameterNumber":3,"parameterNumberName":"V-component_of_WINDS"},"data":[0.0,0.0,0.0,0.0,0.0,0.0,0.0,0.0,0.0,0.0,0.0,0.0,0.0,0.0,0.0,0.0,0.0,0.0,0.0,0.0,0.0,0.0,0.0,0.0,0.0,0.0,0.0,0.0,0.0,0.0,0.0,0.0,0.0,0.0,0.0,0.0,0.0,0.0,0.0,0.0,0.0,0.0,0.0,0.0,0.0,0.0,0.0,0.0,0.0,0.0,0.0,0.0,0.0,0.0,0.0,0.0,0.0,0.0,0.0,0.0,0.0,0.0,0.0,0.0,0.0,0.0,0.0,0.0,0.0,0.0,0.0,0.0,0.0,0.0,0.0,0.0,0.0,0.0,0.0,0.0,0.0,0.0,0.0,0.0,0.0,0.0,0.0,0.0,0.0,0.0,0.0,0.441,0.545,0.6086,0.6056,0.7241,0.7721,0.707,0.0,0.0,0.0,0.0,0.0,0.0,0.0,0.0,0.0,0.0,0.0,0.0,0.0,0.0,0.0,0.0,0.0,0.0,0.0,0.0,0.0,0.0,0.0,0.0,0.0,0.0,0.0,0.0,0.0,0.0,0.0,0.0,0.0,0.0,0.0,0.0,0.0,0.0,0.0,0.0,0.0,0.0,0.0,0.0,0.0,0.0,0.0,0.0,0.0,0.0,0.0,0.0,0.0,0.0,0.0,0.0,0.0,0.0,0.0,0.0,0.0,0.0,0.0,0.0,0.0,0.0,0.0,0.0,0.0,0.0,0.0,0.0,0.0,0.0,0.0,0.0,0.0,0.0,0.0,0.0,0.0,0.0,0.0,0.0,0.0,0.0,0.0,0.0,0.0,0.0,0.0,0.0,0.0,0.0,0.0,0.0,0.0,0.0,0.0,0.0,0.0,0.0,0.0,0.0,0.3099,0.3487,0.4482,0.5023,0.4891,0.5625,0.5903,0.5489,0.0,0.0,0.0,0.0,0.0,0.0,0.0,0.0,0.0,0.0,0.0,0.0,0.0,0.0,0.0,0.0,0.0,0.0,0.0,0.0,0.0,0.0,0.0,0.0,0.0,0.0,0.0,0.0,0.0,0.0,0.0,0.0,0.0,0.0,0.0,0.0,0.0,0.0,0.0,0.0,0.0,0.0,0.0,0.0,0.0,0.0,0.0,0.0,0.0,0.0,0.0,0.0,0.0,0.0,0.0,0.0,0.0,0.0,0.0,0.0,0.0,0.0,0.0,0.0,0.0,0.0,0.0,0.0,0.0,0.0,0.0,0.0,0.0,0.0,0.0,0.0,0.0,0.0,0.0,0.0,0.0,0.0,0.0,0.0,0.0,0.0,0.0,0.0,0.0,0.0,0.0,0.0,0.0,0.0,0.0,0.0,0.0,0.0,0.0,0.0,0.0,0.0,0.0,0.3057,0.2993,0.3167,0.3639,0.3946,0.4,0.4624,0.505,0.5143,0.6063,0.0,0.0,0.0,0.0,0.0,0.0,0.0,0.0,0.0,0.0,0.0,0.0,0.0,0.0,0.0,0.0,0.0,0.0,0.0,0.0,0.0,0.0,0.0,0.0,0.0,0.0,0.0,0.0,0.0,0.0,0.0,0.0,0.0,0.0,0.0,0.0,0.0,0.0,0.0,0.0,0.0,0.0,0.0,0.0,0.0,0.0,0.0,0.0,0.0,0.0,0.0,0.0,0.0,0.0,0.0,0.0,0.0,0.0,0.0,0.0,0.0,0.0,0.0,0.0,0.0,0.0,0.0,0.0,0.0,0.0,0.0,0.0,0.0,0.0,0.0,0.0,0.0,0.0,0.0,0.0,0.0,0.0,0.0,0.0,0.0,0.0,0.0,0.0,0.0,0.0,0.0,0.0,0.0,0.0,0.0,0.0,0.0,0.0,0.0,0.0,0.0,0.0,0.2676,0.2713,0.2745,0.2882,0.3068,0.3299,0.3816,0.4376,0.5017,0.5422,0.0,0.0,0.0,0.0,0.0,0.0,0.0,0.0,0.0,0.0,0.0,0.0,0.0,0.0,0.0,0.0,0.0,0.0,0.0,0.0,0.0,0.0,0.0,0.0,0.0,0.0,0.0,0.0,0.0,0.0,0.0,0.0,0.0,0.0,0.0,0.0,0.0,0.0,0.0,0.0,0.0,0.0,0.0,0.0,0.0,0.0,0.0,0.0,0.0,0.0,0.0,0.0,0.0,0.0,0.0,0.0,0.0,0.0,0.0,0.0,0.0,0.0,0.0,0.0,0.0,0.0,0.0,0.0,0.0,0.0,0.0,0.0,0.0,0.0,0.0,0.0,0.0,0.0,0.0,0.0,0.0,0.0,0.0,0.0,0.0,0.0,0.0,0.0,0.0,0.0,0.0,0.0,0.0,0.0,0.0,0.0,0.0,0.0,0.0,0.0,0.0,0.0,0.181,0.1852,0.1721,0.2221,0.2594,0.2758,0.309,0.367,0.4585,0.5357,0.0,0.0,0.0,0.0,0.0,0.0,0.0,0.0,0.0,0.0,0.0,0.0,0.0,0.0,0.0,0.0,0.0,0.0,0.0,0.0,0.0,0.0,0.0,0.0,0.0,0.0,0.0,0.0,0.0,0.0,0.0,0.0,0.0,0.0,0.0,0.0,0.0,0.0,0.0,0.0,0.0,0.0,0.0,0.0,0.0,0.0,0.0,0.0,0.0,0.0,0.0,0.0,0.0,0.0,0.0,0.0,0.0,0.0,0.0,0.0,0.0,0.0,0.0,0.0,0.0,0.0,0.0,0.0,0.0,0.0,0.0,0.0,0.0,0.0,0.0,0.0,0.0,0.0,0.0,0.0,0.0,0.0,0.0,0.0,0.0,0.0,0.0,0.0,0.0,0.0,0.0,0.0,0.0,0.0,0.0,0.0,0.0,0.0,0.0,0.0,0.0,0.0,0.1095,0.1041,0.0,0.1311,0.1606,0.1573,0.2031,0.2793,0.385,0.0,0.0,0.0,0.0,0.0,0.0,0.0,0.0,0.0,0.0,0.0,0.0,0.0,0.0,0.0,0.0,0.0,0.0,0.0,0.0,0.0,0.0,0.0,0.0,0.0,0.0,0.0,0.0,0.0,0.0,0.0,0.0,0.0,0.0,0.0,0.0,0.0,0.0,0.0,0.0,0.0,0.0,0.0,0.0,0.0,0.0,0.0,0.0,0.0,0.0,0.0,0.0,0.0,0.0,0.0,0.0,0.0,0.0,0.0,0.0,0.0,0.0,0.0,0.0,0.0,0.0,0.0,0.0,0.0,0.0,0.0,0.0,0.0,0.0,0.0,0.0,0.0,0.0,0.0,0.0,0.0,0.0,0.0,0.0,0.0,0.0,0.0,0.0,0.0,0.0,0.0,0.0,0.0,0.0,0.0,0.0,0.0,0.0,0.0,0.0,0.0,0.0,0.0425,0.031,0.0184,0.0,0.0451,0.069,0.0564,0.0913,0.1739,0.3138,0.0,0.0,0.0,0.0,0.0,0.0,0.0,0.0,0.0,0.0,0.0,0.0,0.0,0.0,0.0,0.0,0.0,0.0,0.0,0.0,0.0,0.0,0.0,0.0,0.0,0.0,0.0,0.0,0.0,0.0,0.0,0.0,0.0,0.0,0.0,0.0,0.0,0.0,0.0,0.0,0.0,0.0,0.0,0.0,0.0,0.0,0.0,0.0,0.0,0.0,0.0,0.0,0.0,0.0,0.0,0.0,0.0,0.0,0.0,0.0,0.0,0.0,0.0,0.0,0.0,0.0,0.0,0.0,0.0,0.0,0.0,0.0,0.0,0.0,0.0,0.0,0.0,0.0,0.0,0.0,0.0,0.0,0.0,0.0,0.0,0.0,0.0,0.0,0.0,0.0,0.0,0.0,0.0,0.0,0.0,0.0,0.0,0.0,0.0,0.0,0.0,0.0,-0.0431,-0.0614,-0.0784,-0.0924,-0.0376,-0.0085,-0.0211,-0.027,0.0517,0.0,0.0,0.0,0.0,0.0,0.0,0.0,0.0,0.0,0.0,0.0,0.0,0.0,0.0,0.0,0.0,0.0,0.0,0.0,0.0,0.0,0.0,0.0,0.0,0.0,0.0,0.0,0.0,0.0,0.0,0.0,0.0,0.0,0.0,0.0,0.0,0.0,0.0,0.0,0.0,0.0,0.0,0.0,0.0,0.0,0.0,0.0,0.0,0.0,0.0,0.0,0.0,0.0,0.0,0.0,0.0,0.0,0.0,0.0,0.0,0.0,0.0,0.0,0.0,0.0,0.0,0.0,0.0,0.0,0.0,0.0,0.0,0.0,0.0,0.0,0.0,0.0,0.0,0.0,0.0,0.0,0.0,0.0,0.0,0.0,0.0,0.0,0.0,0.0,0.0,0.0,0.0,0.0,0.0,0.0,0.0,0.0,0.0,0.0,0.0,0.0,0.0,0.0,-0.1819,-0.2232,-0.2556,-0.2589,-0.1881,-0.1433,-0.146,-0.1019,-0.0122,0.1314,0.0,0.0,0.0,0.0,0.0,0.0,0.0,0.0,0.0,0.0,0.0,0.0,0.0,0.0,0.0,0.0,0.0,0.0,0.0,0.0,0.0,0.0,0.0,0.0,0.0,0.0,0.0,0.0,0.0,0.0,0.0,0.0,0.0,0.0,0.0,0.0,0.0,0.0,0.0,0.0,0.0,0.0,0.0,0.0,0.0,0.0,0.0,0.0,0.0,0.0,0.0,0.0,0.0,0.0,0.0,0.0,0.0,0.0,0.0,0.0,0.0,0.0,0.0,0.0,0.0,0.0,0.0,0.0,0.0,0.0,0.0,0.0,0.0,0.0,0.0,0.0,0.0,0.0,0.0,0.0,0.0,0.0,0.0,0.0,0.0,0.0,0.0,0.0,0.0,0.0,0.0,0.0,0.0,0.0,0.0,0.0,0.0,0.0,0.0,0.0,0.0,0.0,-0.256,-0.3151,-0.3566,-0.3565,-0.3056,-0.2736,-0.2804,-0.2185,-0.1312,-0.0098,0.0,0.0,0.0,0.0,0.0,0.0,0.0,0.0,0.0,0.0,0.0,0.0,0.0,0.0,0.0,0.0,0.0,0.0,0.0,0.0,0.0,0.0,0.0,0.0,0.0,0.0,0.0,0.0,0.0,0.0,0.0,0.0,0.0,0.0,0.0,0.0,0.0,0.0,0.0,0.0,0.0,0.0,0.0,0.0,0.0,0.0,0.0,0.0,0.0,0.0,0.0,0.0,0.0,0.0,0.0,0.0,0.0,0.0,0.0,0.0,0.0,0.0,0.0,0.0,0.0,0.0,0.0,0.0,0.0,0.0,0.0,0.0,0.0,0.0,0.0,0.0,0.0,0.0,0.0,0.0,0.0,0.0,0.0,0.0,0.0,0.0,0.0,0.0,0.0,0.0,0.0,0.0,0.0,0.0,0.0,0.0,0.0,0.0,0.0,0.0,0.0,0.0,-0.2948,-0.3635,-0.4129,-0.4149,-0.3977,-0.3919,-0.4038,-0.3588,-0.2785,-0.1527,0.0,0.0,0.0,0.0,0.0,0.0,0.0,0.0,0.0,0.0,0.0,0.0,0.0,0.0,0.0,0.0,0.0,0.0,0.0,0.0,0.0,0.0,0.0,0.0,0.0,0.0,0.0,0.0,0.0,0.0,0.0,0.0,0.0,0.0,0.0,0.0,0.0,0.0,0.0,0.0,0.0,0.0,0.0,0.0,0.0,0.0,0.0,0.0,0.0,0.0,0.0,0.0,0.0,0.0,0.0,0.0,0.0,0.0,0.0,0.0,-1.4286,0.0,0.0,0.0,0.0,0.0,0.0,0.0,0.0,0.0,0.0,0.0,0.0,0.0,0.0,0.0,0.0,0.0,0.0,0.0,0.0,0.0,0.0,0.0,0.0,0.0,0.0,0.0,0.0,0.0,0.0,0.0,0.0,0.0,0.0,0.0,0.0,0.0,0.0,0.0,0.0,0.0,-0.4103,-0.4653,-0.5106,-0.5322,-0.4802,-0.4443,-0.4468,-0.4267,-0.3529,-0.2036,-0.1376,0.0,0.0,0.0,0.0,0.0,0.0,0.0,0.0,0.0,0.0,0.0,0.0,0.0,0.0,0.0,0.0,0.0,0.0,0.0,0.0,0.0,0.0,0.0,0.0,0.0,0.0,0.0,0.0,0.0,0.0,0.0,0.0,0.0,0.0,0.0,0.0,0.0,0.0,0.0,0.0,0.0,0.0,0.0,0.0,0.0,0.0,0.0,0.0,0.0,0.0,0.0,0.0,0.0,0.0,0.0,0.0,0.0,0.0,0.0,0.0,-1.5022,0.0,0.0,0.0,0.0,0.0,0.0,0.0,0.0,0.0,0.0,0.0,0.0,0.0,0.0,0.0,0.0,0.0,0.0,0.0,0.0,0.0,0.0,0.0,0.0,0.0,0.0,0.0,0.0,0.0,0.0,0.0,0.0,0.0,0.0,0.0,0.0,0.0,0.0,0.0,0.0,-0.4549,-0.5464,-0.5992,-0.557,-0.5325,-0.5137,-0.4953,-0.4884,-0.4483,-0.3676,-0.2748,0.0,0.0,0.0,0.0,0.0,0.0,0.0,0.0,0.0,0.0,0.0,0.0,0.0,0.0,0.0,0.0,0.0,0.0,0.0,0.0,0.0,0.0,0.0,0.0,0.0,0.0,0.0,0.0,0.0,0.0,0.0,0.0,0.0,0.0,0.0,0.0,0.0,0.0,0.0,0.0,0.0,0.0,0.0,0.0,0.0,0.0,0.0,0.0,0.0,0.0,0.0,0.0,0.0,-2.05,-2.0364,-2.0344,-2.0866,-2.1076,-2.0862,-1.8361,-1.7631,-1.8087,-1.551,0.0,0.0,0.0,0.0,0.0,0.0,0.0,0.0,0.0,0.0,0.0,0.0,0.0,0.0,0.0,0.0,0.0,0.0,0.0,0.0,0.0,0.0,0.0,0.0,-1.0257,-1.0133,0.0,0.0,0.0,0.0,0.0,0.0,0.0,0.0,0.0,0.0,0.0,0.0,-0.5167,-0.6334,-0.6811,-0.5711,-0.5851,-0.5824,-0.5347,-0.5309,-0.5309,-0.5309,-0.4285,-0.3204,0.0,0.0,0.0,0.0,0.0,0.0,0.0,0.0,0.0,0.0,0.0,0.0,0.0,0.0,0.0,0.0,0.0,0.0,0.0,0.0,0.0,0.0,0.0,0.0,0.0,0.0,0.0,0.0,0.0,0.0,0.0,0.0,-2.0236,-2.0236,0.0,0.0,0.0,0.0,0.0,0.0,0.0,0.0,0.0,0.0,0.0,0.0,0.0,-2.1709,-2.2617,-2.3302,-2.3678,-2.3746,-2.4433,-2.4611,-2.432,-2.3784,-2.3339,-2.2979,-2.1933,0.0,-1.9673,-1.778,0.0,0.0,0.0,0.0,0.0,0.0,0.0,0.0,0.0,0.0,0.0,0.0,0.0,0.0,0.0,0.0,0.0,0.0,0.0,0.0,0.0,0.0,-1.3346,-1.2722,-1.2095,-1.153,0.0,-0.9576,-0.8095,-0.7792,-0.7454,0.0,0.0,0.0,0.0,0.0,0.0,0.0,-0.7256,-0.756,-0.746,-0.6841,-0.6575,-0.6123,-0.5361,-0.5309,-0.5309,-0.5309,-0.545,-0.4929,-0.3514,-0.2811,0.0,0.0,0.0,0.0,0.0,0.0,0.0,0.0,0.0,0.0,0.0,0.0,0.0,0.0,0.0,0.0,0.0,0.0,0.0,0.0,0.0,0.0,0.0,0.0,0.0,0.0,0.0,0.0,0.0,-1.964,-2.0167,-2.0132,-1.9864,-1.9605,0.0,0.0,0.0,0.0,0.0,0.0,0.0,0.0,0.0,-2.5008,-2.4962,-2.5386,-2.6356,-2.6718,-2.6898,-2.694,-2.6907,-2.6613,-2.6043,-2.5259,-2.4351,-2.3376,-2.3054,-2.232,-2.1226,-1.9695,-1.8911,-1.8537,0.0,0.0,0.0,0.0,-1.5394,-1.5474,-1.5435,-1.5613,0.0,-1.5594,0.0,0.0,0.0,0.0,0.0,0.0,0.0,0.0,0.0,0.0,-1.3869,-1.3602,-1.3259,-1.2894,-1.2638,-1.1605,-1.0379,0.0,-0.8622,-0.794,-0.6838,0.0,0.0,0.0,0.0,-0.7676,-0.7756,-0.8369,-0.8469,-0.7539,-0.7507,-0.7348,-0.6763,-0.6443,-0.6265,-0.6265,-0.6138,-0.584,-0.5311,-0.4408,-0.341,0.0,0.0,0.0,0.0,0.0,0.0,0.0,0.0,0.0,0.0,0.0,0.0,0.0,0.0,0.0,0.0,0.0,0.0,0.0,0.0,0.0,0.0,0.0,0.0,0.0,0.0,0.0,0.0,-2.0483,-2.0963,-2.0612,-2.0894,-2.088,0.0,0.0,0.0,0.0,0.0,0.0,-2.4833,-2.5751,-2.6947,-2.8439,-2.8458,-2.8797,-2.9622,-2.9622,-2.9622,-2.9599,-2.8756,-2.7992,-2.7359,-2.6247,-2.4992,-2.3663,-2.3477,-2.2987,-2.2203,-2.1077,-2.061,-2.044,-1.9046,-1.8321,-1.8017,-1.7258,-1.7049,-1.7164,-1.7165,-1.7393,-1.767,-1.7571,-1.7303,-1.6951,-1.6354,0.0,0.0,0.0,0.0,-1.5039,-1.538,-1.5072,-1.4558,-1.4281,-1.4117,-1.3934,-1.3493,-1.2988,-1.2213,0.0,-1.0023,-0.9309,-0.8183,0.0,0.0,0.0,0.0,-0.894,-0.8432,-0.9188,-0.9336,-0.8245,-0.8379,-0.8344,-0.7859,-0.7443,-0.7221,-0.7221,-0.6914,-0.6704,-0.6744,-0.579,-0.4721,-0.349,0.0,0.0,0.0,0.0,0.0,0.0,0.0,0.0,0.0,0.0,0.0,0.0,0.0,0.0,0.0,0.0,0.0,0.0,0.0,0.0,0.0,0.0,0.0,0.0,0.0,0.0,0.0,0.0,0.0,-2.2824,-2.399,0.0,0.0,0.0,0.0,-2.3545,-2.6594,-2.8488,-2.8524,-3.0131,-3.1102,-3.1201,-3.1201,-3.1219,-3.1274,-3.1274,-3.1274,-3.1274,-3.0085,-2.934,-2.8929,-2.7046,-2.5554,-2.4421,-2.3697,-2.2987,-2.2254,-2.1744,-2.1803,-2.2141,-2.1589,-2.1162,-2.0815,-2.0751,-2.0239,-1.9534,-1.954,-1.9555,-1.9549,-1.9549,-1.8731,-1.7755,-1.7705,-1.6834,0.0,0.0,-1.7626,-1.7605,-1.7574,-1.725,-1.6603,-1.5346,-1.4752,-1.4374,-1.3967,-1.3382,-1.2844,0.0,-1.1984,-1.138,-1.0562,0.0,-1.0207,-0.9828,-0.9751,-0.9856,-1.0128,-1.0234,-0.9925,-0.905,-0.8967,-0.8666,-0.7876,-0.7771,-0.778,-0.778,-0.799,-0.7869,-0.7371,-0.7065,-0.6243,-0.4823,-0.3893,0.0,0.0,0.0,0.0,0.0,0.0,0.0,0.0,0.0,0.0,0.0,0.0,0.0,0.0,0.0,0.0,0.0,0.0,0.0,0.0,0.0,0.0,0.0,0.0,0.0,0.0,0.0,0.0,-2.5067,-2.6936,0.0,-2.7296,-2.7562,-2.7985,-2.8469,-3.0202,-3.1474,-3.1986,-3.3101,-3.3733,-3.3733,-3.3733,-3.3476,-3.2944,-3.2944,-3.2944,-3.2926,-3.1738,-3.0836,-3.0202,-2.8694,-2.7121,-2.5584,-2.5326,-2.4372,-2.3004,-2.2824,-2.2601,-2.2237,-2.1794,-2.1521,-2.1337,-2.0748,-2.0348,-2.007,-1.9782,-1.969,-1.969,-1.969,-1.9403,-1.903,-1.903,-1.8709,-1.8441,-1.8884,-1.872,-1.8387,-1.8335,-1.793,-1.7287,-1.6557,-1.6278,-1.5966,-1.5211,-1.4879,-1.4591,-1.4113,-1.2763,-1.1513,-1.1002,-1.1137,-1.1293,-1.1189,-1.1072,-1.1077,-1.1242,-1.0925,-1.0478,-0.9897,-0.9849,-0.9715,-0.9422,-0.9102,-0.8911,-0.8911,-0.8646,-0.831,-0.7862,-0.8026,-0.752,-0.6262,-0.4439,-0.2561,0.0,0.0,0.0,0.0,0.0,0.0,0.0,0.0,0.0,0.0,0.0,0.0,0.0,0.0,0.0,0.0,0.0,0.0,0.0,0.0,0.0,0.0,0.0,0.0,0.0,0.0,-2.7669,-2.787,-3.0159,-3.1516,-3.1101,-3.1717,-3.2354,-3.2876,-3.4266,-3.5183,-3.544,-3.6229,-3.6413,-3.5862,-3.5844,-3.533,-3.4229,-3.4211,-3.4082,-3.3788,-3.2609,-3.1787,-3.1245,-2.9733,-2.8164,-2.6601,-2.6328,-2.5124,-2.341,-2.3663,-2.319,-2.2282,-2.1974,-2.1718,-2.1521,-2.0813,-2.0449,-2.0246,-1.9839,-1.969,-1.969,-1.969,-1.969,-1.969,-1.969,-1.969,-1.969,-1.969,-1.9375,-1.8986,-1.8762,-1.8388,-1.7918,-1.7416,-1.729,-1.7089,-1.6332,-1.601,-1.5768,-1.5272,-1.3825,-1.2623,-1.2438,-1.2649,-1.2655,-1.2151,-1.2138,-1.2042,-1.1531,-1.1145,-1.0801,-1.0518,-1.0371,-1.0283,-1.0283,-0.9712,-0.9451,-0.9746,-0.9156,-0.8734,-0.8569,-0.8503,-0.8063,-0.7099,-0.5375,-0.393,-0.2799,0.0,0.0,0.0,0.0,0.0,0.0,0.0,0.0,0.0,0.0,0.0,0.0,0.0,0.0,0.0,0.0,0.0,0.0,0.0,0.0,0.0,0.0,0.0,-2.5249,-2.8058,-3.0513,-3.1334,-3.3652,-3.4862,-3.41,-3.5495,-3.645,-3.645,-3.8615,-3.9588,-3.8781,-3.9478,-3.9148,-3.7562,-3.7507,-3.6707,-3.5045,-3.5009,-3.4605,-3.3825,-3.2683,-3.2115,-3.2032,-3.0023,-2.8505,-2.7378,-2.6571,-2.5176,-2.3511,-2.4222,-2.3663,-2.2344,-2.2344,-2.2049,-2.1552,-2.115,-2.0715,-2.0246,-1.9839,-1.969,-1.969,-1.969,-1.969,-1.969,-1.969,-1.969,-1.969,-1.969,-1.969,-1.954,-1.8897,-1.8732,-1.8568,-1.7939,-1.7757,-1.7644,-1.7248,-1.6754,-1.6258,-1.5821,-1.5324,-1.4953,-1.4916,-1.4916,-1.4369,-1.276,-1.2939,0.0,-1.1099,-1.0957,-1.0937,-1.0867,-1.0547,-1.0303,-1.0303,-0.9526,-0.9394,-1.0293,-0.9526,-0.9205,-0.9527,-0.8695,-0.7875,-0.7198,-0.6696,-0.657,-0.6887,0.0,0.0,0.0,0.0,0.0,0.0,0.0,0.0,0.0,0.0,0.0,0.0,0.0,0.0,0.0,0.0,0.0,0.0,0.0,0.0,0.0,0.0,-2.988,-2.9637,-3.2454,-3.5072,-3.6465,-3.8291,-3.935,-3.9129,-3.9515,-3.979,-3.979,-4.0414,-4.0414,-3.9606,-3.9772,-3.9148,-3.7562,-3.7507,-3.7,-3.5954,-3.5302,-3.488,-3.4642,-3.3168,-3.2311,-3.1957,-3.025,-2.8976,-2.8083,-2.7321,-2.6241,-2.5017,-2.522,-2.4425,-2.3105,-2.3105,-2.2709,-2.2032,-2.1598,-2.0943,-2.0246,-1.9839,-1.969,-1.969,-1.969,-1.969,-1.969,-1.969,-1.969,-1.969,-1.969,-1.969,-1.9645,-1.9465,-1.942,-1.9375,-1.9196,-1.9151,-1.9031,-1.8521,-1.7989,-1.7454,-1.6957,-1.6417,-1.5806,-1.5054,-1.4916,-1.4874,-1.478,-1.4529,0.0,-1.3291,-1.2785,-1.1964,-1.0634,-1.039,-1.0315,-1.0315,-1.009,-1.0324,-1.1182,-1.0709,-1.0452,-1.0631,-1.0299,-0.9211,-0.7308,-0.7067,-0.8358,0.0,0.0,0.0,0.0,0.0,0.0,0.0,0.0,0.0,0.0,0.0,0.0,0.0,0.0,0.0,0.0,0.0,0.0,0.0,0.0,0.0,0.0,-3.1905,-3.3899,-3.5284,-3.6541,-3.8028,-3.9974,-4.1038,-4.1754,-4.2066,-4.2121,-4.2121,-4.2121,-4.2121,-4.1754,-4.0946,-4.091,-4.0322,-3.9038,-3.867,-3.812,-3.7312,-3.6468,-3.5881,-3.5532,-3.4247,-3.347,-3.3201,-3.1592,-3.0266,-2.9152,-2.8382,-2.7134,-2.5625,-2.593,-2.5186,0.0,0.0,0.0,0.0,0.0,-2.1054,-2.028,-2.0035,-1.9839,-1.969,-1.969,-1.969,-1.969,-1.969,-1.969,-1.969,-1.969,-1.969,-1.969,-1.969,-1.969,-1.969,-1.969,-1.969,-1.9603,-1.9281,-1.8817,-1.8341,-1.8027,-1.7353,0.0,-1.6006,-1.5716,-1.5499,-1.5369,-1.5229,-1.4861,-1.409,-1.3707,-1.2998,-1.1604,-1.1302,-1.112,-1.0875,-1.0503,0.0,0.0,0.0,-1.0656,-1.07,-1.0615,0.0,0.0,0.0,-0.9452,-1.1084,0.0,0.0,0.0,-0.2249,-0.1681,0.0,0.0,0.0,0.0,0.0,0.0,0.0,0.0,0.0,0.0,0.0,0.0,0.0,0.0,0.0,0.0,-3.6117,-3.7863,-4.0836,-4.0084,-4.0047,-4.2176,-4.2433,-4.2708,-4.3424,-4.3497,-4.3497,-4.3497,-4.3497,-4.3149,-4.2341,0.0,0.0,0.0,0.0,-3.9643,-3.8836,-3.8028,-3.7221,-3.6413,-3.5569,-3.5082,-3.4879,-3.3386,-3.1818,-3.0287,-2.9508,-2.7892,-2.5913,-2.6556,-2.5947,-2.4557,-2.3714,-2.2953,-2.2237,-2.1718,-2.1039,-2.0348,-2.028,0.0,0.0,-1.969,-1.969,-1.969,-1.969,-1.969,-1.969,-1.969,-1.969,-1.969,-1.969,-1.969,-1.969,-1.969,-1.969,-1.969,-1.969,-1.9281,-1.8893,-1.8893,-1.8027,-1.7312,-1.7312,-1.6879,-1.6163,-1.5139,-1.5377,-1.5289,-1.4236,-1.419,-1.3993,-1.321,0.0,0.0,-1.184,-1.097,-1.0846,-1.1802,-1.107,-1.0554,-1.0431,-1.0416,-1.0609,-1.1012,-1.0967,-1.0317,-0.9092,-1.1008,-1.0271,-0.7085,-0.5257,-0.4306,0.0,0.0,0.0,0.0,0.0,0.0,0.0,0.0,0.0,0.0,0.0,0.0,0.0,0.0,0.0,-3.6549,-3.8768,-4.0634,-4.1901,-4.2359,-4.2727,-4.3204,-4.3259,-4.3314,-4.3461,-4.3497,-4.3497,-4.3497,-4.3497,-4.3149,-4.2341,-4.2304,-4.1937,-4.1148,-4.0965,-4.0487,-3.968,-3.8872,-3.8065,-3.7239,0.0,0.0,-3.448,-3.3597,-3.224,-3.0575,-2.9826,-2.8696,-2.7402,-2.7554,-2.6725,-2.5253,-2.3917,-2.2953,-2.2209,-2.1415,-2.1023,-2.0764,-2.007,-1.9782,-1.969,-1.969,-1.969,-1.969,-1.969,-1.969,0.0,-1.969,-1.969,-1.969,-1.969,-1.969,-1.969,-1.969,-1.969,-1.969,-1.969,-1.9281,-1.8893,-1.8893,-1.8027,-1.7312,-1.7312,-1.6879,-1.6441,-1.6188,-1.6262,-1.6058,-1.5369,-1.5301,-1.4817,-1.3476,-1.2827,-1.2641,-1.304,-1.2018,-1.1945,-1.33,-1.2755,-1.2204,-1.181,-1.2165,-1.2397,-1.2474,-1.2474,-1.2338,-1.2051,-1.2502,-1.2338,-1.1631,-1.0461,-0.9731,0.0,0.0,0.0,0.0,0.0,0.0,0.0,0.0,0.0,0.0,0.0,-3.1513,0.0,0.0,-3.7606,-3.9551,-4.124,-4.2433,-4.2837,-4.324,-4.3497,-4.3497,-4.3497,-4.3497,-4.3497,-4.3497,-4.3497,-4.3497,-4.3497,-4.3314,-4.291,-4.2892,-4.2708,-4.2304,-4.1919,-4.1515,-4.1093,-4.0304,-3.9698,-3.9294,-3.8083,-3.7186,-3.651,-3.5356,-3.3646,-3.1633,-3.1265,-3.0058,-2.8399,-2.8399,-2.752,-2.6082,-2.5338,-2.4374,-2.3334,-2.2604,-2.2005,-2.1437,-2.0736,-2.0146,-1.969,-1.969,-1.969,-1.969,-1.969,-1.969,-1.969,-1.969,-1.969,-1.969,-1.969,-1.969,-1.969,-1.969,-1.969,-1.969,-1.969,-1.9479,-1.9281,-1.9281,-1.8419,-1.7706,-1.7706,-1.7034,-1.6522,-1.6522,-1.6522,-1.638,-1.6095,-1.6051,-1.5668,-1.4628,-1.4239,-1.3925,-1.363,-1.2745,-1.2579,-1.3314,-1.3065,-1.2783,-1.2568,-1.2764,-1.2881,-1.2881,-1.2881,-1.2881,-1.2881,-1.2881,-1.2881,-1.2881,-1.2412,-1.1891,0.0,0.0,0.0,0.0,0.0,0.0,0.0,0.0,-3.0895,-3.2948,-3.3901,-3.522,-3.8125,-3.9258,-4.0399,-4.2433,-4.3167,-4.3497,-4.3497,-4.3497,-4.3497,-4.3497,-4.3497,-4.3497,-4.3497,-4.3497,-4.3497,-4.3497,-4.3497,-4.3497,-4.3497,-4.3497,-4.3497,-4.3497,-4.2873,-4.2451,-4.2304,-4.1662,-4.1258,-4.1093,-3.979,-3.9001,-3.867,-3.7367,-3.5405,-3.3009,-3.2525,-3.115,-2.9194,-2.9042,-2.8163,-2.6911,-2.6911,-2.6099,-2.4833,-2.4017,-2.3127,-2.2207,-2.1561,-2.0691,-1.9869,-1.9735,-1.969,-1.969,-1.969,-1.969,-1.969,-1.969,-1.969,-1.969,-1.969,-1.9794,-1.9854,-1.972,-1.9794,-1.9854,-1.972,-1.9794,-1.9854,-1.972,-1.9031,-1.8402,-1.8277,-1.7394,-1.6637,-1.6522,-1.6522,-1.6522,-1.6522,-1.6522,-1.6324,-1.582,-1.5676,-1.5174,-1.405,-1.3515,-1.32,-1.3055,-1.2968,-1.2881,-1.2881,-1.2881,-1.2881,-1.2881,-1.2881,-1.2881,-1.2881,-1.2881,-1.2881,-1.2881,-1.2881,-1.2559,-2.29,-2.3821,-2.6321,-3.0046,-3.0583,-3.1507,0.0,0.0,-3.613,-3.8795,-4.0002,-4.1107,-4.2848,-4.3305,-4.3619,-4.4303,-4.3901,-4.3497,-4.3497,-4.3497,-4.3497,-4.3497,-4.3497,-4.3497,-4.3497,-4.3497,-4.3497,-4.3497,-4.3497,-4.3497,-4.3497,-4.3497,-4.3497,-4.3497,-4.3406,-4.302,-4.2304,-4.2213,-4.1809,-4.1111,-4.0928,-4.0084,-3.8689,-3.8505,-3.7007,-3.4429,-3.23,-3.0832,-2.9939,-2.9262,-2.8467,-2.7689,-2.7689,-2.7182,-2.6252,-2.4497,-2.3486,-2.2824,-2.1851,-2.1078,-2.0498,-1.9884,-1.969,-1.969,-1.969,-1.969,-1.969,-1.969,-1.969,-1.969,-1.969,-2.0139,-2.0438,-1.9824,-2.0154,-2.0438,-1.9824,-2.0168,-2.0423,-1.9809,-1.9689,-1.9505,-1.8903,-1.7907,-1.7034,-1.6552,-1.6522,-1.6522,-1.6522,-1.6522,-1.6466,-1.6423,-1.5908,-1.532,-1.4652,-1.4525,-1.4294,-1.3732,-1.32,-1.2881,-1.2881,-1.2881,-1.2881,-1.2881,-1.2881,-1.2881,-1.2881,-1.2881,-1.2881,-1.2881,-1.2881,-1.2881,-2.7249,-2.8356,0.0,0.0,-3.4228,-3.6075,-3.9119,-3.942,-3.9847,-4.2581,-4.3286,-4.3586,-4.4236,-4.4786,-4.5029,0.0,-4.4415,-4.4195,-4.4195,-4.3791,-4.3497,-4.3497,-4.3497,-4.3497,-4.3497,-4.3497,-4.3497,-4.3497,-4.3497,-4.3497,-4.3497,-4.3497,-4.3497,-4.3497,-4.3497,-4.3332,-4.3002,-4.3002,-4.2818,-4.2488,-4.2029,-4.1203,-4.0084,-3.9606,-3.815,-3.5842,-3.3833,-3.2531,-3.1809,-3.1176,-3.0209,-2.9161,-2.9161,-2.8687,-2.7806,-2.5826,-2.4547,-2.3626,-2.2864,-2.1766,-2.0737,-2.0827,-2.0602,-2.0288,-2.0288,-2.0288,-2.0198,-1.9794,-1.969,-1.9779,-2.0183,-2.0498,-2.0737,-2.0842,-2.1081,-2.1216,-2.0917,-2.1081,-2.1201,-2.0917,-2.0661,-2.0272,-1.9623,-1.859,-1.7652,-1.7044,-1.671,-1.6522,-1.6522,-1.6522,-1.6522,-1.6522,-1.5952,-1.5499,-1.5231,-1.4926,-1.4606,-1.4329,-1.3779,-1.3563,-1.3931,-1.361,-1.36,-1.3931,-1.3931,-1.3789,-1.342,-1.342,-1.3238,-1.2881,-1.2881,-1.2881,-3.0241,0.0,0.0,-3.5262,-3.7802,-4.0105,-4.1248,-4.1986,-4.2978,-4.4975,-4.5213,-4.5039,-4.5039,-4.5333,-4.5388,-4.48,-4.4709,-4.4635,-4.4415,-4.4066,-4.3736,-4.3516,-4.3497,-4.3497,-4.3497,-4.3497,-4.3497,-4.3497,-4.3497,-4.3497,-4.3497,-4.3497,-4.3497,-4.3497,-4.3497,-4.3497,-4.3497,-4.3497,-4.3497,-4.3479,-4.291,-4.2213,-4.1405,-4.043,-3.8888,-3.6858,-3.546,-3.4233,-3.3141,-3.2781,-3.1732,-3.0412,-3.0412,-2.982,-2.8803,-2.735,-2.5946,-2.4654,-2.3894,-2.257,-2.1306,-2.1605,-2.138,-2.0991,-2.0991,-2.0991,-2.0872,-2.0378,-2.0243,-2.0348,-2.0857,-2.1111,-2.1335,-2.162,-2.1964,-2.2173,-2.1994,-2.2248,-2.2458,-2.2263,-2.1901,-2.1432,-2.0764,-1.9767,-1.8808,-1.814,-1.7549,-1.7046,-1.6577,-1.6522,-1.6522,-1.6522,-1.6095,-1.5864,-1.5864,-1.5287,-1.4971,-1.4971,-1.4376,-1.4236,-1.4698,-1.4283,-1.4236,-1.4709,-1.4698,-1.4468,-1.405,-1.3862,-1.36,-1.3152,-1.2968,-1.2881,0.0,0.0,-3.4766,-3.8658,-4.1132,-4.2946,-4.4246,-4.5168,-4.5773,-4.5847,-4.5865,-4.5865,-4.5865,-4.5259,-4.4745,-4.4709,-4.4709,-4.4433,-4.3644,-4.4195,-4.4378,-4.3589,-4.3497,-4.3497,0.0,-4.3497,-4.3497,-4.3497,-4.3497,-4.3497,-4.3497,-4.3497,-4.3497,-4.3497,-4.3497,-4.3497,-4.3497,-4.3497,-4.3497,-4.3497,-4.3461,-4.3039,-4.2231,-4.0888,-3.9193,-3.7268,-3.6676,-3.5277,-3.3372,-3.3372,-3.251,-3.1157,-3.1157,-3.0277,-2.8975,-2.8924,-2.7777,-2.6022,-2.4644,-2.3484,-2.2559,-2.1889,-2.168,-2.1665,-2.1665,-2.1665,-2.1665,-2.1635,-2.1635,-2.1635,-2.1665,-2.2143,-2.2499,-2.1844,-2.2637,-2.337,-2.2787,-2.364,-2.4343,-2.367,-2.3535,-2.334,-2.2727,-2.1645,-2.0577,-1.9904,-1.9359,-1.8397,-1.6701,-1.6522,-1.6522,-1.6522,-1.6466,-1.6466,-1.6466,-1.5908,-1.5588,-1.5588,-1.5017,-1.4698,-1.4698,-1.4698,-1.4698,-1.4698,-1.4698,-1.4709,-1.4652,-1.4097,-1.3779,-1.3779,-1.3152,-1.2881,0.0,0.0,-3.8475,-4.1501,-4.3143,-4.4426,-4.5938,-4.6104,-4.6049,-4.6599,-4.5297,-4.3889,-4.3359,-4.3013,-4.2831,-4.2831,-4.3887,-4.4617,-4.4342,-4.4984,-4.5002,-4.3644,-4.3975,0.0,0.0,0.0,0.0,-4.3497,-4.3497,-4.3497,-4.3497,-4.3497,-4.3497,-4.3497,-4.3497,-4.3497,-4.3497,-4.3497,-4.3497,-4.3479,-4.2947,-4.2561,-4.2268,-4.1275,-4.0154,-3.8982,-3.8142,-3.6742,-3.5074,-3.4421,-3.3541,-3.2662,-3.2662,-3.2357,-3.185,-3.136,-3.0573,-2.9468,-2.7535,-2.6115,-2.5145,-2.4925,-2.4276,-2.3473,-2.3077,-2.2667,-2.2263,-2.1814,-2.2009,-2.2565,-2.3366,-2.3743,-2.4101,-2.4759,-2.4894,-2.4881,-2.4672,-2.4971,-2.5211,-2.4971,-2.4582,-2.4073,-2.34,-2.2348,-2.1081,-1.9583,-1.8549,-1.7689,-1.7102,-1.671,-1.6522,-1.6522,-1.6522,-1.6522,-1.6522,-1.6324,-1.6194,-1.6194,-1.5644,-1.5466,-1.5888,-1.5511,-1.5511,-1.5876,-1.5876,-1.57,-1.5276,-1.5084,-1.4778,-1.4376,-1.3789,-1.3515,-3.6674,-3.8972,-4.0939,-4.3995,-4.5186,-4.5847,-4.6874,-4.6709,-4.6159,-4.5535,-4.3944,-4.2232,-4.0866,-4.0611,-4.0721,-4.1012,-4.2626,-4.3938,-4.4232,-4.5204,-4.5516,-4.447,-4.4819,0.0,0.0,0.0,0.0,-4.3534,-4.3754,-4.392,-4.392,-4.4195,-4.4232,-4.3938,-4.392,-4.3791,-4.3497,-4.3497,-4.3497,-4.3479,-4.2983,-4.2727,-4.2708,-4.2194,-4.1311,-4.0147,-3.9238,-3.7866,-3.6237,-3.5266,-3.4455,-3.3795,-3.3795,-3.3643,-3.3339,-3.2865,-3.2454,-3.1807,-2.9173,-2.7648,-2.6757,-2.6329,-2.5446,-2.4502,-2.4371,-2.3879,-2.334,-2.3146,-2.34,-2.3891,-2.4716,-2.494,-2.5167,-2.5955,-2.6091,-2.5959,-2.5959,-2.6153,-2.6303,-2.6303,-2.5779,-2.5121,-2.4433,-2.3126,-2.1797,-2.0552,-1.9363,-1.8275,-1.7406,-1.6993,-1.671,-1.6522,-1.6522,-1.6522,-1.6522,-1.6522,-1.6609,-1.681,-1.6446,-1.6487,-1.7067,-1.6729,-1.6729,-1.7124,-1.7124,-1.6933,-1.6536,-1.6104,-1.568,-1.528,-1.4499,-1.4003,-3.9798,-4.1251,-4.2341,-4.6214,-4.715,-4.7113,-4.7113,-4.6985,-4.6012,-4.2928,-4.1898,-4.0868,0.0,0.0,-3.8522,-3.9319,-4.1162,-4.2745,-4.3516,-4.5039,-4.6067,0.0,0.0,0.0,0.0,0.0,0.0,-4.3791,0.0,-4.4764,-4.4764,-4.5498,-4.5535,-4.4745,-4.4709,-4.4305,-4.3497,-4.3497,-4.3497,-4.3497,-4.3497,-4.3497,-4.3497,-4.3497,-4.2504,-4.0712,-3.9984,-3.8604,-3.6818,-3.5994,-3.5284,-3.4658,-3.4624,-3.4201,-3.3643,-3.3643,-3.3643,-3.3178,-2.9837,-2.8367,-2.7687,-2.632,-2.5439,-2.5018,-2.5511,-2.5242,-2.4852,-2.5511,-2.5674,-2.5719,-2.5828,-2.5826,-2.5794,-2.5811,-2.6276,-2.6677,-2.6647,-2.7126,-2.7625,-2.7625,-2.7036,-2.6378,-2.5674,-2.4014,-2.2798,-2.2724,-2.1745,-2.0144,-1.7745,-1.7419,-1.7196,-1.6645,-1.6584,-1.6609,-1.6609,-1.6609,-1.6835,-1.7388,-1.7426,-1.7664,-1.8179,-1.8204,-1.8204,-1.8204,-1.8204,-1.8204,-1.8204,-1.7058,-1.6501,-1.6443,-1.536,-1.4523,-4.2862,-4.4636,-4.5975,-4.759,-4.7553,-4.7113,-4.7113,-4.5259,-4.3296,-4.247,-3.9553,-3.7,0.0,0.0,0.0,-3.854,-4.2187,0.0,-4.5259,-4.7223,0.0,0.0,0.0,-4.8159,-4.6929,-4.6801,0.0,0.0,-4.5828,-4.559,-4.559,-4.5792,-4.5535,-4.4745,-4.4709,-4.4305,-4.3497,-4.3497,-4.3497,-4.3497,-4.3497,-4.3497,-4.3497,-4.3497,-4.2668,-4.1166,-4.0655,-3.9568,-3.8074,-3.6939,-3.6705,-3.6992,-3.6417,-3.6417,-3.6755,-3.6755,-3.6755,-3.6409,-3.3942,-3.2562,-3.1686,-3.0347,-2.9459,-2.8683,-2.7378,-2.6549,-2.6164,-2.6887,-2.7096,-2.7403,-2.8858,-2.8935,-2.8583,-2.8492,-2.8273,-2.7949,-2.7425,-2.7505,-2.7625,-2.7625,-2.7036,-2.6228,-2.5076,-2.4462,-2.3804,-2.2817,-2.2435,-2.1498,-1.9506,-1.8888,-1.8434,-1.7822,-1.7785,-1.7777,-1.7777,-1.7777,-1.784,-1.799,-1.8003,-1.8053,-1.8191,-1.8204,-1.8204,-1.8204,-1.8204,-1.8204,-1.8204,-1.79,-1.7731,-1.7718,-1.6991,-1.6314,-4.5077,-4.6434,-4.7297,-4.8104,-4.7719,-4.6709,-4.5205,-4.3175,-4.1016,-3.878,-3.6172,0.0,0.0,0.0,0.0,0.0,0.0,0.0,-4.57,-4.77,-4.9114,0.0,-4.9829,0.0,-4.8838,-4.8728,-4.8728,0.0,-4.7627,-4.6948,-4.6948,-4.7315,-4.6985,-4.581,-4.5424,-4.4672,-4.3497,-4.3497,-4.3497,-4.3497,-4.3497,-4.3497,-4.3497,-4.3497,-4.2814,-4.1529,0.0,-3.9974,-3.8699,-3.7691,-3.7533,-3.7872,-3.7432,-3.7533,-3.7905,-3.7905,-3.7905,-3.7739,-3.6496,-3.5769,-3.4947,-3.234,-3.105,-3.0359,-2.9559,-2.8807,-2.8397,-2.8794,-2.8904,-2.9189,-3.0272,-3.0043,-2.9674,-2.9909,-2.9276,-2.8502,-2.8113,-2.7784,-2.7625,-2.7625,-2.7036,-2.6363,-2.5615,-2.5016,-2.4373,-2.364,-2.3266,-2.2629,-2.1318,-2.0401,-1.9574,-1.8693,-1.8882,-1.8819,-1.8251,-1.8461,-1.8597,-1.8543,-1.8568,-1.8668,-1.8894,-1.8907,-1.8907,-1.8907,-1.8907,-1.8907,-1.8907,-1.8681,-1.8568,-1.8568,-1.7957,-1.7363,-4.6966,-4.7517,-4.759,-4.8159,-4.7535,-4.592,-4.2721,-4.1045,-3.8882,-3.4297,0.0,-3.2166,-3.1114,0.0,-3.4008,-3.5957,0.0,-4.2396,-4.5608,-4.7462,-4.9095,-5.0765,-5.1059,-5.1077,-5.0967,-5.0967,-5.0967,-5.0967,-4.9517,-4.86,-4.8489,-4.9187,-4.882,-4.713,-4.6232,-4.5076,-4.3663,-4.3534,-4.3497,-4.3497,-4.341,-4.341,-4.341,-4.3321,-4.2678,-4.1629,-4.0983,0.0,-3.9089,-3.8345,-3.8108,-3.8176,-3.8091,-3.8108,-3.8193,-3.8193,-3.8193,-3.8176,-3.8091,-3.8058,-3.7376,-3.342,-3.1707,-3.1207,-3.1454,-3.1166,-3.0733,-3.0851,-3.0853,-3.0869,-3.0963,-3.0508,-3.0114,-3.0474,-2.9681,-2.8801,-2.8637,-2.8128,-2.7709,-2.7709,-2.7245,-2.6797,-2.6617,-2.5644,-2.4837,-2.4612,-2.4118,-2.3505,-2.2877,-2.185,-2.0713,-1.9553,-1.9901,-1.9746,-1.8643,-1.8921,-1.9175,-1.9095,-1.9133,-1.9334,-1.9786,-1.9798,-1.9798,-1.9798,-1.9798,-1.9798,-1.9798,-1.9346,-1.9133,-1.9071,-1.8643,-1.8067,-4.9682,-4.9664,-4.9022,-4.8453,-4.6709,-4.4546,-4.2412,-3.9261,0.0,0.0,0.0,-3.107,-3.1882,-3.3207,0.0,-3.7778,0.0,0.0,0.0,0.0,-4.9958,0.0,0.0,0.0,0.0,0.0,0.0,0.0,0.0,-5.0086,-4.9407,-4.9499,-4.882,-4.713,-4.5681,-4.4782,-4.4488,-4.3828,-4.3497,-4.3479,-4.305,-4.2826,-4.2808,-4.2324,-4.169,-4.1024,-4.0948,0.0,-3.9834,-3.9106,-3.9157,-3.9648,-3.9039,-3.9174,-3.9698,-3.9698,-3.9698,-3.9614,-3.9005,-3.8802,-3.84,-3.5745,-3.4431,-3.3631,-3.1958,-3.1394,-3.1486,-3.2059,-3.2251,-3.2394,-3.2918,-3.2572,-3.1835,-3.0779,-3.0348,-2.9879,-2.8831,-2.8502,-2.8427,-2.8427,-2.8323,-2.7904,-2.6782,-2.6408,-2.5884,-2.4792,-2.4477,-2.4208,-2.3535,-2.2849,-2.2087,-2.1323,-2.0912,-2.0603,-2.0358,-1.9962,-1.9649,-1.966,-1.966,-1.971,-1.9798,-1.9798,-1.9798,-1.9798,-1.9798,-1.9798,-1.9798,-1.971,-1.966,-1.966,-1.9572,-1.9246,-4.9829,-4.9884,-4.937,-4.8526,-4.6177,-4.3245,-3.9979,0.0,0.0,0.0,0.0,-2.9213,-2.9978,0.0,0.0,0.0,0.0,0.0,0.0,0.0,0.0,0.0,0.0,0.0,0.0,0.0,0.0,0.0,0.0,-5.1518,-5.0288,-4.9389,-4.8361,-4.715,-4.6361,-4.5755,-4.5333,-4.4236,-4.3706,-4.3706,-4.2699,-4.2203,-4.2203,-4.1937,-4.149,-4.0903,-4.0903,0.0,-4.0054,-3.9698,-3.9766,-4.0037,-3.9698,-3.9766,-4.007,-4.007,-4.007,-4.002,-3.9681,-3.9546,-3.9311,-3.7814,-3.6355,-3.4972,-3.3949,-3.3168,-3.2654,-3.304,-3.3136,-3.3267,-3.3956,-3.3633,-3.2945,-3.2282,-3.1271,-3.0253,-2.931,-2.9116,-2.9116,-2.9116,-2.9116,-2.8801,-2.7814,-2.7335,-2.6767,-2.5794,-2.536,-2.4896,-2.4223,-2.3866,-2.3332,-2.232,-2.2221,-2.1866,-2.0894,-2.0769,-2.0521,-1.985,-1.9798,-1.9798,-1.9798,-1.9798,-1.9798,-1.9798,-1.9798,-1.9798,-1.9798,-1.9798,-1.9798,-1.9798,-1.9798,-1.966,-4.9517,-4.9719,-4.937,-4.8526,-4.5755,-4.2093,-3.779,-3.479,0.0,0.0,-2.7824,-2.7842,-2.8284,0.0,0.0,0.0,0.0,0.0,0.0,0.0,0.0,0.0,0.0,0.0,0.0,0.0,0.0,0.0,0.0,0.0,-5.0875,-4.9224,-4.8012,-4.7388,-4.7205,-4.6819,-4.6159,-4.4762,-4.3984,-4.3888,-4.2478,-4.1707,-4.1621,-4.1508,-4.1196,-4.075,-4.075,0.0,0.0,-4.007,-4.007,-4.007,-4.007,-4.007,-4.007,-4.007,-4.007,-4.007,-4.007,-4.007,-3.9969,-3.9139,-3.7656,-3.6157,-3.5768,-3.4807,-3.3822,-3.365,-3.3591,-3.3735,-3.4235,-3.3987,-3.3582,-3.3443,-3.2028,-3.0624,-3.0128,-2.9879,-2.9774,-2.9774,-2.9774,-2.952,-2.8742,-2.8143,-2.7515,-2.6707,-2.6153,-2.5585,-2.4881,-2.4791,-2.4446,-2.3445,-2.3363,-2.2756,-2.1113,-2.1293,-2.1002,-1.985,-1.9798,-1.9798,-1.9798,-1.9798,-1.9798,-1.9798,-1.9798,-1.9798,-1.9798,-1.9798,-1.9798,-1.9798,-1.9798,-1.9798,-5.001,-5.016,-4.937,-4.8526,-4.5333,-4.1434,-3.7667,0.0,0.0,-2.9246,-2.821,-2.8,-2.9005,-2.9312,0.0,0.0,0.0,0.0,0.0,0.0,0.0,0.0,0.0,0.0,0.0,0.0,0.0,0.0,0.0,0.0,-5.0857,-4.9224,-4.8269,-4.8196,-4.7498,-4.7039,-4.7003,-4.5443,-4.4381,-4.3888,-4.2478,-4.1534,-4.0949,-4.0466,-4.0204,-4.0154,-4.0154,0.0,0.0,-4.007,-4.007,-4.007,-4.007,-4.007,-4.007,-4.007,-4.007,-4.007,-4.007,-4.007,-3.9969,-3.9139,-3.8418,-3.7531,-3.6032,-3.5117,-3.4452,-3.3716,-3.3534,-3.3582,-3.3684,-3.3633,-3.3443,-3.2841,-3.2075,-3.1467,-3.1339,-3.0866,-3.0417,-3.0417,-3.0417,-3.0028,-2.8816,-2.8547,-2.8068,-2.6782,-2.6542,-2.6258,-2.56,-2.5525,-2.5448,-2.5342,-2.3816,-2.2452,-2.1663,-2.1161,-2.0597,-1.985,-1.9798,-1.9798,-1.9798,-1.9798,-1.9798,-1.9798,-1.9798,-1.9798,-1.9798,-1.9798,-1.9798,-1.9798,-1.9798,-1.9798,-4.843,-4.9444,-4.926,-4.7921,-4.4562,-4.061,-3.6924,0.0,0.0,-2.8611,-2.7912,-2.7818,-2.8253,-2.8352,-2.893,-3.0805,0.0,0.0,0.0,0.0,0.0,0.0,0.0,0.0,0.0,0.0,0.0,0.0,0.0,0.0,-5.0839,-4.9701,-4.8838,-4.8324,-4.7229,-4.6812,-4.7284,-4.4993,-4.3944,-4.4177,-4.2298,-4.1329,-4.1083,-4.0408,-4.007,-4.007,-4.007,0.0,0.0,-4.007,-4.007,-4.007,-4.007,-4.007,-4.007,-4.007,-4.007,-4.007,-4.007,-3.9782,-3.942,-3.9558,-3.8797,-3.7592,-3.6056,-3.4824,-3.4083,-3.4675,-3.4211,-3.3824,-3.5153,-3.4526,-3.3474,-3.3215,-3.2348,-3.152,-3.1537,-3.1315,-3.112,-3.112,-3.112,-3.0821,-2.9909,-2.9744,-2.9295,-2.7993,-2.7799,-2.741,-2.6333,-2.6198,-2.6048,-2.5644,-2.4534,-2.3593,-2.2961,-2.2339,-2.1513,-2.0446,-2.0396,-2.0194,-1.9798,-1.9798,-1.9798,-1.9798,-1.9798,-1.9798,-1.9798,-1.9798,-1.9798,-1.9798,-1.9798,-1.9798,-4.57,-4.748,-4.8214,-4.7058,-4.3518,-3.9502,0.0,0.0,0.0,-2.8053,-2.7701,-2.7701,-2.7701,-2.7701,-2.7964,-2.8741,0.0,-3.1227,0.0,0.0,0.0,0.0,0.0,0.0,0.0,0.0,0.0,0.0,0.0,0.0,-5.0839,-5.0031,-4.9148,-4.8072,-4.6946,-4.6593,-4.7088,-4.4953,-4.406,-4.4383,-4.2637,-4.1716,-4.1508,-4.0984,-4.0612,-4.0409,-4.0409,0.0,0.0,-4.007,-4.007,-4.007,-4.007,-4.007,-4.007,-4.007,-4.007,-4.007,-4.007,-3.9558,-3.8962,-3.9332,-3.8541,-3.7184,-3.5936,-3.4866,-3.4273,-3.5127,-3.4613,-3.4232,-3.5926,-3.5256,-3.4082,-3.3841,-3.3062,-3.2312,-3.2108,-3.2108,-3.2063,-3.1795,-3.1824,-3.1539,-3.0657,-3.0507,-3.0133,-2.9056,-2.8891,-2.8472,-2.7335,-2.7186,-2.6931,-2.6258,-2.542,-2.4486,-2.3502,-2.2962,-2.2081,-2.0597,-2.0696,-2.0497,-1.985,-1.9798,-1.9798,-1.9798,-1.9798,-1.9798,-1.9798,-1.9798,-1.9798,-1.9798,-1.9798,-1.9798,-4.1732,-4.4103,-4.592,-4.592,-4.2132,-3.7936,0.0,0.0,0.0,-2.7918,-2.7701,-2.7701,-2.7701,-2.7701,-2.7935,-2.8679,-3.0317,0.0,0.0,0.0,0.0,0.0,0.0,0.0,0.0,0.0,0.0,0.0,0.0,0.0,-5.0839,-5.0031,-4.8912,-4.7464,-4.6756,-4.6413,-4.643,-4.5587,-4.4935,-4.4401,-4.3588,-4.2859,-4.2286,-4.2269,-4.188,0.0,0.0,0.0,0.0,-4.007,-4.007,-4.007,-4.007,-4.007,-4.007,-4.007,-4.007,-4.007,-4.007,-3.9558,-3.8799,-3.8035,-3.7263,-3.6492,-3.5718,-3.552,-3.5413,-3.4693,-3.4471,-3.467,-3.5529,-3.5655,-3.5379,-3.467,-3.4496,-3.4263,-3.3638,-3.3469,-3.3275,-3.2632,-3.2497,-3.2078,-3.0731,-3.0507,-3.0298,-2.9669,-2.9564,-2.9325,-2.8667,-2.8577,-2.8308,-2.7619,-2.6378,-2.4831,-2.2853,-2.2715,-2.188,-1.994,-2.0446,-2.0497,-1.985,-1.9798,-1.9798,-1.9798,-1.9798,-1.9798,-1.9798,-1.9798,-1.9798,-1.9798,-1.9798,-1.9798,-3.6313,-3.8238,-3.9613,-3.9067,-3.6912,-3.4576,-3.3234,0.0,0.0,-2.7918,-2.7701,-2.7701,-2.7701,-2.7701,-2.8388,-3.0442,-3.1657,0.0,0.0,0.0,0.0,0.0,0.0,0.0,0.0,0.0,0.0,0.0,0.0,0.0,-4.9528,-4.8283,-4.7529,-4.7403,-4.6284,-4.5693,-4.5765,-4.4595,-4.4144,-4.4548,-4.371,-4.2991,-4.2269,-4.1779,-4.1153,0.0,0.0,0.0,0.0,-4.007,-4.007,-4.007,-4.007,-4.007,-4.007,-4.007,-4.007,-4.007,-4.007,-3.9558,-3.8854,-3.8635,-3.7658,-3.6554,-3.6337,-3.5902,-3.5359,-3.4655,-3.5201,-3.5796,-3.5063,-3.485,-3.479,-3.4561,-3.4137,-3.3759,-3.3546,-3.3499,-3.3305,-3.2647,-3.2512,-3.2243,-3.136,-3.121,-3.0986,-3.0313,-3.0223,-2.9819,-2.8742,-2.8607,-2.8338,-2.7685,-2.6393,-2.5369,-2.4754,-2.3453,-2.2452,-2.1833,-2.1175,-2.0696,-2.0497,-2.0055,-1.9798,-1.9798,-1.9798,-1.9798,-1.9798,-1.9798,-1.9798,-1.9798,-1.9798,-1.9798,0.0,-3.4026,-3.5426,-3.4907,-3.331,0.0,0.0,0.0,0.0,-2.7414,-2.7508,-2.7701,-2.7701,-2.7672,-2.8205,-2.9849,-3.1667,0.0,0.0,0.0,0.0,0.0,0.0,0.0,0.0,0.0,0.0,0.0,0.0,0.0,-4.8444,-4.7254,-4.6604,-4.6699,-4.5589,-4.506,-4.5178,-4.4283,-4.4096,-4.457,-4.4079,-4.3453,-4.2709,-4.2252,-4.1474,0.0,0.0,0.0,0.0,-4.007,-4.007,-4.007,-4.007,-4.007,-4.007,-3.9782,-3.9662,-3.961,-3.9332,-3.869,-3.8044,-3.8044,-3.7188,-3.6165,-3.6165,-3.5831,-3.5464,-3.5301,-3.5719,-3.6073,-3.5474,-3.5085,-3.4861,-3.4861,-3.4547,-3.4247,-3.4247,-3.4247,-3.4053,-3.338,-3.3051,-3.2677,-3.2018,-3.1704,-3.139,-3.0956,-3.0896,-3.0507,-2.946,-2.9116,-2.8712,-2.8038,-2.6782,-2.5974,-2.5974,-2.419,-2.274,-2.2035,-2.1704,-2.1175,-2.0446,-2.0245,-2.0055,-1.9798,-1.9798,-1.9798,-1.9798,-1.9798,-1.9798,-1.9798,-1.9798,-1.9798,0.0,-3.091,0.0,0.0,0.0,0.0,0.0,0.0,0.0,0.0,0.0,0.0,-2.7771,-2.7694,-2.7674,-2.7923,-3.0942,0.0,0.0,0.0,0.0,0.0,0.0,0.0,0.0,0.0,0.0,0.0,0.0,0.0,-4.759,-4.6729,-4.6014,-4.5459,-4.4906,-4.4587,-4.4587,-4.4587,-4.4587,-4.4587,-4.4519,-4.4096,-4.3335,-4.3284,-4.2489,0.0,0.0,0.0,0.0,-4.007,-4.007,-4.007,-4.007,-4.007,-4.002,-3.9209,-3.8908,-3.8799,-3.8035,-3.7338,-3.6676,-3.6615,-3.6117,-3.5504,-3.5504,-3.5504,-3.5604,-3.6337,-3.6054,-3.5683,-3.6337,-3.6006,-3.5504,-3.5504,-3.5504,-3.5504,-3.5504,-3.5504,-3.5295,-3.4607,-3.3978,-3.3335,-3.2632,-3.2003,-3.1526,-3.1482,-3.1482,-3.1285,-3.0597,-2.9968,-2.9325,-2.8667,-2.7395,-2.6587,-2.6587,-2.4746,-2.2873,-2.1193,-2.2016,-2.1785,-2.0093,-2.0446,-2.0446,-1.9901,-1.9798,-1.9798,-1.9798,-1.9798,-1.9798,-1.9798,-1.9798,-1.9798,-2.4388,0.0,-2.6402,-2.6402,-2.5941,0.0,0.0,0.0,0.0,0.0,0.0,0.0,0.0,0.0,0.0,0.0,0.0,0.0,0.0,0.0,0.0,0.0,0.0,0.0,0.0,0.0,0.0,0.0,0.0,-4.6881,-4.6199,-4.5463,-4.4944,-4.4814,-4.4682,-4.4587,-4.4587,-4.4587,-4.4587,-4.457,-4.3978,-4.3301,-4.254,-4.1982,-4.1221,0.0,0.0,0.0,-4.007,-4.007,-4.007,-4.007,-4.007,-4.007,-4.002,-3.9209,-3.8908,-3.8799,-3.8035,-3.7706,-3.7397,-3.6783,-3.6117,-3.5504,-3.5504,-3.5504,-3.5569,-3.5733,-3.5604,-3.5569,-3.5733,-3.5619,-3.5504,-3.5504,-3.5504,-3.5504,-3.5504,-3.5504,-3.5295,-3.4607,-3.4352,-3.3873,-3.2706,-3.2392,-3.2108,-3.1556,-3.1482,-3.1285,-3.0597,-2.9968,-2.9325,-2.8667,-2.7395,-2.6587,-2.6587,-2.4776,-2.3708,-2.3708,-2.2144,-2.1465,-2.1974,-2.072,-2.0207,-2.0547,-2.0055,-1.9798,-1.9798,-1.9798,-1.9798,-1.9798,-1.9798,-1.9798,-2.3095,-2.3681,-2.4304,-2.4304,-2.4304,-2.4532,0.0,0.0,0.0,0.0,0.0,0.0,0.0,0.0,0.0,0.0,0.0,0.0,0.0,0.0,0.0,0.0,0.0,0.0,0.0,0.0,0.0,0.0,0.0,-4.5917,-4.5196,-4.4807,-4.4587,-4.4587,-4.4587,-4.4587,-4.4587,-4.4215,-4.4215,-4.457,-4.3436,-4.2692,-4.2269,-4.1542,-4.0798,0.0,0.0,0.0,-4.007,-4.007,-4.007,-4.007,-4.007,-3.9885,-3.9437,-3.8707,-3.8173,-3.7758,-3.6995,-3.6707,-3.6662,-3.6243,-3.5846,-3.5504,-3.5504,-3.5504,-3.5504,-3.5504,-3.5504,-3.5504,-3.5504,-3.5504,-3.5504,-3.5504,-3.5504,-3.5504,-3.5504,-3.5504,-3.5385,-3.5026,-3.4696,-3.4158,-3.314,-3.2706,-3.2287,-3.1571,-3.1482,-3.1405,-3.1031,-3.0163,-2.9445,-2.9086,-2.7844,-2.7036,-2.7036,-2.579,-2.4938,-2.4643,-2.3079,-2.2166,-2.2263,-2.1247,-2.072,-2.0795,-2.0144,-1.9798,-1.9798,-1.9798,-1.9798,-1.9798,-1.9798,-1.9798,-2.326,-2.397,-2.4654,-2.4374,-2.4392,-2.4515,-2.4638,0.0,0.0,0.0,0.0,0.0,0.0,0.0,0.0,0.0,0.0,0.0,0.0,0.0,0.0,0.0,0.0,0.0,0.0,0.0,0.0,0.0,0.0,-4.5263,-4.4604,-4.4587,-4.4587,-4.4587,-4.4587,-4.4519,-4.4401,-4.3859,-4.3927,-4.4553,-4.3031,-4.2286,-4.2252,-4.1424,-4.0679,-4.007,0.0,0.0,-4.007,-4.007,-4.007,-4.007,-4.007,-3.961,-3.8799,-3.8092,-3.7279,-3.6492,-3.5782,-3.5504,-3.5504,-3.5504,-3.5504,-3.5504,-3.5504,-3.5504,-3.5504,-3.5504,-3.5504,-3.5504,-3.5504,-3.5504,-3.5504,-3.5504,-3.5504,-3.5504,-3.5504,-3.5504,-3.5504,-3.5504,-3.4951,-3.4262,-3.3604,-3.2946,-3.2287,-3.1571,-3.1482,-3.1482,-3.1482,-3.0477,-2.9684,-2.9594,-2.8472,-2.7679,-2.7625,-2.7066,-2.6287,-2.5209,-2.4336,-2.3251,-2.1859,-2.1931,-2.1582,-2.0646,-2.0207,-1.9901,-1.9798,-1.9798,-1.9798,-1.9798,-1.9798,-1.9798,-2.3927,-2.5322,-2.6224,-2.4689,-2.4769,-2.5419,0.0,0.0,0.0,0.0,0.0,0.0,0.0,0.0,0.0,0.0,0.0,0.0,0.0,0.0,0.0,0.0,0.0,0.0,0.0,0.0,0.0,0.0,0.0,-4.4705,-4.4587,-4.4587,-4.4587,-4.4587,-4.4587,-4.4265,-4.3606,-4.413,-4.4468,-4.4553,-4.3031,-4.2286,-4.2236,-4.0865,-4.0189,-4.007,0.0,-4.007,-4.007,-4.007,-4.007,-4.007,-4.007,-3.961,-3.8799,-3.8092,-3.7279,-3.6492,-3.5782,-3.5504,-3.5504,-3.5504,-3.5504,-3.5504,-3.5504,-3.5504,-3.5504,-3.5504,-3.5504,-3.5504,-3.5504,-3.5504,-3.5504,-3.5504,-3.5504,-3.5504,-3.5504,-3.5504,-3.5504,-3.5504,-3.4951,-3.4262,-3.3604,-3.2946,-3.2287,-3.1571,-3.1482,-3.1482,-3.1482,-3.0851,-3.0163,-2.9639,-2.8906,-2.8203,-2.767,-2.7535,-2.7365,-2.716,-2.5497,-2.3738,-2.1885,-2.2811,-2.2297,-2.0016,-2.0396,-2.0346,-1.9798,-1.9798,-1.9798,-1.9798,-1.9798,-1.9798,-2.359,-2.4925,-2.6118,-2.5835,-2.6712,-2.7665,0.0,0.0,0.0,0.0,0.0,0.0,0.0,0.0,0.0,0.0,0.0,0.0,0.0,0.0,0.0,0.0,0.0,0.0,0.0,0.0,0.0,0.0,0.0,0.0,-4.4587,-4.4587,-4.4384,-4.3961,-4.3944,-4.3589,-4.2811,-4.3166,-4.3352,-4.3318,-4.1813,-4.1305,-4.166,-4.0578,-4.007,-4.007,0.0,-4.007,-4.007,-4.007,-3.9833,-3.9437,-3.9437,-3.8745,-3.7584,-3.6814,-3.6305,-3.5943,-3.5619,-3.5504,-3.5504,-3.5504,-3.5504,-3.5504,-3.5504,-3.5504,-3.5504,-3.5504,-3.5504,-3.5504,-3.5504,-3.5504,-3.5504,-3.5504,-3.5504,-3.5504,-3.5504,-3.5504,-3.5504,-3.5504,-3.525,-3.4696,-3.3679,-3.3245,-3.2706,-3.1689,-3.1482,-3.1482,-3.1482,-3.0926,-3.0387,-3.0118,-2.9505,-2.8861,-2.8188,-2.8128,-2.7712,-2.6615,-2.5683,-2.4447,-2.2831,-2.3027,-2.2413,-2.0811,-2.0817,-2.0446,-1.9798,-1.9798,-1.9798,-1.9798,-1.9798,-1.9798,-2.3404,-2.4494,-2.5808,-2.6791,0.0,0.0,0.0,0.0,0.0,0.0,0.0,0.0,0.0,0.0,0.0,0.0,0.0,0.0,0.0,0.0,0.0,0.0,0.0,0.0,0.0,0.0,0.0,0.0,0.0,0.0,-4.4316,-4.4316,-4.3961,-4.3183,-4.3149,-4.2794,-4.2049,-4.2033,-4.2117,-4.2269,-4.0967,-4.0646,-4.117,-4.0426,-4.007,-4.007,-4.007,-4.007,-4.007,-4.007,-3.961,-3.8908,-3.8908,-3.7987,-3.6492,-3.5782,-3.5504,-3.5504,-3.5504,-3.5504,-3.5504,-3.5504,-3.5504,-3.5504,-3.5504,-3.5504,-3.5504,-3.5504,-3.5504,-3.5504,-3.5504,-3.5504,-3.5504,-3.5504,-3.5504,-3.5504,-3.5504,-3.5504,-3.5504,-3.5504,-3.537,-3.4891,-3.3694,-3.3365,-3.2871,-3.1704,-3.1482,-3.1482,-3.1482,-3.1076,-3.0687,-3.0522,-3.0088,-2.9475,-2.8667,-2.8607,-2.7877,-2.6221,-2.6083,-2.5473,-2.4133,-2.3504,-2.2807,-2.2123,-2.1266,-2.0612,-2.0245,-1.9964,-1.9901,-2.0055,-1.985,-1.9901,-2.4023,-2.4977,-2.5997,-2.6961,-2.7692,0.0,-3.2121,-3.2324,0.0,-3.4668,0.0,0.0,0.0,0.0,0.0,0.0,0.0,0.0,0.0,0.0,0.0,0.0,0.0,0.0,0.0,0.0,0.0,0.0,0.0,0.0,-4.3538,-4.3504,-4.3166,-4.2388,-4.2371,-4.2016,-4.1288,-4.1288,-4.1627,-4.2286,-4.1508,-4.1153,-4.117,-4.0426,-4.007,-4.007,-4.007,-4.007,-4.007,-4.007,-3.961,-3.8908,-3.8908,-3.7987,-3.6492,-3.5782,-3.5504,-3.5504,-3.5504,-3.5504,-3.5504,-3.5504,-3.5504,-3.5504,-3.5504,-3.5504,-3.5504,-3.5504,-3.5504,-3.5504,-3.5504,-3.5504,-3.5504,-3.5504,-3.5504,-3.5504,-3.5504,-3.5504,-3.5504,-3.5504,-3.4996,-3.4322,-3.3619,-3.2991,-3.2347,-3.1586,-3.1482,-3.1482,-3.1482,-3.1437,-3.121,-3.0567,-3.0462,-2.9939,-2.8697,-2.8607,-2.8278,-2.7494,-2.7449,-2.687,-2.5539,-2.4904,-2.4248,-2.3543,-2.1766,-2.1059,-2.1639,-2.0399,-2.0105,-2.0696,-2.0105,-2.0156,-2.3545,-2.508,-2.6823,-2.7767,-2.8989,0.0,0.0,-3.4546,-3.5775,-3.7003,0.0,0.0,0.0,0.0,0.0,0.0,0.0,0.0,0.0,0.0,0.0,0.0,0.0,0.0,0.0,0.0,0.0,0.0,0.0,0.0,-4.276,-4.2726,-4.2388,-4.1644,-4.1627,-4.1255,-4.051,-4.051,-4.0646,-4.0916,-4.0646,-4.051,-4.0493,-4.0206,-4.007,-4.007,-3.9558,-3.9368,-3.9315,-3.8887,-3.8189,-3.7408,-3.698,-3.6415,-3.5894,-3.5619,-3.5504,-3.5504,-3.5504,-3.5504,-3.5504,-3.5504,-3.5504,-3.5504,-3.5504,-3.5504,-3.5504,-3.5504,-3.5504,-3.5504,-3.5504,-3.5504,-3.5504,-3.5504,-3.5504,-3.5504,-3.5504,-3.5504,-3.5504,-3.5504,-3.5295,-3.4906,-3.4218,-3.3903,-3.3365,-3.2302,-3.2138,-3.2138,-3.2138,-3.1735,-3.1584,-3.1749,-3.1001,-3.0148,-2.928,-2.8831,-2.8308,-2.767,-2.7625,-2.7187,-2.6202,-2.5985,-2.5371,-2.4218,-2.3551,-2.2931,-2.23,-2.1459,-2.094,-2.0745,-2.0065,-1.9952,-2.3289,-2.4733,-2.6591,0.0,0.0,0.0,-3.4431,-3.6468,-3.8346,-3.9962,0.0,0.0,0.0,0.0,0.0,0.0,0.0,0.0,0.0,0.0,0.0,0.0,0.0,0.0,0.0,0.0,0.0,0.0,0.0,0.0,0.0,-4.1948,-4.161,-4.0882,-4.0849,-4.0595,-4.007,-4.007,-4.007,-4.007,-4.007,-4.007,-4.007,-4.007,-3.9952,-3.9662,-3.9139,-3.8745,-3.8525,-3.8035,-3.7338,-3.6554,-3.5782,-3.5504,-3.5504,-3.5504,-3.5504,-3.5504,-3.5504,-3.5504,-3.5504,-3.5504,-3.5504,-3.5504,-3.5504,-3.5504,-3.5504,-3.5504,-3.5504,-3.5504,-3.5504,-3.5504,-3.5504,-3.5504,-3.5504,-3.5504,-3.5504,-3.5504,-3.5504,-3.5504,-3.5504,-3.5295,-3.4592,-3.4472,-3.4098,-3.2991,-3.2826,-3.2826,-3.2826,-3.2243,-3.1943,-3.2183,-3.1375,-3.0567,-2.9924,-2.928,-2.8622,-2.7934,-2.7694,-2.7357,-2.6878,-2.6453,-2.6038,-2.5479,-2.4747,-2.4103,-2.3576,-2.2769,-2.2032,-2.1303,-2.0695,-2.0322,-2.3424,-2.3934,0.0,0.0,0.0,0.0,-3.6703,-3.8138,-3.9882,0.0,0.0,0.0,0.0,0.0,0.0,0.0,0.0,0.0,0.0,0.0,0.0,0.0,0.0,0.0,0.0,0.0,0.0,0.0,0.0,0.0,0.0,-4.1187,-4.0849,-4.0104,-4.007,-4.007,-4.007,-4.007,-4.007,-4.007,-4.007,-4.007,-4.007,-4.007,-3.9662,-3.8908,-3.8908,-3.8469,-3.7822,-3.7764,-3.7338,-3.6492,-3.5782,-3.5504,-3.5504,-3.5504,-3.5504,-3.5504,-3.5504,-3.5504,-3.5504,-3.5504,-3.5504,-3.5504,-3.5504,-3.5504,-3.5504,-3.5504,-3.5504,-3.5504,-3.5504,-3.5504,-3.5504,-3.5504,-3.5504,-3.5504,-3.5504,-3.5504,-3.5504,-3.5504,-3.5504,-3.5295,-3.4607,-3.4487,-3.4262,-3.3604,-3.3499,-3.3499,-3.3484,-3.2931,-3.2273,-3.1541,-3.1482,-3.127,-3.0567,-2.9939,-2.9295,-2.8637,-2.7949,-2.7625,-2.7625,-2.6337,-2.6257,-2.756,-2.5077,-2.4329,-2.5633,-2.4329,-2.3345,-2.2713,-2.2062,-2.1464,-2.3217,0.0,0.0,0.0,0.0,0.0,0.0,-4.0249,0.0,0.0,0.0,0.0,0.0,0.0,0.0,0.0,0.0,0.0,0.0,0.0,0.0,0.0,0.0,0.0,0.0,0.0,0.0,0.0,0.0,0.0,0.0,-4.0409,-4.0307,-4.0087,-4.007,-4.007,-4.007,-4.007,-4.007,-4.007,-3.9542,-3.9542,-4.007,-3.9489,-3.9139,-3.8854,-3.7758,-3.7128,-3.6919,-3.643,-3.6022,-3.5782,-3.5554,-3.5504,-3.5504,-3.5504,-3.5504,-3.5504,-3.5504,-3.5504,-3.5504,-3.5504,-3.5504,-3.5504,-3.5504,-3.5504,-3.5504,-3.5504,-3.5504,-3.5504,-3.5504,-3.5504,-3.5504,-3.5504,-3.5504,-3.5504,-3.5504,-3.5504,-3.5504,-3.5504,-3.5504,-3.5444,-3.5235,-3.519,-3.4981,-3.4277,-3.4188,-3.3844,-3.2916,-3.344,-3.329,-3.1646,-3.1943,-3.1764,-3.0597,-2.9939,-2.9295,-2.8637,-2.7949,-2.7625,-2.7625,-2.7214,-2.7199,-2.756,-2.6855,-2.6382,-2.6208,-2.4924,-2.3875,-2.3178,-2.2605,-2.1969,-2.3346,0.0,0.0,0.0,0.0,0.0,0.0,0.0,0.0,0.0,0.0,0.0,0.0,0.0,0.0,0.0,0.0,0.0,0.0,0.0,0.0,0.0,0.0,0.0,0.0,0.0,0.0,0.0,0.0,0.0,0.0,-4.007,-4.007,-4.007,-4.007,-4.007,-4.007,-4.007,-4.007,-4.007,-3.9262,-3.9139,-3.961,-3.8816,-3.8286,-3.793,-3.6676,-3.6165,-3.6117,-3.5668,-3.5504,-3.5504,-3.5504,-3.5504,-3.5504,-3.5504,-3.5504,-3.5504,-3.5504,-3.5504,-3.5504,-3.5504,-3.5504,-3.5504,-3.5504,-3.5504,-3.5504,-3.5504,-3.5504,-3.5504,-3.5504,-3.5504,-3.5504,-3.5504,-3.5504,-3.5504,-3.5504,-3.5504,-3.5504,-3.5504,-3.5504,-3.5504,-3.5504,-3.5504,-3.537,-3.4951,-3.4891,-3.4397,-3.308,-3.3589,-3.3425,-3.1719,-3.1884,-3.1794,-3.0986,-3.0313,-2.9669,-2.9026,-2.8353,-2.7859,-2.7625,-2.7625,-2.7625,-2.7625,-2.7625,-2.7357,-2.693,-2.583,-2.4801,-2.3851,-2.3501,-2.2843,0.0,0.0,0.0,0.0,0.0,0.0,0.0,0.0,0.0,0.0,0.0,0.0,0.0,0.0,0.0,0.0,0.0,0.0,0.0,0.0,0.0,0.0,0.0,0.0,0.0,0.0,0.0,0.0,0.0,0.0,0.0,-4.007,-4.007,-4.007,-4.007,-4.007,-4.007,-4.007,-4.007,-4.007,-3.9209,-3.8799,-3.8799,-3.8019,-3.7279,-3.643,-3.5782,-3.5504,-3.5504,-3.5504,-3.5504,-3.5504,-3.5504,-3.5504,-3.5504,-3.5504,-3.5504,-3.5504,-3.5504,-3.5504,-3.5504,-3.5504,-3.5504,-3.5504,-3.5504,-3.5504,-3.5504,-3.5504,-3.5504,-3.5504,-3.5504,-3.5504,-3.5504,-3.5504,-3.5504,-3.5504,-3.5504,-3.5504,-3.5504,-3.5504,-3.5504,-3.5504,-3.5504,-3.5504,-3.5504,-3.5504,-3.5444,-3.4951,-3.3664,-3.3499,-3.2991,-3.1616,-3.1526,-3.1541,-3.1482,-3.0851,-3.0178,-2.9609,-2.8906,-2.8233,-2.7655,-2.7625,-2.7625,-2.7625,-2.7625,-2.7625,-2.7625,-2.6878,-2.5824,-2.4595,-2.4595,-2.3878,0.0,0.0,0.0,0.0,0.0,0.0,0.0,0.0,0.0,0.0,0.0,0.0,0.0,0.0,0.0,0.0,0.0,0.0,0.0,0.0,0.0,0.0,0.0,0.0,0.0,0.0,0.0,0.0,0.0,0.0,-4.007,-4.007,-4.007,-4.007,-4.007,-4.007,-4.007,-4.007,-4.007,0.0,-3.8707,-3.8035,-3.8035,-3.7203,-3.6461,-3.5733,-3.5554,-3.5504,-3.5504,-3.5504,-3.5504,-3.5504,-3.5504,-3.5504,-3.5504,-3.5504,-3.5504,-3.5504,-3.5504,-3.5504,-3.5504,-3.5504,-3.5504,-3.5504,-3.5504,-3.5504,-3.5504,-3.5504,-3.5504,-3.5504,-3.5504,-3.5504,-3.5504,-3.5504,-3.5504,-3.5504,-3.5504,-3.5504,-3.5504,-3.5504,-3.5504,-3.5504,-3.5504,-3.5504,-3.5504,-3.5504,-3.504,-3.4397,-3.3604,-3.3499,-3.2991,-3.1616,-3.2003,-3.2093,-3.1511,-3.0447,-2.9729,-2.9594,-2.8457,-2.7724,-2.7625,-2.7625,-2.7625,-2.7625,-2.7625,-2.7625,-2.7625,-2.6878,-2.6037,-2.5191,-2.5191,-2.4399,0.0,0.0,0.0,0.0,0.0,0.0,0.0,0.0,0.0,0.0,0.0,0.0,0.0,0.0,0.0,0.0,0.0,0.0,0.0,0.0,0.0,0.0,0.0,0.0,0.0,0.0,0.0,0.0,0.0,-3.9039,-3.9039,-3.9377,-3.9546,-3.9546,-3.9901,-3.9918,-3.9563,-3.9546,-3.9323,-3.8989,-3.7785,-3.6867,-3.6226,-3.6152,-3.5831,-3.5504,-3.5504,-3.5504,-3.5504,-3.5504,-3.5504,-3.5504,-3.5504,-3.5504,-3.5504,-3.5504,-3.5504,-3.5504,-3.5504,-3.5504,-3.5504,-3.5504,-3.5504,-3.5504,-3.5504,-3.5504,-3.5504,-3.5504,-3.5504,-3.5504,-3.5504,-3.5504,-3.5504,-3.5504,-3.5504,-3.5504,-3.5504,-3.5504,-3.5504,-3.5504,-3.5504,-3.5504,-3.5504,-3.5504,-3.5504,-3.5504,-3.4921,-3.4247,-3.3589,-3.3215,-3.2647,-3.1586,-3.1839,-3.1898,-3.1497,-3.0911,-3.0253,-2.9624,-2.8921,-2.8248,-2.7655,-2.7625,-2.7625,-2.7625,-2.7625,-2.7625,-2.7625,-2.6878,-2.6122,-2.5398,-2.5398,-2.4781,0.0,0.0,0.0,0.0,0.0,0.0,0.0,0.0,0.0,0.0,0.0,0.0,0.0,0.0,0.0,0.0,0.0,0.0,0.0,0.0,0.0,0.0,0.0,0.0,0.0,0.0,0.0,0.0,0.0,-3.7905,-3.7905,-3.8481,-3.8802,-3.8802,-3.9394,-3.9361,-3.8638,-3.8581,-3.8179,-3.7462,-3.6632,-3.5569,-3.4322,-3.4891,-3.516,-3.516,-3.516,-3.522,-3.5325,-3.5325,-3.54,-3.5504,-3.5504,-3.5504,-3.5504,-3.5504,-3.5504,-3.5504,-3.5504,-3.5504,-3.5504,-3.5504,-3.5504,-3.5504,-3.5504,-3.5504,-3.5504,-3.5504,-3.5504,-3.5504,-3.5504,-3.5504,-3.5504,-3.5504,-3.5504,-3.5504,-3.5504,-3.5504,-3.5504,-3.5504,-3.5504,-3.5504,-3.5504,-3.5504,-3.5459,-3.534,-3.4741,-3.4068,-3.341,-3.2751,-3.2138,-3.1541,-3.1482,-3.1482,-3.1482,-3.1362,-3.0851,-2.9654,-2.9475,-2.8861,-2.767,-2.7625,-2.7625,-2.7625,-2.7625,-2.7625,-2.7625,-2.6982,-2.6336,-2.5563,-2.5563,-2.5175,0.0,0.0,0.0,0.0,0.0,0.0,0.0,0.0,0.0,0.0,0.0,0.0,0.0,0.0,0.0,0.0,0.0,0.0,0.0,0.0,0.0,0.0,0.0,0.0,0.0,0.0,0.0,0.0,-3.7973,-3.7905,-3.7905,-3.799,-3.8058,-3.8058,-3.8142,-3.7849,-3.7102,-3.7083,-3.6757,-3.6039,-3.5279,-3.4511,-3.3634,-3.3724,-3.3769,-3.3769,-3.3769,-3.4083,-3.4607,-3.4607,-3.4966,-3.5504,-3.5504,-3.5504,-3.5504,-3.5504,-3.5504,-3.5504,-3.5504,-3.5504,-3.5504,-3.5504,-3.5504,-3.5504,-3.5504,-3.5504,-3.5504,-3.5504,-3.5504,-3.5504,-3.5504,-3.5504,-3.5504,-3.5504,-3.5504,-3.5504,-3.5504,-3.5504,-3.5504,-3.5504,-3.5504,-3.5504,-3.5504,-3.5504,-3.5295,-3.4696,-3.4053,-3.338,-3.2736,-3.2078,-3.1571,-3.1482,-3.1482,-3.1482,-3.1482,-3.0986,-3.0342,-2.9624,-2.9041,-2.8382,-2.7655,-2.7625,-2.7625,-2.7625,-2.7625,-2.7625,-2.7625,-2.7509,-2.7086,-2.6336,-2.6336,-2.596,0.0,0.0,0.0,0.0,0.0,0.0,0.0,0.0,0.0,0.0,0.0,0.0,0.0,0.0,0.0,0.0,0.0,0.0,0.0,0.0,0.0,0.0,0.0,0.0,0.0,0.0,0.0,0.0,-3.6874,-3.662,-3.662,-3.7043,-3.728,-3.728,-3.7265,-3.6937,-3.6191,-3.5808,-3.5252,-3.4527,-3.378,-3.329,-3.2931,-3.2557,-3.2796,-3.3499,-3.3499,-3.3858,-3.4472,-3.4472,-3.4891,-3.5504,-3.5504,-3.5504,-3.5504,-3.5504,-3.5504,-3.5504,-3.5504,-3.5504,-3.5504,-3.5504,-3.5504,-3.5504,-3.5504,-3.5504,-3.5504,-3.5504,-3.5504,-3.5504,-3.5504,-3.5504,-3.5504,-3.5504,-3.5504,-3.5504,-3.5504,-3.5504,-3.5504,-3.5504,-3.5504,-3.5504,-3.5504,-3.5504,-3.5265,-3.4577,-3.3918,-3.326,-3.2602,-3.1943,-3.1482,-3.1482,-3.1482,-3.1482,-3.1482,-3.1255,-3.0806,-3.0133,-2.9505,-2.8846,-2.8173,-2.7784,-2.7625,-2.7625,-2.7625,-2.7625,-2.7625,-2.7625,-2.7203,-2.651,-2.651,-2.6122,0.0,0.0,0.0,0.0,0.0,0.0,0.0,0.0,0.0,0.0,0.0,0.0,0.0,0.0,0.0,0.0,0.0,0.0,0.0,0.0,0.0,0.0,0.0,0.0,0.0,0.0,0.0,0.0,-3.5943,-3.5622,-3.5622,-3.6163,-3.64,-3.6197,-3.6415,-3.591,-3.4644,-3.381,-3.3188,-3.2721,-3.2243,-3.2093,-3.2243,-3.1764,-3.2078,-3.2991,-3.2991,-3.3365,-3.3978,-3.4158,-3.4622,-3.5265,-3.5429,-3.5504,-3.5504,-3.5504,-3.5504,-3.5504,-3.5504,-3.5504,-3.5504,-3.5504,-3.5504,-3.5504,-3.5504,-3.5504,-3.5504,-3.5504,-3.5504,-3.5504,-3.5504,-3.5504,-3.5504,-3.5504,-3.5504,-3.5504,-3.5504,-3.5504,-3.5504,-3.5504,-3.5504,-3.5504,-3.5504,-3.5504,-3.522,-3.4352,-3.3814,-3.32,-3.2362,-3.1839,-3.1482,-3.1482,-3.1482,-3.1482,-3.1482,-3.1317,-3.0986,-3.0313,-2.9684,-2.9041,-2.8368,-2.7844,-2.7625,-2.7625,-2.7625,-2.7625,-2.7625,-2.7625,-2.7306,-2.6774,-2.6774,-2.639,0.0,0.0,0.0,0.0,0.0,0.0,0.0,0.0,0.0,0.0,0.0,0.0,0.0,0.0,0.0,0.0,0.0,0.0,0.0,0.0,0.0,0.0,0.0,0.0,0.0,0.0,0.0,0.0,-3.5639,-3.5622,-3.5622,-3.5656,-3.5351,-3.4624,-3.529,-3.4376,-3.1742,-3.0483,-3.0128,-3.0657,-3.0627,-3.0956,-3.1526,-3.1497,-3.1511,-3.1571,-3.1571,-3.2003,-3.2662,-3.329,-3.3933,-3.4592,-3.525,-3.5504,-3.5504,-3.5504,-3.5504,-3.5504,-3.5504,-3.5504,-3.5504,-3.5504,-3.5504,-3.5504,-3.5504,-3.5504,-3.5504,-3.5504,-3.5504,-3.5504,-3.5504,-3.5504,-3.5504,-3.5504,-3.5504,-3.5504,-3.5504,-3.5504,-3.5504,-3.5504,-3.5504,-3.5504,-3.5504,-3.5504,-3.5055,-3.3739,-3.3514,-3.3036,-3.1691,-3.1497,-3.1482,-3.1482,-3.1482,-3.1482,-3.1482,-3.0941,-3.0298,-2.9669,-2.9011,-2.8338,-2.77,-2.764,-2.7625,-2.7625,-2.7625,-2.7625,-2.7625,-2.7625,-2.7575,-2.756,-2.756,-2.7152,0.0,0.0,0.0,0.0,0.0,0.0,0.0,0.0,0.0,0.0,0.0,0.0,0.0,0.0,0.0,0.0,0.0,0.0,0.0,0.0,0.0,0.0,0.0,0.0,0.0,0.0,0.0,0.0,0.0,-3.4692,-3.4218,-3.4201,-3.4083,-3.3795,-3.3276,-3.2079,-3.0299,-2.9818,-2.9894,-3.0507,-3.0507,-3.0866,-3.1482,-3.1482,-3.1482,-3.1482,-3.1482,-3.1898,-3.2557,-3.3215,-3.3888,-3.4547,-3.5235,-3.5504,-3.5504,-3.5504,-3.5504,-3.5504,-3.5504,-3.5504,-3.5504,-3.5504,-3.5504,-3.5504,-3.5504,-3.5504,-3.5504,-3.5504,-3.5504,-3.5504,-3.5504,-3.5504,-3.5504,-3.5504,-3.5504,-3.5504,-3.5504,-3.5504,-3.5504,-3.5504,-3.5504,-3.5504,-3.5504,-3.5504,-3.504,-3.3694,-3.3499,-3.3021,-3.1646,-3.1482,-3.1482,-3.1482,-3.1482,-3.1482,-3.1482,-3.0911,-3.0417,-3.0193,-2.919,-2.8487,-2.8248,-2.7814,-2.7625,-2.7625,-2.7625,-2.7625,-2.7625,-2.7625,-2.7625,-2.7625,-2.7625,-2.7458,-2.0537,0.0,0.0,0.0,0.0,0.0,0.0,0.0,0.0,0.0,0.0,0.0,0.0,0.0,0.0,0.0,0.0,0.0,0.0,0.0,0.0,0.0,0.0,0.0,0.0,0.0,0.0,0.0,0.0,0.0,-3.3778,-3.3541,-3.3305,-3.3117,-3.1596,-3.0431,-2.9629,-2.9155,-2.922,-2.9864,-3.0088,-3.0552,-3.1195,-3.1377,-3.1482,-3.1482,-3.1482,-3.1779,-3.2243,-3.2901,-3.3559,-3.4188,-3.4651,-3.51,-3.5474,-3.525,-3.531,-3.5504,-3.5504,-3.5504,-3.5504,-3.5504,-3.5504,-3.5504,-3.5504,-3.5504,-3.5504,-3.5504,-3.5504,-3.5504,-3.5504,-3.5504,-3.5504,-3.5504,-3.5504,-3.5504,-3.5504,-3.5504,-3.5504,-3.5504,-3.5504,-3.5504,-3.5504,-3.5504,-3.5115,-3.3993,-3.3634,-3.3095,-3.2003,-3.1616,-3.1482,-3.1482,-3.1482,-3.1482,-3.1482,-3.0911,-3.0417,-3.0208,-2.919,-2.8502,-2.8263,-2.7814,-2.7625,-2.7625,-2.7625,-2.7625,-2.7625,-2.7625,-2.7625,-2.7625,-2.7625,-2.7625,0.0,0.0,0.0,0.0,0.0,0.0,0.0,0.0,0.0,0.0,0.0,0.0,0.0,0.0,0.0,0.0,0.0,0.0,0.0,0.0,0.0,0.0,0.0,0.0,0.0,0.0,0.0,0.0,-3.3372,-3.3677,-3.4353,-3.3728,-3.305,-3.243,-3.0474,-2.9451,-2.957,-2.8263,-2.7919,-2.8607,-2.9265,-2.9909,-3.0522,-3.121,-3.1482,-3.1482,-3.1482,-3.1482,-3.1526,-3.2243,-3.2886,-3.3469,-3.3484,-3.4307,-3.5385,-3.4726,-3.4906,-3.5504,-3.5504,-3.5504,-3.5504,-3.5504,-3.5504,-3.5504,-3.5504,-3.5504,-3.5504,-3.5504,-3.5504,-3.5504,-3.5504,-3.5504,-3.5504,-3.5504,-3.5504,-3.5504,-3.5504,-3.5504,-3.5504,-3.5504,-3.5504,-3.5504,-3.5504,-3.5504,-3.5265,-3.4577,-3.3918,-3.326,-3.2602,-3.1943,-3.1482,-3.1482,-3.1482,-3.1482,-3.1482,-3.0911,-3.0238,-2.9624,-2.8966,-2.8293,-2.7655,-2.7625,-2.7625,-2.7625,-2.7625,-2.7625,-2.7625,-2.7625,-2.7625,-2.7625,-2.7625,-2.7625,-2.107,0.0,0.0,0.0,0.0,0.0,0.0,0.0,0.0,0.0,0.0,0.0,0.0,0.0,0.0,0.0,0.0,0.0,0.0,0.0,0.0,0.0,0.0,0.0,0.0,0.0,0.0,0.0,-3.2594,-3.2459,-3.2121,-3.1918,-3.1523,-3.0945,-2.9927,-2.9229,-2.879,-2.7985,-2.7919,-2.8607,-2.9265,-2.9909,-3.0522,-3.121,-3.1482,-3.1482,-3.1482,-3.1482,-3.1526,-3.2243,-3.2617,-3.2826,-3.3305,-3.4008,-3.4741,-3.4547,-3.4906,-3.5504,-3.5504,-3.5504,-3.5504,-3.5504,-3.5504,-3.5504,-3.5504,-3.5504,-3.5504,-3.5504,-3.5504,-3.5504,-3.5504,-3.5504,-3.5504,-3.5504,-3.5504,-3.5504,-3.5504,-3.5504,-3.5504,-3.5504,-3.5504,-3.5504,-3.5504,-3.5504,-3.5265,-3.4577,-3.3918,-3.326,-3.2602,-3.1943,-3.1482,-3.1482,-3.1482,-3.1482,-3.1482,-3.0911,-3.0238,-2.9624,-2.8966,-2.8293,-2.7655,-2.7625,-2.7625,-2.7625,-2.7625,-2.7625,-2.7625,-2.7625,-2.7625,-2.7625,-2.7625,-2.7625,0.0,0.0,0.0,0.0,0.0,0.0,-2.2147,-2.25,0.0,0.0,0.0,0.0,0.0,0.0,0.0,0.0,0.0,0.0,0.0,0.0,0.0,0.0,0.0,0.0,0.0,-3.2036,-3.1968,-3.1833,-3.1833,-3.1647,-3.1207,-3.1478,-3.1237,-3.0309,-2.9935,-2.9361,-2.8511,-2.84,-2.8274,-2.8188,-2.9418,-3.0014,-3.0148,-3.1106,-3.1482,-3.1482,-3.1482,-3.1482,-3.1497,-3.1943,-3.2273,-3.2527,-3.2632,-3.3245,-3.4068,-3.4068,-3.4502,-3.5115,-3.54,-3.5504,-3.5504,-3.5504,-3.5504,-3.5504,-3.5504,-3.5504,-3.5504,-3.5504,-3.5504,-3.5504,-3.5504,-3.5504,-3.5504,-3.5504,-3.5504,-3.5504,-3.5504,-3.5504,-3.5504,-3.5504,-3.5504,-3.5504,-3.5504,-3.5504,-3.537,-3.4966,-3.4098,-3.3365,-3.2976,-3.2108,-3.1482,-3.1482,-3.1482,-3.1482,-3.1482,-3.0911,-3.0238,-2.9624,-2.8966,-2.8293,-2.7655,-2.7625,-2.7625,-2.7625,-2.7625,-2.7625,-2.7625,-2.7625,-2.7625,-2.7625,-2.7625,-2.7625,0.0,0.0,0.0,0.0,0.0,0.0,-2.2349,-2.2293,-2.2439,0.0,0.0,0.0,0.0,0.0,0.0,0.0,0.0,0.0,0.0,0.0,0.0,0.0,0.0,0.0,-2.9989,-2.9989,-3.026,-3.0903,-3.1021,-3.1072,-3.1072,-3.1765,-3.159,-3.0368,-3.0251,-2.9673,-2.8511,-2.8966,-2.867,-2.764,-2.9501,-3.0105,-2.9624,-3.0941,-3.1482,-3.1482,-3.1482,-3.1482,-3.1482,-3.1482,-3.1884,-3.2347,-3.1706,-3.2287,-3.338,-3.338,-3.3799,-3.4457,-3.516,-3.5385,-3.54,-3.5489,-3.5504,-3.5504,-3.5504,-3.5504,-3.5504,-3.5504,-3.5504,-3.5504,-3.5504,-3.5504,-3.5504,-3.5504,-3.5504,-3.5489,-3.5415,-3.5385,-3.537,-3.5295,-3.54,-3.5504,-3.5504,-3.5504,-3.5474,-3.54,-3.4307,-3.3469,-3.3395,-3.2302,-3.1482,-3.1482,-3.1482,-3.1437,-3.1377,-3.0851,-3.0208,-2.952,-2.8921,-2.8293,-2.7655,-2.7625,-2.7625,-2.7625,-2.7625,-2.7625,-2.7625,-2.7625,-2.7625,-2.7625,-2.7625,-2.7625,0.0,0.0,0.0,0.0,0.0,0.0,-2.2061,-2.1945,-2.1906,0.0,0.0,0.0,0.0,0.0,0.0,0.0,0.0,0.0,0.0,0.0,0.0,0.0,0.0,0.0,-2.9194,-2.9194,-2.9262,-2.9397,-2.9973,-3.0311,-3.0311,-3.1004,-3.1069,-3.0293,-2.9805,-2.9225,-2.8511,-2.814,-2.7845,-2.764,-2.9079,-2.9726,-2.9624,-3.0941,-3.1482,-3.1482,-3.1482,-3.1482,-3.1482,-3.1482,-3.1556,-3.1661,-3.1526,-3.2018,-3.2706,-3.2706,-3.3125,-3.3784,-3.4442,-3.4681,-3.4771,-3.5325,-3.5504,-3.5504,-3.5504,-3.5504,-3.5504,-3.5504,-3.5504,-3.5504,-3.5504,-3.5504,-3.5504,-3.5504,-3.5504,-3.5355,-3.4801,-3.4681,-3.4517,-3.3993,-3.4756,-3.5504,-3.5504,-3.5504,-3.5325,-3.4756,-3.4008,-3.3305,-3.2766,-3.2018,-3.1482,-3.1482,-3.1482,-3.13,-3.0746,-3.0582,-3.0013,-2.8861,-2.8667,-2.8293,-2.7655,-2.7625,-2.7625,-2.7625,-2.7625,-2.7625,-2.7625,-2.7625,-2.7625,-2.7625,-2.7625,-2.7625,0.0,0.0,0.0,-2.3377,0.0,0.0,0.0,-2.1928,-2.1797,0.0,0.0,0.0,0.0,0.0,0.0,0.0,0.0,0.0,0.0,0.0,0.0,0.0,0.0,0.0,-2.73,-2.7621,-2.8163,-2.8924,-2.933,-2.955,-2.955,-3.0243,-3.0516,-3.0206,-2.9985,-2.954,-2.895,-2.8638,-2.8222,-2.764,-2.894,-2.9554,-2.9609,-3.0582,-3.121,-3.1482,-3.1482,-3.1482,-3.1482,-3.1482,-3.1482,-3.1482,-3.1482,-3.1734,-3.2063,-3.2392,-3.2721,-3.3095,-3.3754,-3.3978,-3.4038,-3.4382,-3.4502,-3.4562,-3.4891,-3.5235,-3.5504,-3.5504,-3.5504,-3.5504,-3.5504,-3.5504,-3.5504,-3.5504,-3.5504,-3.531,-3.4622,-3.4472,-3.4277,-3.3619,-3.4038,-3.4502,-3.4502,-3.4771,-3.4756,-3.4083,-3.3425,-3.2886,-3.2557,-3.1943,-3.1405,-3.1061,-3.1016,-3.0746,-3.0103,-2.9744,-2.928,-2.8637,-2.8278,-2.7934,-2.7625,-2.7625,-2.7625,-2.7625,-2.7625,-2.7625,-2.7625,-2.7625,-2.7625,-2.7625,-2.7625,-2.7625,0.0,0.0,0.0,0.0,0.0,-2.319,0.0,0.0,0.0,-2.1738,0.0,0.0,0.0,0.0,0.0,0.0,0.0,0.0,0.0,0.0,0.0,0.0,0.0,0.0,0.0,-2.6015,-2.6776,-2.8027,-2.8247,-2.8399,-2.8535,-2.9262,-2.9644,-2.9719,-2.9805,-2.9528,-2.8828,-2.8955,-2.8483,-2.7445,-2.8717,-2.9352,-2.9415,-3.0163,-3.0806,-3.1345,-3.1422,-3.1482,-3.1482,-3.1482,-3.1507,-3.1501,-3.148,-3.1582,-3.1757,-3.2182,-3.2377,-3.2584,-3.3126,-3.3305,-3.335,-3.3604,-3.3769,-3.3978,-3.4517,-3.5055,-3.5504,-3.5504,-3.5504,-3.5474,-3.534,-3.54,-3.5474,-3.534,-3.531,-3.5115,-3.4427,-3.4188,-3.3903,-3.3245,-3.3215,-3.335,-3.3469,-3.3933,-3.4068,-3.341,-3.2856,-3.2467,-3.2332,-3.1795,-3.1315,-3.0761,-3.0582,-3.0253,-2.9639,-2.8981,-2.8547,-2.8412,-2.7874,-2.7625,-2.7625,-2.7625,-2.7625,-2.7625,-2.7625,-2.7625,-2.7625,-2.7625,-2.7625,-2.7625,-2.7625,-2.7625,0.0,0.0,0.0,0.0,-2.3608,0.0,0.0,0.0,-2.1573,-2.1448,0.0,-2.134,-2.134,0.0,0.0,0.0,0.0,0.0,0.0,0.0,0.0,0.0,0.0,0.0,0.0,-2.5067,-2.4828,-2.5014,-2.5609,-2.6268,-2.6928,-2.7672,-2.8149,-2.8329,-2.8349,-2.7842,-2.6743,-2.7333,-2.7333,-2.6722,-2.8081,-2.8689,-2.8757,-2.9953,-3.0552,-3.0657,-3.127,-3.1482,-3.1482,-3.1482,-3.1475,-3.1436,-3.1498,-3.191,-3.2398,-3.1829,-3.2016,-3.2598,-3.2613,-3.2617,-3.2826,-3.3978,-3.4786,-3.5295,-3.537,-3.5444,-3.5504,-3.5504,-3.5504,-3.537,-3.4756,-3.504,-3.5355,-3.4741,-3.4592,-3.4412,-3.3754,-3.3155,-3.2542,-3.1884,-3.2228,-3.2811,-3.3395,-3.3559,-3.338,-3.2721,-3.2557,-3.2302,-3.1719,-3.1526,-3.1437,-3.1362,-3.0866,-3.0253,-2.9639,-2.8981,-2.8338,-2.7724,-2.767,-2.7625,-2.7625,-2.7625,-2.7625,-2.7625,-2.7625,-2.7625,-2.7625,-2.7625,-2.7625,-2.7625,-2.7625,-2.7625,0.0,0.0,0.0,0.0,0.0,0.0,-2.2495,0.0,-2.1464,0.0,0.0,0.0,0.0,0.0,0.0,0.0,-2.134,0.0,0.0,0.0,0.0,0.0,0.0,0.0,0.0,0.0,0.0,0.0,-2.478,-2.5084,-2.5389,-2.6522,-2.7196,-2.7286,-2.7822,-2.7858,-2.7394,-2.7739,-2.764,-2.7099,-2.8061,-2.8546,-2.8637,-2.9549,-3.0163,-3.0537,-3.124,-3.1482,-3.1482,-3.1482,-3.1728,-3.2114,-3.2109,-3.2284,-3.2557,-3.267,-3.268,-3.264,-3.2966,-3.2564,-3.2152,-3.3572,-3.3925,-3.389,-3.4744,-3.4696,-3.4412,-3.4801,-3.4637,-3.4352,-3.4442,-3.4696,-3.4741,-3.4068,-3.4203,-3.4188,-3.3155,-3.3006,-3.2781,-3.1734,-3.2063,-3.2482,-3.2377,-3.2677,-3.2706,-3.2048,-3.1943,-3.1839,-3.1511,-3.118,-3.0806,-3.0432,-2.9804,-2.9131,-2.8472,-2.8158,-2.7874,-2.764,-2.7625,-2.7625,-2.7625,-2.7625,-2.7625,-2.7625,-2.7625,-2.7625,-2.7625,-2.7625,-2.7625,-2.7625,-2.7625,-2.7625,-2.8505,0.0,0.0,0.0,0.0,0.0,0.0,0.0,0.0,0.0,0.0,0.0,0.0,0.0,-2.1294,0.0,0.0,0.0,0.0,0.0,0.0,0.0,0.0,0.0,0.0,0.0,0.0,0.0,0.0,-2.3985,-2.4201,-2.5389,-2.6184,-2.6387,-2.7122,-2.7602,-2.78,-2.7962,-2.7898,-2.7686,-2.8404,-2.8774,-2.8869,-2.9526,-3.0182,-3.0823,-3.1263,-3.1615,-3.1796,-3.1582,-3.1901,-3.2591,-3.2779,-3.2927,-3.308,-3.3478,-3.3287,-3.2904,-3.3168,-3.2721,-3.2243,-3.3311,-3.349,-3.3536,-3.4361,-3.4222,-3.3864,-3.413,-3.3858,-3.3604,-3.4083,-3.4337,-3.4307,-3.3649,-3.3858,-3.3903,-3.2766,-3.2751,-3.2677,-3.1719,-3.1913,-3.2093,-3.1556,-3.1928,-3.2078,-3.1541,-3.1482,-3.1482,-3.1482,-3.0926,-3.0328,-2.9879,-2.9101,-2.8397,-2.7904,-2.7679,-2.7625,-2.7625,-2.7625,-2.7625,-2.7625,-2.7625,-2.7625,-2.7625,-2.7625,-2.7625,-2.7625,-2.7625,-2.7625,-2.7625,-2.7625,-2.7625,0.0,0.0,0.0,-2.7729,0.0,0.0,0.0,0.0,-2.3244,0.0,0.0,0.0,0.0,-2.1309,-2.1294,-2.1215,0.0,0.0,0.0,0.0,0.0,0.0,0.0,0.0,0.0,0.0,0.0,0.0,0.0,0.0,-2.3393,-2.4167,-2.4881,-2.5609,-2.5911,-2.6425,-2.7135,-2.7276,-2.7662,-2.8377,-2.9054,-2.9377,-2.938,-3.0082,-3.0768,-3.1453,-3.1431,-3.1828,-3.2492,-3.1796,-3.1873,-3.257,-3.3275,-3.3908,-3.4381,-3.3827,-3.3582,-3.3495,-3.2873,-3.2965,-3.346,-3.3491,-3.4391,-3.5364,-3.4743,-3.4512,-3.4352,-3.3743,-3.3514,-3.3499,-3.3529,-3.3993,-3.4307,-3.3649,-3.3514,-3.3335,-3.2662,-3.2033,-3.1526,-3.1482,-3.1497,-3.1497,-3.1482,-3.1497,-3.1497,-3.1482,-3.1482,-3.1482,-3.1482,-3.0926,-3.0492,-3.0477,-2.9355,-2.8592,-2.8562,-2.7949,-2.7625,-2.7625,-2.7625,-2.7625,-2.7625,-2.7625,-2.7625,-2.7625,-2.7625,-2.7625,-2.7625,-2.7625,-2.7625,-2.7625,-2.7625,-2.7625,0.0,0.0,-2.9396,-2.7332,0.0,0.0,0.0,0.0,0.0,0.0,0.0,0.0,0.0,0.0,-2.1294,-2.1215,-2.0974,0.0,0.0,0.0,0.0,0.0,0.0,0.0,0.0,0.0,0.0,0.0,-2.2135,0.0,-2.2665,-2.3816,-2.4625,-2.4847,-2.6387,-2.7308,-2.7559,-2.8632,-2.9055,-2.8943,-2.9636,-2.9805,-2.9454,-3.0606,-3.1246,-3.1534,-3.2466,-3.2997,-3.3235,-3.2971,-3.3284,-3.3909,-3.4137,-3.4651,-3.5222,-3.5015,-3.435,-3.3427,-3.2256,-3.2588,-3.3603,-3.4101,-3.4282,-3.4345,-3.4594,-3.3983,-3.3285,-3.3472,-3.2871,-3.2392,-3.3275,-3.3335,-3.3125,-3.2901,-3.2841,-3.2781,-3.2557,-3.2332,-3.2048,-3.1556,-3.1884,-3.2048,-3.1556,-3.1482,-3.1482,-3.1482,-3.1482,-3.1482,-3.1482,-3.0567,-2.9894,-2.9894,-2.8712,-2.7919,-2.7919,-2.7709,-2.7625,-2.7625,-2.7625,-2.7625,-2.7625,-2.7625,-2.7625,-2.7625,-2.7625,-2.7625,-2.7625,-2.7625,-2.7625,-2.7625,-2.7625,-2.7625,-3.0674,-3.0413,0.0,-2.7694,-2.7051,0.0,-2.512,0.0,0.0,0.0,0.0,0.0,0.0,0.0,0.0,-2.1617,-2.115,-2.0638,0.0,-1.9703,0.0,0.0,0.0,0.0,0.0,0.0,0.0,-2.1832,-2.2061,-2.231,0.0,0.0,-2.4611,-2.4864,-2.6605,-2.7765,-2.823,-2.9261,-2.9828,-2.9902,-3.0384,-3.0567,-3.0457,-3.1083,-3.1802,-3.2599,-3.2999,-3.3484,-3.3937,-3.3684,-3.3987,-3.4576,-3.4576,-3.5005,-3.5622,-3.5622,-3.4752,-3.3443,-3.2312,-3.2628,-3.3716,-3.4716,-3.4917,-3.4774,-3.4973,-3.4397,-3.3646,-3.3245,-3.2542,-3.2078,-3.2931,-3.2826,-3.2512,-3.2512,-3.2512,-3.2452,-3.2213,-3.2168,-3.2033,-3.1556,-3.1884,-3.2033,-3.1541,-3.1482,-3.1482,-3.1482,-3.1482,-3.1377,-3.121,-3.0238,-2.949,-2.9265,-2.8233,-2.7625,-2.7625,-2.7625,-2.7625,-2.7625,-2.7625,-2.7625,-2.7625,-2.7625,-2.785,-2.8278,-2.7814,-2.785,-2.8329,-2.785,-2.7625,-2.7625,-2.7625,-2.7625]}]]